[[{"header":{"parameterUnit":"m.s-1","parameterCategory":1,"la1":30.6,"la2":29.2853,"lo1":-89.7004,"lo2":-87.6739,"dy":0.0162,"dx":0.0183,"nx":112,"ny":82,"refTime":"2023-08-11T18:00:00:Z","depth":0,"parameterNumber":2,"parameterNumberName":"U-component_of_WINDS"},"data":[0.0,0.0,0.0,0.0,0.0,0.0,0.0,0.0,0.0,0.0,0.0,0.0,0.0,0.0,0.0,0.0,0.0,0.0,0.0,0.0,0.0,0.0,0.0,0.0,0.0,0.0,0.0,0.0,0.0,0.0,0.0,0.0,0.0,0.0,0.0,0.0,0.0,0.0,0.0,0.0,0.0,0.0,0.0,0.0,0.0,0.0,0.0,0.0,0.0,0.0,0.0,0.0,0.0,0.0,0.0,0.0,0.0,0.0,0.0,0.0,0.0,0.0,0.0,0.0,0.0,0.0,0.0,0.0,0.0,0.0,0.0,0.0,0.0,0.0,0.0,0.0,0.0,0.0,0.0,0.0,0.0,0.0,0.0,0.0,0.0,0.0,0.0,0.0,0.0,0.0,-0.0455,-0.0828,-0.0941,-0.105,-0.1074,-0.1054,-0.105,-0.1074,0.0,0.0,0.0,0.0,0.0,0.0,0.0,0.0,0.0,0.0,0.0,0.0,0.0,0.0,0.0,0.0,0.0,0.0,0.0,0.0,0.0,0.0,0.0,0.0,0.0,0.0,0.0,0.0,0.0,0.0,0.0,0.0,0.0,0.0,0.0,0.0,0.0,0.0,0.0,0.0,0.0,0.0,0.0,0.0,0.0,0.0,0.0,0.0,0.0,0.0,0.0,0.0,0.0,0.0,0.0,0.0,0.0,0.0,0.0,0.0,0.0,0.0,0.0,0.0,0.0,0.0,0.0,0.0,0.0,0.0,0.0,0.0,0.0,0.0,0.0,0.0,0.0,0.0,0.0,0.0,0.0,0.0,0.0,0.0,0.0,0.0,0.0,0.0,0.0,0.0,0.0,0.0,0.0,0.0,0.0,0.0,0.0,0.0,0.0,0.0,0.0,0.0,0.0,0.0,-0.023,-0.067,-0.0971,-0.1073,-0.1075,-0.1072,-0.1071,-0.1075,0.0,0.0,0.0,0.0,0.0,0.0,0.0,0.0,0.0,0.0,0.0,0.0,0.0,0.0,0.0,0.0,0.0,0.0,0.0,0.0,0.0,0.0,0.0,0.0,0.0,0.0,0.0,0.0,0.0,0.0,0.0,0.0,0.0,0.0,0.0,0.0,0.0,0.0,0.0,0.0,0.0,0.0,0.0,0.0,0.0,0.0,0.0,0.0,0.0,0.0,0.0,0.0,0.0,0.0,0.0,0.0,0.0,0.0,0.0,0.0,0.0,0.0,0.0,0.0,0.0,0.0,0.0,0.0,0.0,0.0,0.0,0.0,0.0,0.0,0.0,0.0,0.0,0.0,0.0,0.0,0.0,0.0,0.0,0.0,0.0,0.0,0.0,0.0,0.0,0.0,0.0,0.0,0.0,0.0,0.0,0.0,0.0,0.0,0.0,0.0,0.0,0.0,0.0,-0.0,-0.0179,-0.0554,-0.0913,-0.1078,-0.1076,-0.1076,-0.1076,-0.1076,-0.1063,0.0,0.0,0.0,0.0,0.0,0.0,0.0,0.0,0.0,0.0,0.0,0.0,0.0,0.0,0.0,0.0,0.0,0.0,0.0,0.0,0.0,0.0,0.0,0.0,0.0,0.0,0.0,0.0,0.0,0.0,0.0,0.0,0.0,0.0,0.0,0.0,0.0,0.0,0.0,0.0,0.0,0.0,0.0,0.0,0.0,0.0,0.0,0.0,0.0,0.0,0.0,0.0,0.0,0.0,0.0,0.0,0.0,0.0,0.0,0.0,0.0,0.0,0.0,0.0,0.0,0.0,0.0,0.0,0.0,0.0,0.0,0.0,0.0,0.0,0.0,0.0,0.0,0.0,0.0,0.0,0.0,0.0,0.0,0.0,0.0,0.0,0.0,0.0,0.0,0.0,0.0,0.0,0.0,0.0,0.0,0.0,0.0,0.0,0.0,0.0,0.0,0.0,-0.0179,-0.031,-0.0499,-0.0851,-0.1078,-0.1076,-0.1076,-0.1076,-0.1076,-0.1076,0.0,0.0,0.0,0.0,0.0,0.0,0.0,0.0,0.0,0.0,0.0,0.0,0.0,0.0,0.0,0.0,0.0,0.0,0.0,0.0,0.0,0.0,0.0,0.0,0.0,0.0,0.0,0.0,0.0,0.0,0.0,0.0,0.0,0.0,0.0,0.0,0.0,0.0,0.0,0.0,0.0,0.0,0.0,0.0,0.0,0.0,0.0,0.0,0.0,0.0,0.0,0.0,0.0,0.0,0.0,0.0,0.0,0.0,0.0,0.0,0.0,0.0,0.0,0.0,0.0,0.0,0.0,0.0,0.0,0.0,0.0,0.0,0.0,0.0,0.0,0.0,0.0,0.0,0.0,0.0,0.0,0.0,0.0,0.0,0.0,0.0,0.0,0.0,0.0,0.0,0.0,0.0,0.0,0.0,0.0,0.0,0.0,0.0,0.0,0.0,0.0,0.0,-0.0605,-0.0874,-0.0514,-0.0861,-0.1078,-0.1076,-0.1076,-0.1076,-0.1076,-0.1076,0.0,0.0,0.0,0.0,0.0,0.0,0.0,0.0,0.0,0.0,0.0,0.0,0.0,0.0,0.0,0.0,0.0,0.0,0.0,0.0,0.0,0.0,0.0,0.0,0.0,0.0,0.0,0.0,0.0,0.0,0.0,0.0,0.0,0.0,0.0,0.0,0.0,0.0,0.0,0.0,0.0,0.0,0.0,0.0,0.0,0.0,0.0,0.0,0.0,0.0,0.0,0.0,0.0,0.0,0.0,0.0,0.0,0.0,0.0,0.0,0.0,0.0,0.0,0.0,0.0,0.0,0.0,0.0,0.0,0.0,0.0,0.0,0.0,0.0,0.0,0.0,0.0,0.0,0.0,0.0,0.0,0.0,0.0,0.0,0.0,0.0,0.0,0.0,0.0,0.0,0.0,0.0,0.0,0.0,0.0,0.0,0.0,0.0,0.0,0.0,0.0,0.0,-0.0909,-0.1062,-0.0902,-0.0994,-0.1078,-0.1076,-0.1076,-0.1076,-0.1076,0.0,0.0,0.0,0.0,0.0,0.0,0.0,0.0,0.0,0.0,0.0,0.0,0.0,0.0,0.0,0.0,0.0,0.0,0.0,0.0,0.0,0.0,0.0,0.0,0.0,0.0,0.0,0.0,0.0,0.0,0.0,0.0,0.0,0.0,0.0,0.0,0.0,0.0,0.0,0.0,0.0,0.0,0.0,0.0,0.0,0.0,0.0,0.0,0.0,0.0,0.0,0.0,0.0,0.0,0.0,0.0,0.0,0.0,0.0,0.0,0.0,0.0,0.0,0.0,0.0,0.0,0.0,0.0,0.0,0.0,0.0,0.0,0.0,0.0,0.0,0.0,0.0,0.0,0.0,0.0,0.0,0.0,0.0,0.0,0.0,0.0,0.0,0.0,0.0,0.0,0.0,0.0,0.0,0.0,0.0,0.0,0.0,0.0,0.0,0.0,0.0,0.0,-0.0952,-0.1097,-0.1067,-0.1109,-0.1133,-0.1078,-0.1076,-0.1076,-0.1076,-0.1076,0.0,0.0,0.0,0.0,0.0,0.0,0.0,0.0,0.0,0.0,0.0,0.0,0.0,0.0,0.0,0.0,0.0,0.0,0.0,0.0,0.0,0.0,0.0,0.0,0.0,0.0,0.0,0.0,0.0,0.0,0.0,0.0,0.0,0.0,0.0,0.0,0.0,0.0,0.0,0.0,0.0,0.0,0.0,0.0,0.0,0.0,0.0,0.0,0.0,0.0,0.0,0.0,0.0,0.0,0.0,0.0,0.0,0.0,0.0,0.0,0.0,0.0,0.0,0.0,0.0,0.0,0.0,0.0,0.0,0.0,0.0,0.0,0.0,0.0,0.0,0.0,0.0,0.0,0.0,0.0,0.0,0.0,0.0,0.0,0.0,0.0,0.0,0.0,0.0,0.0,0.0,0.0,0.0,0.0,0.0,0.0,0.0,0.0,0.0,0.0,0.0,0.0,-0.0981,-0.105,-0.1012,-0.1072,-0.1077,-0.1076,-0.1076,-0.1076,-0.1076,0.0,0.0,0.0,0.0,0.0,0.0,0.0,0.0,0.0,0.0,0.0,0.0,0.0,0.0,0.0,0.0,0.0,0.0,0.0,0.0,0.0,0.0,0.0,0.0,0.0,0.0,0.0,0.0,0.0,0.0,0.0,0.0,0.0,0.0,0.0,0.0,0.0,0.0,0.0,0.0,0.0,0.0,0.0,0.0,0.0,0.0,0.0,0.0,0.0,0.0,0.0,0.0,0.0,0.0,0.0,0.0,0.0,0.0,0.0,0.0,0.0,0.0,0.0,0.0,0.0,0.0,0.0,0.0,0.0,0.0,0.0,0.0,0.0,0.0,0.0,0.0,0.0,0.0,0.0,0.0,0.0,0.0,0.0,0.0,0.0,0.0,0.0,0.0,0.0,0.0,0.0,0.0,0.0,0.0,0.0,0.0,0.0,0.0,0.0,0.0,0.0,0.0,0.0,-0.0981,-0.0988,-0.1011,-0.107,-0.1076,-0.1076,-0.1076,-0.1076,-0.1076,-0.1076,0.0,0.0,0.0,0.0,0.0,0.0,0.0,0.0,0.0,0.0,0.0,0.0,0.0,0.0,0.0,0.0,0.0,0.0,0.0,0.0,0.0,0.0,0.0,0.0,0.0,0.0,0.0,0.0,0.0,0.0,0.0,0.0,0.0,0.0,0.0,0.0,0.0,0.0,0.0,0.0,0.0,0.0,0.0,0.0,0.0,0.0,0.0,0.0,0.0,0.0,0.0,0.0,0.0,0.0,0.0,0.0,0.0,0.0,0.0,0.0,0.0,0.0,0.0,0.0,0.0,0.0,0.0,0.0,0.0,0.0,0.0,0.0,0.0,0.0,0.0,0.0,0.0,0.0,0.0,0.0,0.0,0.0,0.0,0.0,0.0,0.0,0.0,0.0,0.0,0.0,0.0,0.0,0.0,0.0,0.0,0.0,0.0,0.0,0.0,0.0,0.0,0.0,-0.0982,-0.0999,-0.1024,-0.1071,-0.1076,-0.1076,-0.1076,-0.1076,-0.1076,-0.1076,0.0,0.0,0.0,0.0,0.0,0.0,0.0,0.0,0.0,0.0,0.0,0.0,0.0,0.0,0.0,0.0,0.0,0.0,0.0,0.0,0.0,0.0,0.0,0.0,0.0,0.0,0.0,0.0,0.0,0.0,0.0,0.0,0.0,0.0,0.0,0.0,0.0,0.0,0.0,0.0,0.0,0.0,0.0,0.0,0.0,0.0,0.0,0.0,0.0,0.0,0.0,0.0,0.0,0.0,0.0,0.0,0.0,0.0,0.0,0.0,0.0,0.0,0.0,0.0,0.0,0.0,0.0,0.0,0.0,0.0,0.0,0.0,0.0,0.0,0.0,0.0,0.0,0.0,0.0,0.0,0.0,0.0,0.0,0.0,0.0,0.0,0.0,0.0,0.0,0.0,0.0,0.0,0.0,0.0,0.0,0.0,0.0,0.0,0.0,0.0,0.0,0.0,-0.0988,-0.1016,-0.1044,-0.1072,-0.1076,-0.1076,-0.1076,-0.1076,-0.1076,-0.1076,0.0,0.0,0.0,0.0,0.0,0.0,0.0,0.0,0.0,0.0,0.0,0.0,0.0,0.0,0.0,0.0,0.0,0.0,0.0,0.0,0.0,0.0,0.0,0.0,0.0,0.0,0.0,0.0,0.0,0.0,0.0,0.0,0.0,0.0,0.0,0.0,0.0,0.0,0.0,0.0,0.0,0.0,0.0,0.0,0.0,0.0,0.0,0.0,0.0,0.0,0.0,0.0,0.0,0.0,0.0,0.0,0.0,0.0,0.0,0.0,0.0748,0.0809,0.0,0.0,0.0,0.0,0.0,0.0,0.0,0.0,0.0,0.0,0.0,0.0,0.0,0.0,0.0,0.0,0.0,0.0,0.0,0.0,0.0,0.0,0.0,0.0,0.0,0.0,0.0,0.0,0.0,0.0,0.0,0.0,0.0,0.0,0.0,0.0,0.0,0.0,0.0,0.0,-0.1084,-0.1029,-0.1044,-0.1072,-0.1076,-0.1076,-0.1076,-0.1076,-0.1076,-0.1076,-0.1076,0.0,0.0,0.0,0.0,0.0,0.0,0.0,0.0,0.0,0.0,0.0,0.0,0.0,0.0,0.0,0.0,0.0,0.0,0.0,0.0,0.0,0.0,0.0,0.0,0.0,0.0,0.0,0.0,0.0,0.0,0.0,0.0,0.0,0.0,0.0,0.0,0.0,0.0,0.0,0.0,0.0,0.0,0.0,0.0,0.0,0.0,0.0,0.0,0.0,0.0,0.0,0.0,0.0,0.0,0.0,0.0,0.0,0.0,0.0,0.1042,0.0962,0.0,0.0,0.0,0.0,0.0,0.0,0.0,0.0,0.0,0.0,0.0,0.0,0.0,0.0,0.0,0.0,0.0,0.0,0.0,0.0,0.0,0.0,0.0,0.0,0.0,0.0,0.0,0.0,0.0,0.0,0.0,0.0,0.0,0.0,0.0,0.0,0.0,0.0,0.0,0.0,-0.1031,-0.1046,-0.1061,-0.1076,-0.1078,-0.1078,-0.1078,-0.1078,-0.1078,-0.1078,-0.1078,0.0,0.0,0.0,0.0,0.0,0.0,0.0,0.0,0.0,0.0,0.0,0.0,0.0,0.0,0.0,0.0,0.0,0.0,0.0,0.0,0.0,0.0,0.0,0.0,0.0,0.0,0.0,0.0,0.0,0.0,0.0,0.0,0.0,0.0,0.0,0.0,0.0,0.0,0.0,0.0,0.0,0.0,0.0,0.0,0.0,0.0,0.0,0.0,0.0,0.0,0.0,0.0,0.0,0.1093,0.1824,0.2409,0.2481,0.2487,0.2421,0.1865,0.17,0.1835,0.2318,0.0,0.0,0.0,0.0,0.0,0.0,0.0,0.0,0.0,0.0,0.0,0.0,0.0,0.0,0.0,0.0,0.0,0.0,0.0,0.0,0.0,0.0,0.2423,0.2018,0.1614,0.1076,0.0337,0.0,0.0,0.0,0.0,0.0,0.0,0.0,0.0,0.0,0.0,0.0,-0.0846,-0.0863,-0.0876,-0.0876,-0.0876,-0.0876,-0.0876,-0.0876,-0.0944,-0.0944,-0.1012,-0.1012,0.0,0.0,0.0,0.0,0.0,0.0,0.0,0.0,0.0,0.0,0.0,0.0,0.0,0.0,0.0,0.0,0.0,0.0,0.0,0.0,0.0,0.0,0.0,0.0,0.0,0.0,0.0,0.0,0.0,0.0,0.0,0.0,0.2018,0.1614,0.0,0.0,0.0,0.0,0.0,0.0,0.0,0.0,0.0,0.0,0.0,0.0,0.0,0.0144,0.0145,0.0145,0.0509,0.1166,0.197,0.2262,0.2115,0.2623,0.2803,0.2784,0.2998,0.0,0.2749,0.3113,0.0,0.0,0.0,0.0,0.0,0.0,0.0,0.0,0.0,0.0,0.0,0.0,0.0,0.0,0.0,0.0,0.0,0.0,0.0,0.0,0.0,0.0,0.2824,0.2423,0.2154,0.1884,0.1144,0.0404,-0.0337,-0.0944,-0.1012,-0.0741,0.0,0.0,0.0,0.0,0.0,0.0,-0.0067,-0.0134,-0.0134,-0.0134,-0.0134,-0.0134,-0.0134,-0.0134,-0.0269,-0.0472,-0.0472,-0.0539,-0.0742,-0.0944,0.0,0.0,0.0,0.0,0.0,0.0,0.0,0.0,0.0,0.0,0.0,0.0,0.0,0.0,0.0,0.0,0.0,0.0,0.0,0.0,0.0,0.0,0.0,0.0,0.0,0.0,0.0,0.0,0.0,0.1431,0.1163,0.0943,0.1295,0.1711,0.0,0.0,0.0,0.0,0.0,0.0,0.0,0.0,0.0,0.1239,0.0656,0.0369,0.038,0.0684,0.0996,0.132,0.2174,0.2544,0.2509,0.2963,0.3284,0.3396,0.3778,0.3906,0.3711,0.3696,0.377,0.3857,0.0,0.0,0.0,0.0,0.4429,0.4499,0.4499,0.4499,0.4488,0.4417,0.0,0.0,0.0,0.0,0.0,0.0,0.0,0.3442,0.3289,0.3235,0.3178,0.2877,0.2747,0.2464,0.1899,0.1338,0.0699,-0.0136,-0.0404,-0.0404,-0.0067,0.0135,0.0,0.0,0.0,0.1144,0.121,0.121,0.121,0.121,0.121,0.1143,0.0941,0.0874,0.074,0.0471,0.0067,-0.0269,-0.0539,-0.0877,-0.1078,0.0,0.0,0.0,0.0,0.0,0.0,0.0,0.0,0.0,0.0,0.0,0.0,0.0,0.0,0.0,0.0,0.0,0.0,0.0,0.0,0.0,0.0,0.0,0.0,0.0,0.0,0.0,0.0,0.0964,0.0556,0.0409,0.0627,0.0983,0.0,0.0,0.0,0.0,0.0,0.0,0.0368,0.1193,0.1727,0.1651,0.1359,0.1157,0.1199,0.16,0.1776,0.1807,0.2625,0.3089,0.3117,0.3512,0.3909,0.4148,0.4465,0.4547,0.4533,0.422,0.4182,0.433,0.4372,0.4434,0.4509,0.4509,0.4509,0.4509,0.4509,0.4509,0.4493,0.4406,0.4377,0.4362,0.428,0.0,0.0,0.0,0.0,0.352,0.3451,0.3399,0.3416,0.3266,0.3134,0.2914,0.2548,0.2186,0.1658,0.0902,0.0547,0.0409,0.0409,0.0609,0.0,0.1358,0.1631,0.1909,0.2196,0.2255,0.2245,0.2245,0.2231,0.2087,0.1749,0.1749,0.1614,0.1277,0.0672,0.0134,-0.0269,-0.0809,-0.1078,-0.1076,0.0,0.0,0.0,0.0,0.0,0.0,0.0,0.0,0.0,0.0,0.0,0.0,0.0,0.0,0.0,0.0,0.0,0.0,0.0,0.0,0.0,0.0,0.0,0.0,0.0,0.0,0.0,0.0,0.0,0.014,0.0072,0.0,0.0,0.0,0.0,0.0145,0.0074,0.0377,0.1209,0.2214,0.2754,0.275,0.2727,0.2677,0.2683,0.2768,0.2938,0.3194,0.3863,0.4028,0.3769,0.4353,0.4768,0.5015,0.502,0.4941,0.4914,0.4588,0.4378,0.4218,0.4264,0.4222,0.4003,0.4003,0.4003,0.4003,0.4003,0.4003,0.4003,0.3996,0.3996,0.3993,0.3989,0.3914,0.0,0.0,0.3627,0.3487,0.3491,0.3493,0.3495,0.3499,0.3352,0.3134,0.2987,0.2767,0.2475,0.1818,0.1638,0.1539,0.1539,0.0,0.1697,0.2162,0.224,0.2329,0.2386,0.2345,0.231,0.231,0.2256,0.2221,0.2154,0.2154,0.2085,0.1749,0.1344,0.0739,-0.0,-0.0741,-0.1078,-0.1076,-0.1076,0.0,0.0,0.0,0.0,0.0,0.0,0.0,0.0,0.0,0.0,0.0,0.0,0.0,0.0,0.0,0.0,0.0,0.0,0.0,0.0,0.0,0.0,0.0,0.0,0.0,0.0,0.0,0.0,-0.0,-0.0,0.0,0.0365,0.0364,0.0296,-0.0,-0.0,0.0708,0.2273,0.264,0.2911,0.3077,0.3014,0.3046,0.3262,0.3432,0.3603,0.3688,0.4203,0.4344,0.4197,0.4699,0.4951,0.4868,0.4957,0.4957,0.478,0.4661,0.4615,0.4532,0.4574,0.448,0.448,0.448,0.448,0.448,0.448,0.448,0.4468,0.4321,0.4211,0.4117,0.4031,0.3929,0.3891,0.3802,0.3745,0.3683,0.3742,0.3756,0.3773,0.383,0.3764,0.3683,0.3521,0.3321,0.3207,0.2817,0.2392,0.2082,0.2082,0.2137,0.2202,0.2512,0.2587,0.2668,0.2909,0.2892,0.2929,0.3021,0.2988,0.2881,0.276,0.269,0.2555,0.2087,0.1884,0.1344,0.0269,-0.0606,-0.1078,-0.1076,-0.1076,-0.1076,0.0,0.0,0.0,0.0,0.0,0.0,0.0,0.0,0.0,0.0,0.0,0.0,0.0,0.0,0.0,0.0,0.0,0.0,0.0,0.0,0.0,0.0,0.0,0.0,0.0,0.045,-0.0,-0.0,-0.0,-0.0,-0.0,-0.0,0.0155,0.0482,0.0805,0.1468,0.2608,0.2883,0.3159,0.3524,0.3547,0.3758,0.4078,0.4253,0.4324,0.4293,0.4646,0.4786,0.472,0.5062,0.5062,0.4894,0.4896,0.481,0.4723,0.4637,0.4552,0.4545,0.4561,0.4534,0.4453,0.4453,0.4453,0.4453,0.4453,0.4453,0.4441,0.4374,0.4266,0.4093,0.3997,0.3972,0.3936,0.3918,0.3854,0.3869,0.393,0.3946,0.3961,0.4022,0.4036,0.3952,0.3867,0.3739,0.3697,0.3533,0.3026,0.2582,0.2582,0.2636,0.2702,0.2873,0.2952,0.3036,0.336,0.3339,0.3372,0.3458,0.3426,0.3373,0.3143,0.3135,0.292,0.2423,0.2356,0.1749,0.0403,-0.0606,-0.1078,-0.1076,-0.1076,-0.1076,-0.1076,0.0,0.0,0.0,0.0,0.0,0.0,0.0,0.0,0.0,0.0,0.0,0.0,0.0,0.0,0.0,0.0,0.0,0.0,0.0,0.0,0.0,0.0,0.0,0.1031,0.0458,-0.0,-0.0,-0.0,-0.0,-0.0,0.0084,0.0421,0.135,0.2366,0.2704,0.2364,0.3019,0.3608,0.4125,0.4393,0.4715,0.5267,0.5267,0.5122,0.502,0.5292,0.5382,0.5382,0.5382,0.5382,0.5377,0.4933,0.4663,0.4661,0.4389,0.43,0.4281,0.4276,0.4208,0.4044,0.4044,0.4044,0.4044,0.4044,0.4044,0.4044,0.4044,0.4042,0.404,0.4042,0.4042,0.404,0.4042,0.4044,0.4044,0.4044,0.4044,0.4044,0.4044,0.4044,0.4044,0.4044,0.4042,0.404,0.404,0.3508,0.3037,0.3037,0.3051,0.3101,0.3406,0.3419,0.0,0.3761,0.3691,0.3559,0.3555,0.3481,0.3467,0.3375,0.3365,0.3186,0.2695,0.2693,0.2018,0.0538,-0.0539,-0.1078,-0.1076,-0.1077,-0.1077,-0.1077,0.0,0.0,0.0,0.0,0.0,0.0,0.0,0.0,0.0,0.0,0.0,0.0,0.0,0.0,0.0,0.0,0.0,0.0,0.0,0.0,0.0,0.0239,0.0321,0.0317,0.016,-0.0,-0.0,-0.0,0.0253,0.0927,0.1685,0.1963,0.1584,0.2472,0.3132,0.3223,0.4173,0.4661,0.4771,0.5172,0.5563,0.5847,0.5847,0.5831,0.58,0.5709,0.5621,0.5621,0.543,0.5203,0.4949,0.4858,0.4634,0.4389,0.43,0.43,0.4293,0.4333,0.4226,0.4226,0.4226,0.4226,0.4226,0.4226,0.4226,0.4226,0.4226,0.4185,0.4146,0.4208,0.4183,0.4148,0.421,0.4226,0.4226,0.4226,0.4226,0.4226,0.4226,0.4226,0.4226,0.4226,0.4177,0.4134,0.4134,0.3938,0.3761,0.3761,0.3741,0.3734,0.384,0.3844,0.3771,0.371,0.3637,0.3482,0.3034,0.2964,0.2816,0.2527,0.255,0.2446,0.2358,0.2588,0.2018,0.047,-0.0539,-0.1078,-0.1076,-0.1097,-0.1108,0.0,0.0,0.0,0.0,0.0,0.0,0.0,0.0,0.0,0.0,0.0,0.0,0.0,0.0,0.0,0.0,0.0,0.0,0.0,0.0,0.0,0.0,0.0492,0.0672,0.0678,0.0679,0.0682,0.0691,0.0703,0.0889,0.1423,0.2401,0.2784,0.2297,0.3223,0.3814,0.3903,0.4666,0.5161,0.5389,0.5676,0.587,0.5968,0.6064,0.5944,0.5803,0.5616,0.5521,0.5521,0.5232,0.5011,0.4864,0.4773,0.4535,0.4355,0.4355,0.4334,0.43,0.0,0.0,0.0,0.0,0.43,0.43,0.43,0.43,0.43,0.43,0.4265,0.4234,0.4283,0.4265,0.4236,0.4285,0.43,0.43,0.43,0.43,0.43,0.43,0.43,0.43,0.43,0.4261,0.4226,0.4226,0.4181,0.0,0.4146,0.4083,0.4036,0.4036,0.4036,0.395,0.3697,0.3571,0.335,0.3115,0.2912,0.2692,0.2373,0.2337,0.0,0.0,0.0,0.1323,-0.0209,-0.0836,0.0,0.0,0.0,-0.114,-0.114,-0.117,0.0,0.0,-0.1164,-0.1394,0.0,0.0,0.0,0.0,0.0,0.0,0.0,0.0,0.0,0.0,0.0,0.0,0.0,0.0,0.0,0.0,0.1444,0.1757,0.1885,0.1898,0.1811,0.1717,0.1773,0.1812,0.1812,0.2668,0.3242,0.3249,0.4204,0.4687,0.4409,0.4884,0.0,0.0,0.0,0.5892,0.5892,0.5892,0.5647,0.5363,0.5267,0.5267,0.5267,0.4979,0.4875,0.4866,0.4681,0.4534,0.4451,0.4451,0.4402,0.4328,0.4308,0.43,0.43,0.43,0.4306,0.4314,0.4314,0.0,0.0,0.433,0.4322,0.4314,0.4314,0.4308,0.43,0.43,0.43,0.4302,0.4312,0.4314,0.4316,0.4328,0.4322,0.4314,0.4314,0.4306,0.43,0.43,0.43,0.43,0.43,0.4169,0.4065,0.4065,0.4065,0.398,0.3725,0.3463,0.3265,0.3369,0.3019,0.0,0.222,0.2199,0.2173,0.1981,0.1168,0.0146,-0.1166,-0.1166,-0.1166,-0.1166,-0.117,-0.1172,-0.1172,-0.1202,-0.1217,-0.1216,-0.1189,-0.1415,0.0,0.0,0.0,0.0,0.0,0.0,0.0,0.0,0.0,0.0,0.0,0.0,0.0,0.0,0.0,0.2656,0.2718,0.2962,0.3485,0.3407,0.3071,0.2363,0.2658,0.2859,0.2859,0.3811,0.4219,0.3895,0.458,0.5003,0.4982,0.548,0.5787,0.5705,0.5909,0.5909,0.5705,0.5705,0.5596,0.5577,0.5282,0.0,0.5185,0.4982,0.4745,0.4778,0.4681,0.463,0.4547,0.4547,0.4536,0.4506,0.4357,0.43,0.43,0.43,0.4344,0.441,0.441,0.4457,0.452,0.452,0.4469,0.441,0.441,0.4357,0.0,0.43,0.43,0.4316,0.4389,0.441,0.4428,0.4502,0.4463,0.441,0.441,0.4351,0.43,0.43,0.43,0.43,0.43,0.4271,0.4249,0.4249,0.4249,0.4072,0.3632,0.3314,0.3016,0.2577,0.1829,0.1134,0.0562,0.0465,0.0453,0.0451,-0.0295,-0.0875,-0.1166,-0.1166,-0.1166,-0.1166,-0.119,-0.1203,-0.1203,-0.1234,-0.1249,-0.1248,-0.1243,-0.1476,0.0,0.0,0.0,0.0,0.0,0.0,0.0,0.0,0.0,0.0,0.0,0.2159,0.2434,0.0,0.3416,0.3309,0.359,0.3861,0.4188,0.4298,0.4049,0.3202,0.3415,0.3629,0.3629,0.4411,0.482,0.4468,0.4965,0.5286,0.5238,0.5691,0.5795,0.5636,0.579,0.5694,0.5438,0.5438,0.5336,0.5236,0.5035,0.5037,0.5037,0.4834,0.4812,0.4771,0.4771,0.4722,0.4636,0.4591,0.4573,0.4563,0.4471,0.4436,0.4436,0.4436,0.4465,0.4504,0.4504,0.4534,0.4573,0.4573,0.4542,0.4504,0.4504,0.4473,0.4436,0.4436,0.4436,0.4447,0.4491,0.4504,0.4516,0.4561,0.4538,0.4491,0.4444,0.44,0.4353,0.4308,0.43,0.43,0.43,0.43,0.43,0.43,0.43,0.4121,0.3676,0.3285,0.2812,0.2262,0.1194,0.0167,-0.0571,-0.063,-0.0617,-0.0617,-0.0991,-0.1288,-0.1288,-0.1288,-0.1288,-0.1288,-0.1227,-0.1234,-0.1234,-0.125,-0.1335,-0.1335,-0.1335,-0.1493,0.0,0.0,0.0,0.0,0.0,0.0,0.0,0.0,0.2984,0.2968,0.3077,0.3189,0.3594,0.4041,0.4229,0.3941,0.4348,0.4638,0.4557,0.4802,0.461,0.4053,0.4098,0.4133,0.4034,0.4738,0.514,0.4935,0.5336,0.5536,0.524,0.5637,0.5746,0.5541,0.5639,0.5542,0.514,0.5159,0.5065,0.4861,0.4879,0.4879,0.4861,0.4861,0.4851,0.4834,0.4834,0.4796,0.4728,0.4655,0.4624,0.4624,0.4624,0.4624,0.462,0.4585,0.4583,0.4598,0.4598,0.461,0.4624,0.4624,0.4612,0.4598,0.4598,0.4585,0.4573,0.4573,0.4573,0.4577,0.4594,0.4598,0.4604,0.462,0.4612,0.4579,0.4504,0.4473,0.4434,0.4342,0.4324,0.4324,0.4324,0.4324,0.432,0.4302,0.43,0.4121,0.3676,0.3227,0.2761,0.2278,0.0872,-0.0342,-0.1226,-0.1275,-0.1335,-0.1335,-0.1335,-0.1335,-0.1335,-0.1335,-0.1335,-0.1335,-0.1335,-0.1335,-0.1335,-0.1335,-0.1335,-0.1335,-0.1335,-0.1415,0.3032,0.3029,0.3047,0.3202,0.3227,0.327,0.0,0.0,0.3637,0.3717,0.3972,0.4118,0.4219,0.4639,0.5079,0.5077,0.5307,0.5452,0.5344,0.5187,0.5035,0.4722,0.4728,0.4636,0.4336,0.4839,0.514,0.514,0.5438,0.5634,0.5536,0.5736,0.5646,0.5242,0.5335,0.5237,0.4836,0.4916,0.4957,0.4957,0.5039,0.5035,0.4955,0.4955,0.4912,0.4834,0.4834,0.4828,0.482,0.481,0.4806,0.4806,0.4806,0.4806,0.4785,0.463,0.4624,0.4694,0.4694,0.4743,0.4806,0.4806,0.4755,0.4694,0.4694,0.4636,0.4573,0.4573,0.4573,0.4591,0.4671,0.4694,0.4712,0.4787,0.4747,0.4692,0.4679,0.4614,0.453,0.4436,0.442,0.442,0.442,0.442,0.4391,0.4312,0.43,0.4121,0.3676,0.3227,0.2686,0.2236,0.0879,-0.0342,-0.1226,-0.1275,-0.1335,-0.1335,-0.1335,-0.1335,-0.1335,-0.1335,-0.1335,-0.1335,-0.1335,-0.1335,-0.1335,-0.1335,-0.1335,-0.1335,-0.1335,-0.1415,0.3759,0.3839,0.4021,0.4114,0.418,0.427,0.4543,0.4587,0.4615,0.4712,0.4858,0.5016,0.5129,0.5417,0.5732,0.5899,0.6077,0.6154,0.5896,0.5708,0.5541,0.5039,0.5037,0.5039,0.4839,0.5238,0.5338,0.524,0.5338,0.5338,0.5135,0.5281,0.5322,0.5122,0.5267,0.5193,0.4994,0.503,0.5051,0.5051,0.509,0.5059,0.4971,0.4971,0.492,0.4834,0.4834,0.4834,0.4834,0.4834,0.4834,0.4834,0.4834,0.4834,0.4826,0.4751,0.4749,0.4781,0.4781,0.4806,0.4834,0.4834,0.481,0.4781,0.4781,0.4755,0.4724,0.4724,0.4724,0.4734,0.4771,0.4781,0.479,0.4826,0.4808,0.4769,0.4718,0.4677,0.4624,0.4532,0.4516,0.4516,0.4516,0.4516,0.4502,0.4465,0.432,0.3997,0.3413,0.305,0.2422,0.1076,-0.0088,-0.0945,-0.1249,-0.1301,-0.1276,-0.1337,-0.1335,-0.1335,-0.1335,-0.1335,-0.1335,-0.1335,-0.1335,-0.1335,-0.1335,-0.1275,-0.1275,-0.1336,-0.1275,-0.1354,0.4304,0.4451,0.462,0.4753,0.4868,0.5001,0.521,0.5258,0.5383,0.5489,0.5607,0.5654,0.5807,0.6065,0.6243,0.6404,0.6469,0.6416,0.6107,0.5911,0.5641,0.5138,0.514,0.514,0.514,0.5238,0.5336,0.514,0.5164,0.5065,0.4836,0.5032,0.5092,0.4975,0.5149,0.52,0.5108,0.5132,0.5145,0.5145,0.5171,0.5122,0.5008,0.4957,0.4898,0.4834,0.4834,0.4834,0.4834,0.4834,0.4834,0.4834,0.4834,0.4834,0.4834,0.4834,0.4834,0.4834,0.4834,0.4834,0.4834,0.4834,0.4834,0.4834,0.4834,0.4834,0.4834,0.4834,0.4834,0.4834,0.4834,0.4834,0.4834,0.4834,0.4834,0.4818,0.4757,0.4743,0.4716,0.4626,0.461,0.461,0.461,0.461,0.461,0.461,0.4267,0.3816,0.3356,0.27,0.1615,-0.0,-0.0876,-0.1372,-0.1265,-0.1312,-0.1281,-0.1337,-0.1335,-0.1335,-0.1335,-0.1335,-0.1335,-0.1335,-0.1266,-0.127,-0.127,-0.13,-0.1303,-0.1283,-0.1296,-0.1291,0.448,0.4613,0.4746,0.4949,0.5079,0.5122,0.5429,0.5479,0.5606,0.5909,0.6032,0.6032,0.6337,0.6532,0.6616,0.6624,0.6419,0.611,0.5899,0.5505,0.514,0.4834,0.4834,0.4834,0.4834,0.4834,0.4834,0.4834,0.4916,0.4928,0.4841,0.5092,0.5157,0.4977,0.5149,0.52,0.5108,0.5196,0.5241,0.5241,0.5331,0.5277,0.5098,0.492,0.4839,0.4834,0.4834,0.4834,0.4834,0.4834,0.4834,0.4834,0.4834,0.4834,0.4834,0.4834,0.4834,0.4834,0.4834,0.4834,0.4834,0.4834,0.4834,0.4834,0.4834,0.4834,0.4834,0.4834,0.4834,0.4834,0.4834,0.4834,0.4834,0.4834,0.4834,0.4832,0.483,0.483,0.4806,0.4722,0.4704,0.4704,0.4704,0.4704,0.4704,0.4704,0.421,0.3764,0.3436,0.1725,0.0269,-0.0448,-0.0951,-0.1265,-0.1263,-0.1293,-0.1337,-0.1335,-0.1335,-0.1335,-0.1335,-0.1335,-0.1335,-0.1335,-0.1286,-0.1301,-0.1301,-0.1332,-0.1262,-0.126,-0.1316,-0.1302,0.4487,0.472,0.4975,0.5162,0.5309,0.5443,0.5748,0.5744,0.5703,0.5838,0.5737,0.5758,0.6126,0.6108,0.6208,0.6385,0.6196,0.5997,0.5691,0.5358,0.514,0.4834,0.4834,0.4834,0.4834,0.4834,0.4834,0.4834,0.4863,0.4894,0.4924,0.5071,0.5153,0.5153,0.5271,0.532,0.529,0.532,0.5335,0.5335,0.5243,0.5167,0.5104,0.4981,0.4959,0.5016,0.5016,0.4981,0.4924,0.4924,0.489,0.4834,0.4834,0.4834,0.4834,0.4834,0.4834,0.4834,0.4834,0.4834,0.4834,0.4834,0.4834,0.4834,0.4834,0.4834,0.4834,0.4834,0.4834,0.4834,0.4834,0.4834,0.4834,0.4834,0.4834,0.4834,0.4834,0.4834,0.4826,0.4798,0.4792,0.4792,0.4792,0.4595,0.4279,0.3734,0.3645,0.3192,0.1946,0.0818,-0.0179,-0.0987,-0.1241,-0.139,-0.1267,-0.1329,-0.13,-0.1338,-0.1276,-0.1287,-0.1287,-0.1307,-0.1318,-0.1318,-0.1327,-0.1333,-0.1333,-0.1361,-0.1366,-0.1264,-0.1356,-0.1339,0.4347,0.4599,0.4869,0.5072,0.5322,0.5431,0.5554,0.5534,0.5569,0.5498,0.545,0.5439,0.5662,0.5802,0.5873,0.5942,0.593,0.5683,0.5483,0.5216,0.5037,0.4834,0.4834,0.4834,0.4834,0.4834,0.4834,0.4834,0.4865,0.491,0.4969,0.509,0.5184,0.5243,0.5335,0.5382,0.5382,0.5382,0.5365,0.5331,0.5147,0.5077,0.5104,0.5014,0.5022,0.5106,0.5073,0.5026,0.4969,0.4937,0.4888,0.4834,0.4834,0.4834,0.4834,0.4834,0.4834,0.4834,0.4834,0.4834,0.4834,0.4834,0.4834,0.4834,0.4834,0.4834,0.4834,0.4834,0.4834,0.4834,0.4834,0.4834,0.4834,0.4834,0.4834,0.4834,0.4834,0.4834,0.4734,0.4636,0.4636,0.4636,0.4433,0.4236,0.3819,0.2879,0.2797,0.2349,0.1019,0.0091,-0.0628,-0.1345,-0.1514,-0.1492,-0.1366,-0.1354,-0.1331,-0.1292,-0.1308,-0.1318,-0.1318,-0.1337,-0.1263,-0.1263,-0.1358,-0.1363,-0.1363,-0.1392,-0.1397,-0.138,-0.1386,-0.1365,0.4112,0.4314,0.4512,0.4775,0.4908,0.4973,0.4977,0.4971,0.5016,0.5033,0.5006,0.4996,0.0,0.0,0.5425,0.5245,0.5329,0.5368,0.5079,0.4868,0.4828,0.4828,0.483,0.4834,0.4834,0.4834,0.4834,0.4834,0.4916,0.4969,0.4977,0.5143,0.5241,0.5251,0.5337,0.538,0.5373,0.5369,0.5322,0.5228,0.5055,0.5016,0.5098,0.5012,0.5022,0.5102,0.5016,0.4975,0.4965,0.4877,0.4839,0.4834,0.4834,0.4834,0.4834,0.4834,0.4834,0.4834,0.4834,0.4834,0.4834,0.4834,0.4834,0.4834,0.4834,0.4834,0.4834,0.4834,0.4834,0.4834,0.4834,0.4834,0.4834,0.4734,0.4734,0.4734,0.4734,0.4734,0.4634,0.4438,0.4338,0.4236,0.3629,0.3633,0.323,0.2118,0.1687,0.1258,0.0559,-0.0455,-0.1168,-0.1438,-0.1675,-0.1653,-0.1477,-0.1365,-0.1265,-0.1263,-0.1265,-0.1266,-0.1266,-0.1267,-0.1268,-0.1268,-0.1379,-0.1393,-0.1393,-0.1421,-0.1436,-0.1435,-0.1406,-0.1376,0.4295,0.45,0.4687,0.4885,0.4955,0.499,0.5057,0.4967,0.4839,0.4828,0.462,0.4521,0.4691,0.4699,0.476,0.4927,0.4961,0.489,0.4871,0.4835,0.4741,0.4741,0.0,0.4834,0.4834,0.4834,0.4834,0.4834,0.4857,0.4928,0.5065,0.5118,0.5206,0.5343,0.5369,0.5349,0.5279,0.5212,0.5132,0.5041,0.4994,0.4983,0.5006,0.4981,0.5022,0.5106,0.5084,0.5035,0.4969,0.4947,0.4898,0.4834,0.4834,0.4834,0.4834,0.4834,0.4834,0.4834,0.4834,0.4834,0.4834,0.4834,0.4834,0.4834,0.4834,0.4834,0.4834,0.4834,0.4834,0.4834,0.4834,0.4834,0.4734,0.4537,0.4537,0.4437,0.4234,0.4234,0.4234,0.4135,0.4236,0.3934,0.2622,0.232,0.1815,0.0706,0.0199,-0.0098,-0.0387,-0.1219,-0.1837,-0.202,-0.1893,-0.1769,-0.1654,-0.1469,-0.137,-0.1265,-0.1367,-0.1379,-0.1379,-0.1401,-0.1413,-0.1413,-0.142,-0.1424,-0.1424,-0.1431,-0.1436,-0.1435,-0.1427,-0.1397,0.4567,0.4664,0.4751,0.4928,0.4941,0.4924,0.4977,0.4849,0.4683,0.4555,0.4344,0.4157,0.4233,0.429,0.4384,0.0,0.0,0.0,0.4614,0.4689,0.4708,0.0,0.4783,0.0,0.4834,0.4834,0.4834,0.4834,0.4834,0.4914,0.5098,0.5108,0.5192,0.5375,0.5343,0.5277,0.5186,0.5094,0.5022,0.4971,0.493,0.4932,0.4971,0.4971,0.5022,0.5106,0.5065,0.5018,0.4969,0.4928,0.4881,0.4834,0.4834,0.4834,0.4834,0.4834,0.4834,0.4834,0.4834,0.4834,0.4834,0.4834,0.4834,0.4834,0.4834,0.4834,0.4834,0.4834,0.4834,0.4734,0.4636,0.4636,0.4535,0.4336,0.4236,0.4135,0.4033,0.4033,0.3932,0.3732,0.3632,0.3229,0.1917,0.1211,0.0605,-0.0202,-0.07,-0.1093,-0.1292,-0.2003,-0.2407,-0.2222,-0.2091,-0.1875,-0.1764,-0.1498,-0.1403,-0.1387,-0.1401,-0.141,-0.141,-0.1426,-0.1436,-0.1436,-0.1436,-0.1436,-0.1436,-0.1436,-0.1436,-0.1436,-0.1436,-0.141,0.4887,0.4856,0.4828,0.4997,0.4968,0.4796,0.4785,0.4655,0.4483,0.4302,0.4132,0.3989,0.3897,0.4108,0.4248,0.4016,0.0,0.4663,0.44,0.4557,0.4677,0.4689,0.4767,0.4822,0.4832,0.4834,0.4834,0.4834,0.4834,0.491,0.5081,0.5102,0.5188,0.5359,0.5273,0.5181,0.5092,0.5,0.4953,0.4953,0.4873,0.4877,0.4953,0.4953,0.4998,0.5067,0.4988,0.4953,0.4947,0.4867,0.4834,0.4834,0.4834,0.4834,0.4834,0.4834,0.4834,0.4834,0.4834,0.4834,0.4834,0.4834,0.4834,0.4834,0.4834,0.4734,0.4734,0.4734,0.4734,0.4636,0.4437,0.4338,0.4236,0.4034,0.3932,0.3932,0.3831,0.3831,0.363,0.313,0.2826,0.2322,0.1313,0.0505,-0.0202,-0.0808,-0.1313,-0.1718,-0.2021,-0.2505,-0.2697,-0.2231,-0.2184,-0.2064,-0.1794,-0.1525,-0.1436,-0.1436,-0.1436,-0.1436,-0.1436,-0.1436,-0.1436,-0.1436,-0.1436,-0.1436,-0.1436,-0.1436,-0.1436,-0.1436,-0.1436,-0.1418,0.5155,0.5235,0.5195,0.5412,0.5169,0.4879,0.4806,0.4608,0.0,0.0,0.3997,0.3895,0.3803,0.3878,0.3914,0.3912,0.4026,0.4132,0.4208,0.4371,0.4512,0.0,0.4675,0.4757,0.4828,0.4834,0.4834,0.4834,0.4834,0.4881,0.499,0.5067,0.5157,0.5265,0.5179,0.5088,0.4996,0.4904,0.4859,0.4857,0.4843,0.4843,0.4859,0.4859,0.4867,0.4881,0.4865,0.4859,0.4857,0.4841,0.4834,0.4834,0.4834,0.4834,0.4834,0.4834,0.4834,0.4834,0.4834,0.4834,0.4834,0.4834,0.4834,0.4834,0.4834,0.4636,0.4437,0.4437,0.4336,0.4133,0.4034,0.4033,0.4034,0.3736,0.3533,0.3229,0.3027,0.2825,0.2623,0.2223,0.2223,0.192,0.0808,0.0303,-0.0303,-0.1314,-0.1516,-0.1818,-0.222,-0.2143,-0.2183,-0.2278,-0.2019,-0.1884,-0.1794,-0.1525,-0.1436,-0.1436,-0.1436,-0.1436,-0.1436,-0.1436,-0.1436,-0.1436,-0.1436,-0.1436,-0.1436,-0.1436,-0.1436,-0.1436,-0.1436,-0.1418,0.5391,0.538,0.5341,0.5394,0.5188,0.4874,0.474,0.0,0.0,0.0,0.3891,0.3816,0.3771,0.3801,0.0,0.3891,0.3975,0.4067,0.4161,0.4283,0.4398,0.4489,0.4624,0.4724,0.4765,0.4808,0.4834,0.4834,0.4834,0.4875,0.4967,0.5059,0.5106,0.5102,0.5059,0.4994,0.4902,0.4857,0.4834,0.4834,0.4834,0.4834,0.4834,0.4834,0.4834,0.4834,0.4834,0.4834,0.4834,0.4834,0.4834,0.4834,0.4834,0.4834,0.4834,0.4834,0.4834,0.4834,0.4834,0.4834,0.4734,0.4636,0.4736,0.4734,0.4636,0.4537,0.4338,0.4236,0.4135,0.3934,0.3833,0.3732,0.3531,0.323,0.3004,0.2784,0.2584,0.2485,0.2287,0.2091,0.2108,0.192,0.0808,0.0404,-0.0,-0.0707,-0.0606,-0.0606,-0.0908,-0.0689,-0.0963,-0.2196,-0.2024,-0.1884,-0.1884,-0.1615,-0.1436,-0.1436,-0.1436,-0.1436,-0.1436,-0.1436,-0.1436,-0.1436,-0.1436,-0.1436,-0.1436,-0.1436,-0.1436,-0.1436,-0.1436,-0.1427,0.5473,0.5478,0.5356,0.5356,0.5208,0.4965,0.475,0.4475,0.0,0.3955,0.3893,0.3763,0.3763,0.3822,0.3871,0.0,0.3946,0.4032,0.4104,0.4206,0.4306,0.4395,0.4567,0.0,0.4706,0.4785,0.4834,0.4834,0.4834,0.4875,0.4967,0.5041,0.5047,0.4973,0.4971,0.4928,0.4836,0.4834,0.4834,0.4834,0.4834,0.4834,0.4834,0.4834,0.4834,0.4834,0.4834,0.4834,0.4834,0.4834,0.4834,0.4834,0.4834,0.4822,0.4808,0.4808,0.4794,0.4777,0.4777,0.4692,0.4708,0.441,0.4522,0.4636,0.4437,0.4237,0.4137,0.3934,0.3831,0.363,0.3432,0.323,0.2924,0.2711,0.248,0.2253,0.2243,0.2241,0.2145,0.1952,0.1976,0.18,0.1104,0.0803,0.0603,0.0404,0.0606,0.0909,0.101,0.1191,0.078,-0.0961,-0.1296,-0.1532,-0.1616,-0.1525,-0.1436,-0.1436,-0.1436,-0.1436,-0.1436,-0.1436,-0.1436,-0.1436,-0.1436,-0.1436,-0.1436,-0.1436,-0.1436,-0.1436,-0.1436,-0.1436,0.5628,0.5668,0.5676,0.5676,0.5398,0.5162,0.4964,0.0,0.4201,0.411,0.3927,0.3763,0.3763,0.3771,0.3775,0.3775,0.0,0.3916,0.3924,0.4075,0.4216,0.4302,0.0,0.0,0.47,0.4785,0.4834,0.4834,0.4834,0.4875,0.4967,0.4979,0.4979,0.4971,0.4971,0.4928,0.4836,0.4834,0.4834,0.4834,0.4834,0.4834,0.4834,0.4834,0.4834,0.4834,0.4834,0.4834,0.4834,0.4834,0.4834,0.4834,0.4834,0.4787,0.472,0.472,0.4667,0.4596,0.4596,0.4456,0.4324,0.4326,0.4377,0.4336,0.4135,0.3835,0.3635,0.3331,0.3128,0.2825,0.2623,0.2522,0.2411,0.2175,0.2065,0.1954,0.1632,0.1626,0.153,0.153,0.1532,0.1543,0.157,0.1477,0.1486,0.1411,0.1921,0.2427,0.2832,0.2984,0.2947,0.2746,0.104,-0.0275,-0.0808,-0.1166,-0.1436,-0.1436,-0.1436,-0.1436,-0.1436,-0.1436,-0.1436,-0.1436,-0.1436,-0.1436,-0.1436,-0.1436,-0.1436,-0.1436,-0.1436,-0.1436,0.5551,0.557,0.5532,0.5605,0.5389,0.512,0.4883,0.0,0.4346,0.4229,0.3991,0.3853,0.3988,0.3921,0.3744,0.0,0.0,0.0,0.381,0.3879,0.4001,0.42,0.4332,0.4444,0.4534,0.4673,0.4779,0.483,0.4834,0.4851,0.4888,0.489,0.489,0.489,0.489,0.4871,0.4834,0.4834,0.4834,0.4834,0.4834,0.4834,0.4834,0.4834,0.4834,0.4834,0.4834,0.4834,0.483,0.4779,0.4759,0.4753,0.4698,0.4657,0.4626,0.4432,0.4411,0.4381,0.4193,0.412,0.405,0.3857,0.3712,0.3679,0.3721,0.3533,0.3331,0.3029,0.2725,0.2522,0.2422,0.2302,0.2082,0.187,0.1737,0.1703,0.1501,0.1499,0.1499,0.1499,0.1513,0.153,0.1542,0.1544,0.1554,0.1585,0.2085,0.2493,0.2723,0.3011,0.3183,0.3245,0.1706,0.0553,0.0274,-0.0452,-0.0987,-0.1346,-0.1436,-0.1436,-0.1436,-0.1436,-0.1436,-0.1436,-0.1436,-0.1436,-0.1436,-0.1436,-0.1436,-0.1436,-0.1436,-0.1436,0.5325,0.5382,0.5382,0.5431,0.5287,0.5105,0.0,0.0,0.4407,0.4264,0.4061,0.3942,0.3984,0.3859,0.3693,0.0,0.0,0.362,0.371,0.3746,0.3844,0.4065,0.4214,0.4324,0.4389,0.4585,0.4743,0.4828,0.4834,0.4834,0.4834,0.4834,0.4834,0.4834,0.4834,0.4834,0.4834,0.4834,0.4834,0.4834,0.4834,0.4834,0.4834,0.4834,0.4834,0.4834,0.4834,0.482,0.4792,0.4732,0.4694,0.4661,0.4598,0.4555,0.4532,0.4248,0.4137,0.4118,0.384,0.3762,0.3686,0.3402,0.316,0.3027,0.3185,0.3116,0.2927,0.2624,0.2412,0.2202,0.2202,0.1975,0.1848,0.1643,0.1512,0.1478,0.1469,0.1468,0.1468,0.1468,0.1485,0.1502,0.1511,0.1513,0.1526,0.1664,0.206,0.2468,0.2516,0.2927,0.3214,0.3172,0.2198,0.1489,0.1202,0.0454,-0.0269,-0.0807,-0.0987,-0.0987,-0.1166,-0.1166,-0.1256,-0.1436,-0.1436,-0.1436,-0.1436,-0.1436,-0.1345,-0.1166,-0.1076,-0.1076,0.5021,0.5192,0.5341,0.5219,0.5102,0.4985,0.0,0.0,0.43,0.43,0.4087,0.39,0.3803,0.3715,0.3599,0.3516,0.3501,0.0,0.3616,0.3705,0.3797,0.0,0.4136,0.43,0.43,0.4549,0.4743,0.4828,0.4834,0.4834,0.4834,0.4834,0.4834,0.4834,0.4834,0.4834,0.4834,0.4834,0.4834,0.4834,0.4834,0.4834,0.4834,0.4834,0.4834,0.4834,0.4834,0.4787,0.471,0.4708,0.4655,0.4573,0.4573,0.4516,0.4344,0.4158,0.4015,0.386,0.368,0.3456,0.3238,0.3052,0.2905,0.2678,0.2438,0.2386,0.2321,0.2122,0.1795,0.1572,0.1572,0.1549,0.1519,0.1489,0.1481,0.1472,0.1442,0.1436,0.1436,0.1436,0.1436,0.1446,0.1476,0.1481,0.1595,0.1953,0.2257,0.2468,0.2718,0.3029,0.323,0.323,0.2925,0.2455,0.1943,0.1361,0.0807,0.0448,0.009,-0.0179,-0.0538,-0.0538,-0.0807,-0.1346,-0.1436,-0.1436,-0.1436,-0.1436,-0.1076,-0.0538,-0.0179,-0.0179,0.4847,0.4885,0.489,0.4934,0.4855,0.4735,0.4613,0.0,0.4458,0.4458,0.4136,0.3956,0.3996,0.3739,0.3509,0.3422,0.3407,0.0,0.0,0.0,0.0,0.3961,0.4173,0.4322,0.4385,0.4471,0.4585,0.4736,0.4749,0.4773,0.483,0.4834,0.4834,0.4834,0.4834,0.4834,0.4834,0.4834,0.4834,0.4834,0.4834,0.4834,0.4834,0.4834,0.4834,0.483,0.4773,0.4734,0.47,0.4573,0.4504,0.4473,0.4231,0.4099,0.3985,0.3621,0.3426,0.3408,0.296,0.2794,0.2718,0.2537,0.2297,0.2057,0.1977,0.2028,0.2081,0.1784,0.1677,0.1566,0.1546,0.1518,0.1493,0.1483,0.1465,0.1447,0.1438,0.1436,0.1436,0.1436,0.1436,0.1438,0.1448,0.145,0.1562,0.1914,0.2118,0.2434,0.2714,0.3029,0.323,0.3433,0.3219,0.2851,0.2643,0.2471,0.2243,0.2154,0.1705,0.1436,0.1166,0.0718,0.0269,-0.0179,-0.0359,-0.0448,-0.0448,-0.0269,0.009,0.0538,0.0807,0.0897,0.0,0.4675,0.4742,0.4746,0.4673,0.0,0.0,0.4436,0.4406,0.4406,0.4166,0.3925,0.3951,0.3708,0.3418,0.3326,0.3342,0.3395,0.0,0.0,0.3722,0.4048,0.4185,0.43,0.4424,0.4434,0.4498,0.4647,0.4657,0.4696,0.4781,0.4787,0.4802,0.4832,0.4834,0.4834,0.4834,0.4834,0.4834,0.4834,0.4834,0.4834,0.4834,0.4834,0.4816,0.4783,0.4732,0.4669,0.0,0.4483,0.4416,0.4286,0.4057,0.3859,0.3857,0.3406,0.3227,0.3138,0.2693,0.2513,0.2424,0.2154,0.1912,0.1666,0.1666,0.1705,0.1749,0.1651,0.1546,0.1533,0.1514,0.1486,0.1463,0.1463,0.1449,0.1436,0.1436,0.1436,0.1436,0.1436,0.1436,0.1436,0.1436,0.1436,0.1547,0.1896,0.2099,0.2419,0.2711,0.3029,0.323,0.3433,0.322,0.3049,0.3049,0.294,0.2872,0.2872,0.2602,0.2422,0.2242,0.1883,0.1613,0.1344,0.1165,0.1075,0.1075,0.1344,0.1613,0.1882,0.1973,0.1973,0.0,0.4613,0.4698,0.4698,0.4613,0.0,0.0,0.0,0.0,0.43,0.4112,0.3875,0.3842,0.3569,0.3328,0.3248,0.3307,0.3397,0.3495,0.3667,0.3879,0.4142,0.4179,0.4246,0.441,0.4426,0.4463,0.4555,0.4563,0.4602,0.4694,0.47,0.4734,0.4714,0.4722,0.4728,0.4834,0.4834,0.4834,0.4834,0.4828,0.4824,0.4824,0.4818,0.4773,0.4698,0.4692,0.4594,0.4434,0.4428,0.4375,0.43,0.3946,0.3859,0.3857,0.3318,0.3138,0.3048,0.2603,0.2424,0.2334,0.1885,0.1636,0.1478,0.1478,0.15,0.1525,0.1523,0.1502,0.148,0.1478,0.1457,0.1436,0.1436,0.1436,0.1436,0.1436,0.1436,0.1436,0.1436,0.1436,0.1436,0.1436,0.1436,0.1547,0.1896,0.2099,0.2419,0.2711,0.3027,0.3128,0.3123,0.3119,0.3046,0.3137,0.3026,0.2957,0.2957,0.2957,0.2957,0.2957,0.2957,0.2957,0.2957,0.2867,0.2867,0.2957,0.3136,0.3317,0.3317,0.3047,0.2957,0.4333,0.0,0.4384,0.4384,0.436,0.4341,0.0,0.0,0.0,0.0,0.0,0.0,0.383,0.3511,0.3275,0.3324,0.335,0.3418,0.3575,0.3814,0.4022,0.4157,0.423,0.4285,0.4326,0.4332,0.4369,0.4461,0.4467,0.4508,0.46,0.4606,0.4516,0.4342,0.4405,0.4569,0.4832,0.4834,0.4834,0.4832,0.4769,0.4738,0.4736,0.4665,0.4622,0.46,0.453,0.4475,0.443,0.4359,0.4318,0.43,0.3855,0.3678,0.3588,0.2872,0.2693,0.2602,0.2154,0.1974,0.1885,0.1615,0.144,0.1446,0.1446,0.1483,0.1521,0.1498,0.1486,0.1476,0.1452,0.144,0.1436,0.1436,0.1436,0.1436,0.1436,0.1436,0.1436,0.1436,0.1436,0.1436,0.1436,0.1436,0.1547,0.1896,0.1908,0.2128,0.241,0.2522,0.2609,0.277,0.2802,0.284,0.3263,0.3367,0.3408,0.3408,0.3587,0.3678,0.3678,0.3317,0.3136,0.3136,0.2957,0.2957,0.3136,0.3227,0.3317,0.3497,0.3497,0.3408,0.43,0.43,0.43,0.43,0.43,0.43,0.0,0.0,0.0,0.0,0.0,0.0,0.0,0.0,0.0,0.3354,0.3432,0.356,0.3783,0.3979,0.4132,0.422,0.4271,0.43,0.43,0.43,0.432,0.4369,0.4373,0.4412,0.4506,0.451,0.4434,0.4188,0.4233,0.4294,0.4375,0.4414,0.4414,0.4375,0.4334,0.4296,0.4355,0.4309,0.4267,0.4227,0.4088,0.4045,0.4006,0.3961,0.4034,0.4034,0.3587,0.3497,0.3497,0.2782,0.2513,0.2424,0.1974,0.1705,0.1615,0.1436,0.1436,0.1436,0.1436,0.1458,0.1481,0.1465,0.1459,0.1456,0.144,0.1436,0.1436,0.1436,0.1436,0.1436,0.1436,0.1436,0.1436,0.1436,0.1436,0.1436,0.1436,0.1436,0.1451,0.1685,0.1788,0.1998,0.2155,0.2263,0.2449,0.2713,0.2664,0.2809,0.3239,0.3448,0.3676,0.3767,0.3944,0.4123,0.4123,0.3853,0.3673,0.3673,0.3583,0.3583,0.3673,0.3673,0.3764,0.3942,0.3942,0.3942,0.43,0.43,0.43,0.43,0.43,0.43,0.0,0.0,0.0,0.0,0.0,0.0,0.0,0.3449,0.0,0.0,0.3552,0.3759,0.402,0.4124,0.4204,0.4287,0.43,0.4304,0.4318,0.4308,0.4306,0.4318,0.4308,0.4332,0.441,0.4322,0.4266,0.415,0.4069,0.4012,0.3788,0.3862,0.3968,0.3903,0.3891,0.3856,0.3892,0.388,0.3838,0.3684,0.3684,0.3646,0.3587,0.3587,0.3678,0.3767,0.3406,0.3317,0.3408,0.2693,0.2424,0.2424,0.1885,0.1615,0.1436,0.1436,0.1436,0.1436,0.1436,0.1436,0.1436,0.1436,0.1436,0.1436,0.1436,0.1436,0.1436,0.1436,0.1436,0.1436,0.1436,0.1436,0.1436,0.1436,0.1436,0.1436,0.1436,0.1436,0.1446,0.1476,0.1666,0.1865,0.1808,0.2004,0.2287,0.2562,0.2618,0.2773,0.3315,0.3532,0.3678,0.3946,0.421,0.43,0.43,0.43,0.43,0.43,0.43,0.43,0.43,0.43,0.43,0.43,0.43,0.43,0.43,0.43,0.43,0.43,0.43,0.4233,0.0,0.0,0.0,0.0,0.0,0.0,0.0,0.3489,0.3411,0.0,0.3738,0.3926,0.4124,0.4165,0.4204,0.4287,0.43,0.433,0.4406,0.4344,0.4332,0.4408,0.4342,0.4306,0.4318,0.4143,0.3881,0.3711,0.3498,0.3348,0.3171,0.362,0.394,0.3926,0.3765,0.3728,0.3716,0.3651,0.3616,0.3605,0.3605,0.3597,0.3587,0.3587,0.3587,0.3587,0.3317,0.3227,0.3138,0.2512,0.2243,0.2154,0.1615,0.1436,0.1436,0.1436,0.1436,0.1436,0.1436,0.1436,0.1436,0.1436,0.1436,0.1436,0.1436,0.1436,0.1436,0.1436,0.1436,0.1436,0.1436,0.1436,0.1436,0.1436,0.1436,0.1436,0.1436,0.1436,0.1446,0.1476,0.1573,0.1585,0.1522,0.1622,0.18,0.2236,0.2226,0.2573,0.352,0.3593,0.3765,0.421,0.43,0.43,0.43,0.43,0.43,0.43,0.43,0.43,0.43,0.43,0.43,0.43,0.43,0.43,0.43,0.43,0.43,0.43,0.4233,0.4097,0.4028,0.0,0.0,0.0,0.0,0.0,0.0,0.0,0.3511,0.3738,0.3885,0.402,0.4155,0.4212,0.4257,0.4295,0.43,0.4316,0.4357,0.4324,0.4316,0.4359,0.4322,0.43,0.43,0.4034,0.3767,0.3587,0.3348,0.3184,0.2913,0.3033,0.3158,0.3192,0.2976,0.2852,0.2912,0.2884,0.2871,0.2871,0.2871,0.2871,0.2871,0.296,0.305,0.3227,0.305,0.3048,0.2957,0.2242,0.1885,0.1705,0.1525,0.1436,0.1436,0.1436,0.1436,0.1436,0.1436,0.1436,0.1436,0.1436,0.1436,0.1436,0.1436,0.1436,0.1436,0.1436,0.1436,0.1436,0.1436,0.1436,0.1436,0.1436,0.1436,0.1436,0.1436,0.1436,0.144,0.1454,0.1456,0.1461,0.1475,0.1477,0.1656,0.2187,0.2185,0.2539,0.3501,0.3587,0.3765,0.4297,0.43,0.43,0.43,0.43,0.43,0.43,0.43,0.43,0.43,0.43,0.43,0.43,0.43,0.43,0.43,0.43,0.43,0.4233,0.0,0.3961,0.3961,0.0,0.0,0.0,0.0,0.0,0.0,0.3487,0.3642,0.3891,0.3989,0.4075,0.4187,0.4259,0.43,0.43,0.421,0.4218,0.4238,0.4222,0.4129,0.415,0.4133,0.4121,0.421,0.3926,0.365,0.3561,0.3277,0.3005,0.2831,0.2565,0.2419,0.2575,0.2299,0.2188,0.2243,0.2144,0.2138,0.2138,0.2138,0.2138,0.2227,0.233,0.2512,0.2778,0.2693,0.2691,0.2599,0.1973,0.1615,0.1436,0.1436,0.1436,0.1436,0.1436,0.1436,0.1436,0.1436,0.1436,0.1436,0.1436,0.1436,0.1436,0.1436,0.1436,0.1436,0.1436,0.1436,0.1436,0.1436,0.1436,0.1436,0.1436,0.1436,0.1436,0.1436,0.1436,0.1436,0.1436,0.1436,0.1436,0.1436,0.1436,0.1615,0.2154,0.2243,0.2602,0.3497,0.3676,0.3855,0.4212,0.43,0.43,0.43,0.43,0.43,0.43,0.43,0.43,0.43,0.43,0.43,0.43,0.43,0.43,0.43,0.43,0.4233,0.4097,0.4028,0.0,0.3825,0.3694,0.0,0.3295,0.0,0.0,0.0,0.363,0.3805,0.3995,0.4032,0.4095,0.4267,0.4295,0.43,0.43,0.4123,0.3976,0.4139,0.3807,0.3706,0.3779,0.3718,0.3765,0.3946,0.3431,0.3306,0.3481,0.2989,0.2704,0.2706,0.2281,0.2158,0.2519,0.2339,0.2157,0.2242,0.211,0.209,0.209,0.209,0.209,0.2094,0.2225,0.2243,0.2243,0.2243,0.2064,0.1884,0.1794,0.1615,0.1436,0.1436,0.1436,0.1436,0.1436,0.1436,0.1436,0.1436,0.1436,0.1436,0.1436,0.1436,0.1436,0.1436,0.1436,0.1436,0.1436,0.1436,0.1436,0.1436,0.1436,0.1436,0.1436,0.1436,0.1436,0.1436,0.1436,0.1436,0.1436,0.1436,0.1436,0.1436,0.1436,0.1615,0.2154,0.2243,0.2602,0.3497,0.4032,0.4121,0.3946,0.4121,0.43,0.43,0.43,0.43,0.43,0.43,0.43,0.43,0.43,0.43,0.43,0.43,0.43,0.4164,0.4097,0.4097,0.3892,0.0,0.0,0.0,0.3429,0.3311,0.3301,0.3311,0.0,0.0,0.3679,0.3803,0.393,0.3999,0.4079,0.4204,0.4265,0.421,0.4034,0.3946,0.387,0.3807,0.3694,0.3599,0.3628,0.3604,0.3655,0.3608,0.3314,0.3106,0.3153,0.2873,0.2608,0.2523,0.2186,0.2035,0.1983,0.1726,0.1651,0.167,0.1636,0.162,0.162,0.162,0.162,0.1621,0.1804,0.1912,0.1938,0.1964,0.1885,0.1794,0.1615,0.1525,0.1436,0.1436,0.1436,0.1436,0.1436,0.1436,0.1436,0.1436,0.1436,0.1436,0.1436,0.1436,0.1436,0.1436,0.1436,0.1436,0.1436,0.1436,0.1436,0.1436,0.1436,0.1436,0.1436,0.1436,0.1436,0.1436,0.1436,0.1436,0.1436,0.1436,0.1436,0.1436,0.1436,0.1615,0.2154,0.2601,0.2959,0.3317,0.3676,0.3855,0.3678,0.3946,0.4034,0.3853,0.3853,0.3853,0.3853,0.3853,0.3853,0.3853,0.4034,0.4034,0.4034,0.421,0.43,0.4028,0.4028,0.3961,0.0,0.0,0.0,0.3431,0.3295,0.3252,0.3344,0.3407,0.3483,0.3603,0.3701,0.3793,0.3885,0.3952,0.4034,0.4157,0.4222,0.4182,0.3944,0.3857,0.3678,0.3497,0.3318,0.3221,0.3287,0.3197,0.3255,0.3272,0.3074,0.2957,0.2999,0.2728,0.2553,0.2305,0.2058,0.19,0.1665,0.1406,0.1339,0.1376,0.1347,0.1333,0.1333,0.1333,0.1333,0.1335,0.1511,0.1612,0.1639,0.1674,0.1688,0.1689,0.1432,0.1436,0.1433,0.1425,0.1427,0.1433,0.1424,0.1427,0.1436,0.1436,0.1436,0.1436,0.1436,0.1436,0.1436,0.1436,0.1436,0.1436,0.1436,0.1436,0.1436,0.1436,0.1436,0.1436,0.1436,0.1436,0.1436,0.1436,0.1436,0.1436,0.1436,0.1436,0.1436,0.1436,0.1436,0.1615,0.2154,0.278,0.3227,0.3227,0.3408,0.3587,0.3497,0.3587,0.3587,0.3587,0.3587,0.3587,0.3587,0.3587,0.3587,0.3587,0.3767,0.3859,0.3948,0.421,0.43,0.4028,0.4028,0.3897,0.0,0.0,0.0,0.3228,0.3226,0.3252,0.3346,0.3505,0.3628,0.3628,0.3701,0.3793,0.3883,0.3897,0.3963,0.4144,0.4171,0.4116,0.3935,0.3676,0.3496,0.3226,0.278,0.2491,0.2524,0.2434,0.2497,0.2695,0.2634,0.2682,0.3008,0.2699,0.243,0.2194,0.1962,0.1828,0.1626,0.143,0.1288,0.1262,0.1316,0.1302,0.1302,0.1302,0.1302,0.1305,0.1335,0.1263,0.1266,0.1378,0.139,0.1393,0.1423,0.1435,0.143,0.14,0.1409,0.1429,0.1399,0.141,0.1435,0.1435,0.1435,0.1435,0.1435,0.1435,0.1435,0.1435,0.1435,0.1436,0.1436,0.1436,0.1436,0.1436,0.1436,0.1436,0.1436,0.1436,0.1436,0.1436,0.1436,0.1436,0.1436,0.1436,0.1436,0.1436,0.1436,0.1615,0.2154,0.278,0.3227,0.3227,0.3408,0.3497,0.3227,0.3047,0.3136,0.3587,0.3587,0.3587,0.3587,0.3587,0.3587,0.3587,0.3767,0.3859,0.3948,0.421,0.43,0.3696,0.3629,0.0,0.3362,0.0,0.0,0.0,0.3295,0.0,0.0,0.3599,0.3722,0.3722,0.3667,0.3612,0.364,0.3534,0.3507,0.3557,0.3697,0.3746,0.3345,0.3343,0.3257,0.2917,0.2573,0.2395,0.2465,0.2294,0.2187,0.2219,0.217,0.2127,0.2169,0.2041,0.1939,0.1714,0.1641,0.1511,0.1316,0.123,0.1257,0.1315,0.1284,0.1271,0.1271,0.1271,0.1271,0.1273,0.1303,0.1316,0.1319,0.1349,0.1372,0.1388,0.1378,0.1386,0.1399,0.137,0.1367,0.1372,0.1363,0.138,0.1399,0.138,0.1388,0.1399,0.138,0.1388,0.1403,0.1403,0.1419,0.1436,0.1436,0.1436,0.1436,0.1436,0.1436,0.1436,0.1436,0.1436,0.1436,0.1436,0.1436,0.1436,0.1436,0.1436,0.1436,0.1436,0.1525,0.1705,0.1885,0.2242,0.2512,0.2512,0.2602,0.2602,0.2512,0.2422,0.2512,0.2782,0.2691,0.2602,0.2602,0.2782,0.2782,0.2872,0.3408,0.3678,0.3678,0.4121,0.43,0.3563,0.3498,0.0,0.3228,0.3228,0.3362,0.3629,0.0,0.0,0.0,0.3704,0.3732,0.3581,0.3429,0.3362,0.3319,0.3207,0.318,0.3318,0.3451,0.3411,0.3026,0.3112,0.3112,0.2776,0.2439,0.2262,0.2241,0.2058,0.1864,0.182,0.1856,0.1821,0.1792,0.1764,0.1677,0.1531,0.1531,0.1396,0.1194,0.1194,0.1213,0.1249,0.1254,0.1335,0.1335,0.1335,0.1335,0.1337,0.1277,0.1284,0.1288,0.1318,0.134,0.1354,0.135,0.1358,0.1369,0.134,0.1338,0.1261,0.1334,0.135,0.137,0.1353,0.136,0.1369,0.1353,0.136,0.1373,0.1373,0.1395,0.1421,0.1432,0.1436,0.1436,0.1436,0.1436,0.1436,0.1436,0.1436,0.1436,0.1436,0.1436,0.1436,0.1436,0.1436,0.1436,0.1436,0.1615,0.1794,0.1794,0.2064,0.2243,0.2243,0.2243,0.2243,0.2243,0.2064,0.2064,0.2243,0.2243,0.2243,0.2334,0.2424,0.2513,0.2694,0.3318,0.3587,0.3587,0.4121,0.43,0.3496,0.0,0.0,0.3228,0.3362,0.0,0.3961,0.4039,0.3904,0.3702,0.3714,0.3711,0.335,0.3207,0.3158,0.3004,0.2941,0.2989,0.3207,0.3226,0.3175,0.3002,0.3011,0.2928,0.2676,0.2252,0.1983,0.1941,0.174,0.1546,0.1511,0.1622,0.1744,0.1744,0.174,0.1665,0.1447,0.1447,0.1377,0.1162,0.1162,0.1164,0.1168,0.1226,0.1333,0.1335,0.1335,0.1335,0.1335,0.1335,0.1335,0.1338,0.1288,0.13,0.1306,0.1331,0.1341,0.1339,0.1309,0.1316,0.1335,0.1307,0.1319,0.126,0.1341,0.1341,0.126,0.1341,0.1341,0.126,0.126,0.1365,0.1394,0.1424,0.1433,0.1436,0.1436,0.1436,0.1436,0.1436,0.1436,0.1436,0.1436,0.1436,0.1436,0.1436,0.1436,0.1436,0.1436,0.1615,0.1793,0.179,0.1969,0.2146,0.2142,0.2141,0.2141,0.2141,0.1874,0.1787,0.1789,0.1973,0.2243,0.2424,0.2424,0.2604,0.2873,0.332,0.3587,0.3587,0.4121,0.43,0.3295,0.3295,0.0,0.0,0.356,0.3961,0.4361,0.4515,0.4495,0.4178,0.4001,0.393,0.3711,0.3423,0.314,0.2935,0.2572,0.2377,0.2601,0.2611,0.2636,0.2622,0.271,0.271,0.231,0.2037,0.178,0.1616,0.1429,0.1257,0.125,0.1291,0.1272,0.1272,0.1246,0.1232,0.1164,0.1164,0.1176,0.1131,0.1131,0.1143,0.1168,0.1204,0.1234,0.1335,0.1335,0.1335,0.1335,0.1335,0.1335,0.1336,0.1264,0.1281,0.1301,0.1283,0.1292,0.1308,0.1277,0.1271,0.1276,0.1269,0.1288,0.1308,0.1284,0.1294,0.1307,0.1284,0.1294,0.1312,0.1312,0.1335,0.1364,0.1393,0.1418,0.1436,0.1436,0.1436,0.1436,0.1436,0.1436,0.1436,0.1436,0.1436,0.1436,0.1436,0.1436,0.1436,0.1436,0.1436,0.1515,0.149,0.1575,0.1564,0.154,0.1452,0.1452,0.1452,0.1452,0.1463,0.1486,0.1511,0.1705,0.1974,0.2154,0.2334,0.2603,0.3229,0.3587,0.3587,0.4121,0.43,0.0,0.0,0.0,0.3295,0.0,0.4095,0.4364,0.4561,0.4648,0.4515,0.437,0.4201,0.3853,0.3572,0.3238,0.2995,0.2576,0.2312,0.2442,0.2453,0.2391,0.2347,0.2426,0.2351,0.2047,0.1799,0.1637,0.1488,0.1307,0.1144,0.1144,0.1116,0.1099,0.1099,0.1084,0.1076,0.1076,0.1076,0.1084,0.1099,0.1099,0.1115,0.1146,0.1176,0.1199,0.129,0.129,0.129,0.129,0.129,0.129,0.129,0.129,0.1232,0.1257,0.1241,0.1255,0.1279,0.1263,0.1335,0.1335,0.1335,0.1268,0.1278,0.1262,0.1269,0.1277,0.1262,0.1269,0.1281,0.1281,0.1303,0.133,0.1344,0.1382,0.1417,0.1432,0.1436,0.1436,0.1436,0.1436,0.1436,0.1436,0.1436,0.1436,0.1436,0.1436,0.1436,0.1436,0.1436,0.1424,0.1393,0.139,0.1378,0.1266,0.1263,0.1263,0.1263,0.1263,0.1361,0.1388,0.1406,0.1598,0.1973,0.2154,0.2334,0.2694,0.3139,0.3497,0.3587,0.3944,0.4212,0.0,0.0,0.3226,0.3362,0.3629,0.0,0.4164,0.4364,0.4558,0.4694,0.4694,0.4492,0.4025,0.3756,0.3513,0.3186,0.2853,0.26,0.2666,0.2534,0.2323,0.2187,0.2188,0.2115,0.1824,0.167,0.1594,0.1522,0.1343,0.1183,0.1183,0.1157,0.121,0.121,0.1143,0.1143,0.1143,0.1143,0.1076,0.1076,0.1076,0.1089,0.1114,0.1139,0.1157,0.1166,0.1166,0.1166,0.1166,0.1166,0.1166,0.1166,0.1166,0.1182,0.1204,0.1204,0.122,0.1319,0.1319,0.1319,0.132,0.1248,0.1249,0.125,0.1334,0.1335,0.1335,0.1335,0.1335,0.1335,0.1335,0.1276,0.1296,0.1301,0.1339,0.1384,0.142,0.1431,0.1436,0.1436,0.1436,0.1436,0.1436,0.1436,0.1436,0.1436,0.1436,0.1436,0.1436,0.1431,0.1416,0.1386,0.1378,0.1363,0.1335,0.1332,0.1332,0.1332,0.1332,0.1347,0.1381,0.1382,0.1662,0.2153,0.2154,0.2424,0.2873,0.305,0.3317,0.3587,0.3767,0.4034,0.0,0.0,0.3023,0.0,0.3159,0.3426,0.0,0.0,0.4161,0.4558,0.4625,0.4558,0.4492,0.4356,0.4092,0.3777,0.3377,0.3073,0.2945,0.2816,0.2698,0.2542,0.2548,0.2404,0.2042,0.1929,0.1833,0.1691,0.158,0.1556,0.1556,0.155,0.1547,0.1547,0.1345,0.1277,0.1277,0.1143,0.1076,0.1076,0.1076,0.1078,0.1082,0.1086,0.1117,0.1166,0.1166,0.1166,0.1166,0.1166,0.1166,0.1166,0.1166,0.1169,0.1172,0.1172,0.1175,0.1179,0.1179,0.1179,0.1183,0.1209,0.1217,0.1223,0.1249,0.1335,0.1335,0.1335,0.1335,0.1335,0.1335,0.1339,0.127,0.1296,0.1309,0.1329,0.1384,0.1416,0.1436,0.1436,0.1436,0.1436,0.1436,0.1436,0.1436,0.1436,0.1436,0.1436,0.1436,0.1412,0.1385,0.1356,0.133,0.1302,0.1272,0.1269,0.1269,0.1269,0.1269,0.1294,0.1351,0.1354,0.1466,0.1883,0.2064,0.2334,0.2513,0.2959,0.3317,0.3587,0.3767,0.4034,0.2549,0.2694,0.277,0.0,0.2889,0.2956,0.3155,0.3291,0.3558,0.3889,0.4223,0.4489,0.4694,0.4628,0.4492,0.4292,0.3892,0.3643,0.3551,0.3351,0.3158,0.2991,0.2856,0.2717,0.2439,0.2412,0.2327,0.2259,0.2232,0.2217,0.2217,0.2083,0.2016,0.1951,0.1748,0.1547,0.1277,0.121,0.1143,0.1076,0.1076,0.1076,0.1076,0.1076,0.109,0.1115,0.1115,0.1115,0.1115,0.1115,0.1115,0.1115,0.1115,0.1126,0.1141,0.1141,0.1152,0.1166,0.1166,0.1166,0.1168,0.1182,0.1186,0.1189,0.1202,0.1282,0.1282,0.1282,0.1282,0.1282,0.1282,0.1219,0.1235,0.1249,0.1278,0.1309,0.1335,0.1365,0.1386,0.1386,0.1386,0.1386,0.1386,0.1386,0.1386,0.1386,0.1386,0.1386,0.1386,0.1374,0.1355,0.1326,0.1311,0.129,0.1338,0.1335,0.1335,0.1335,0.1273,0.1302,0.1262,0.1363,0.1392,0.1614,0.1794,0.2154,0.2513,0.2691,0.296,0.3406,0.3497,0.3674,0.0,0.0,0.25,0.2422,0.2446,0.2392,0.0,0.2608,0.2889,0.3153,0.3754,0.4289,0.4625,0.4831,0.4894,0.4758,0.4492,0.4228,0.4161,0.3956,0.3689,0.3426,0.3291,0.3157,0.3021,0.2954,0.2954,0.2954,0.2954,0.2954,0.2954,0.2818,0.2686,0.2488,0.222,0.1883,0.148,0.1344,0.121,0.1076,0.1076,0.1076,0.1076,0.1076,0.1076,0.1076,0.1076,0.1076,0.1076,0.1076,0.1076,0.1076,0.1076,0.1089,0.111,0.111,0.1124,0.1143,0.1143,0.1143,0.1144,0.1153,0.1155,0.1156,0.1164,0.1166,0.1166,0.1166,0.1166,0.1166,0.1166,0.1183,0.1202,0.121,0.1246,0.1286,0.1309,0.1332,0.1263,0.1263,0.1263,0.1263,0.1263,0.1263,0.1263,0.1263,0.1263,0.1263,0.1263,0.1341,0.1328,0.1305,0.1303,0.1294,0.1271,0.1276,0.128,0.128,0.1301,0.1327,0.1357,0.1379,0.1404,0.1435,0.1615,0.1885,0.2334,0.2424,0.2691,0.3136,0.3136,0.3317,0.0,0.1608,0.0,0.1799,0.171,0.0,0.0,0.1979,0.2287,0.2417,0.322,0.3959,0.4287,0.4891,0.5292,0.509,0.5087,0.4954,0.4625,0.4558,0.4425,0.4028,0.3961,0.3894,0.3758,0.3758,0.3758,0.3758,0.3758,0.3758,0.3758,0.3758,0.3558,0.3159,0.2822,0.242,0.1884,0.1345,0.1076,0.1076,0.1076,0.1076,0.1076,0.1076,0.1076,0.1076,0.1076,0.1076,0.1076,0.1076,0.1076,0.1076,0.1076,0.1077,0.1078,0.1078,0.1079,0.108,0.108,0.108,0.1085,0.1114,0.1123,0.1129,0.1157,0.1166,0.1166,0.1166,0.1166,0.1166,0.1166,0.1168,0.1176,0.1204,0.1214,0.124,0.1327,0.1263,0.1263,0.1263,0.1263,0.1263,0.1263,0.1263,0.1263,0.1263,0.1263,0.1263,0.1263,0.1323,0.1304,0.1303,0.1303,0.1302,0.1301,0.1326,0.1259,0.1259,0.1261,0.1358,0.1386,0.1389,0.1404,0.1435,0.1436,0.1525,0.1794,0.2244,0.2602,0.2957,0.3136,0.3317,0.0,0.0,0.0,0.1291,0.137,0.1443,0.1443,0.1539,0.1701,0.1962,0.2586,0.322,0.3687,0.4553,0.5223,0.5292,0.5292,0.5226,0.516,0.5024,0.4888,0.4691,0.4561,0.4495,0.4428,0.4428,0.4428,0.4428,0.4428,0.4428,0.4428,0.4219,0.3981,0.3593,0.3145,0.2607,0.1781,0.1337,0.1147,0.102,0.102,0.103,0.1048,0.1048,0.1059,0.1076,0.1076,0.1076,0.1076,0.1076,0.1076,0.1076,0.1076,0.1076,0.1076,0.1076,0.1076,0.1076,0.1076,0.1076,0.1078,0.1088,0.1092,0.1094,0.1105,0.1108,0.1108,0.1108,0.1108,0.1108,0.1108,0.1123,0.115,0.12,0.1212,0.1226,0.1279,0.129,0.129,0.129,0.129,0.129,0.129,0.129,0.129,0.129,0.129,0.129,0.129,0.128,0.1273,0.1273,0.1291,0.1303,0.1303,0.1331,0.1263,0.1263,0.1365,0.138,0.139,0.1409,0.1424,0.1435,0.1436,0.1525,0.1794,0.1974,0.2154,0.2422,0.2511,0.2691,-0.0518,0.0,0.0,0.0,0.0724,0.0912,0.1033,0.112,0.1274,0.1545,0.2094,0.2657,0.3147,0.402,0.4758,0.5163,0.5226,0.5292,0.5362,0.5292,0.5223,0.5223,0.5093,0.503,0.503,0.503,0.503,0.503,0.503,0.4942,0.4894,0.4669,0.4345,0.3801,0.3232,0.2523,0.1724,0.1358,0.1112,0.0988,0.0988,0.0999,0.1018,0.1018,0.1029,0.1046,0.1046,0.1057,0.1075,0.1065,0.1061,0.1061,0.105,0.1052,0.1061,0.1061,0.1067,0.1076,0.1076,0.1076,0.1076,0.1076,0.1076,0.1076,0.1076,0.1076,0.1076,0.1076,0.1076,0.1076,0.1076,0.1098,0.1134,0.1185,0.1204,0.122,0.1251,0.1335,0.1335,0.1335,0.1335,0.1335,0.1335,0.1335,0.1335,0.1335,0.1335,0.1335,0.1335,0.1335,0.1261,0.1271,0.13,0.1322,0.1331,0.136,0.1291,0.1291,0.1395,0.1406,0.1406,0.1425,0.1436,0.1436,0.1436,0.1525,0.1705,0.1794,0.1885,0.2064,0.2154,0.2423,0.0,0.0,0.0,0.0,-0.0287,0.0118,0.0353,0.0664,0.0995,0.1089,0.1674,0.2272,0.2599,0.328,0.3949,0.4616,0.4951,0.5156,0.5359,0.5362,0.5362,0.5362,0.5362,0.5362,0.5362,0.5362,0.5359,0.5355,0.5355,0.5287,0.5131,0.5055,0.4672,0.3742,0.3003,0.2332,0.1719,0.1354,0.117,0.0986,0.0986,0.0986,0.0987,0.0987,0.0988,0.0988,0.0988,0.102,0.1071,0.1044,0.1032,0.1029,0.1,0.1007,0.0969,0.0969,0.1052,0.1076,0.1076,0.1076,0.1076,0.1076,0.1076,0.1076,0.1076,0.1076,0.1076,0.1076,0.1076,0.1076,0.1076,0.1097,0.1127,0.1157,0.1188,0.1219,0.1249,0.1335,0.1335,0.1335,0.1335,0.1335,0.1335,0.1335,0.1335,0.1335,0.1335,0.1335,0.1335,0.1335,0.1269,0.1298,0.1329,0.1359,0.1386,0.1417,0.1436,0.1436,0.1436,0.1436,0.1436,0.1436,0.1436,0.1436,0.1436,0.1436,0.1436,0.1705,0.1794,0.1794,0.2064,0.2511,-0.2073,0.0,0.0,0.0,0.0,0.0,-0.0341,-0.0,0.0419,0.0724,0.1108,0.1441,0.1892,0.24,0.2841,0.3279,0.4113,0.4758,0.4824,0.4894,0.4964,0.4964,0.4964,0.4964,0.4964,0.4964,0.4989,0.5016,0.5009,0.5008,0.4986,0.475,0.433,0.3626,0.3218,0.2644,0.1898,0.173,0.1443,0.1096,0.1096,0.1051,0.0956,0.0956,0.0967,0.0988,0.0988,0.0997,0.1012,0.1004,0.1001,0.1,0.0991,0.1007,0.0969,0.0969,0.1052,0.1076,0.1076,0.1076,0.1076,0.1076,0.1076,0.1076,0.1076,0.1076,0.1076,0.1076,0.1076,0.1076,0.1076,0.1082,0.1096,0.1126,0.1157,0.1187,0.1217,0.1241,0.1335,0.1335,0.1335,0.1335,0.1335,0.1335,0.1335,0.1335,0.1335,0.1335,0.1335,0.1335,0.1339,0.1269,0.1316,0.1267,0.1358,0.1406,0.1436,0.1436,0.1436,0.1436,0.1436,0.1615,0.1705,0.1705,0.1885,0.1885,0.1705,0.1525,0.1525,0.1525,0.1974,0.2511,0.0,0.0,0.0,-0.1962,0.0,0.0,-0.112,-0.0796,-0.0406,-0.0,0.0418,0.079,0.123,0.1664,0.2094,0.2402,0.304,0.3706,0.4145,0.4394,0.4495,0.4495,0.4561,0.4538,0.4421,0.4483,0.4561,0.4556,0.4668,0.4732,0.471,0.4503,0.4047,0.3416,0.3132,0.2685,0.1905,0.1796,0.1515,0.1122,0.1122,0.1021,0.0924,0.0924,0.0933,0.0951,0.0951,0.0951,0.0951,0.0951,0.0958,0.0968,0.0956,0.0977,0.1015,0.1015,0.1041,0.1076,0.1076,0.1076,0.1076,0.1076,0.1076,0.1076,0.1076,0.1076,0.1076,0.1076,0.1076,0.1076,0.1076,0.1076,0.1083,0.1114,0.1134,0.1156,0.126,0.1369,0.1398,0.1412,0.1415,0.1415,0.1572,0.1572,0.1572,0.1572,0.1572,0.1572,0.1572,0.1572,0.1578,0.1512,0.1552,0.1589,0.162,0.1659,0.1688,0.1704,0.1705,0.1705,0.1705,0.1974,0.2064,0.2064,0.2332,0.2332,0.2064,0.1705,0.1525,0.1436,0.1794,0.2243,0.0,0.0,0.0,-0.2687,-0.2408,0.0,-0.1958,-0.1624,-0.1301,-0.0932,-0.041,0.0177,0.0547,0.1038,0.1463,0.1768,0.1897,0.2291,0.3375,0.3731,0.3857,0.3857,0.4053,0.4074,0.3786,0.3969,0.3985,0.3864,0.4203,0.4383,0.4378,0.4257,0.3858,0.313,0.2963,0.2573,0.1853,0.174,0.1459,0.1122,0.1122,0.1066,0.0898,0.0898,0.0898,0.0898,0.0898,0.0898,0.0898,0.0898,0.0913,0.0877,0.0908,0.0935,0.0988,0.0988,0.1025,0.1076,0.1076,0.1076,0.1076,0.1076,0.1076,0.1076,0.1076,0.1076,0.1076,0.1076,0.1076,0.1076,0.1076,0.1076,0.1082,0.111,0.1119,0.1128,0.1373,0.1485,0.1525,0.1715,0.1725,0.1729,0.1964,0.1964,0.1964,0.1965,0.1965,0.2044,0.2043,0.2043,0.2058,0.2019,0.2027,0.2065,0.2236,0.2248,0.2272,0.2322,0.2325,0.2327,0.2332,0.2512,0.2693,0.2693,0.2868,0.2868,0.2693,0.2154,0.1705,0.1525,0.1794,0.2154,-0.4184,-0.3849,-0.3458,-0.3405,-0.3128,0.0,-0.2569,-0.235,-0.202,-0.1467,-0.1131,-0.0794,-0.04,-0.0,0.04,0.08,0.1052,0.1502,0.229,0.2746,0.3005,0.3005,0.3192,0.3186,0.3043,0.3164,0.3186,0.3148,0.3525,0.3803,0.3786,0.3869,0.363,0.313,0.3074,0.274,0.2128,0.2073,0.1794,0.1234,0.1234,0.1122,0.0898,0.0898,0.0898,0.0898,0.0898,0.0898,0.0898,0.0898,0.0901,0.0906,0.09,0.0935,0.0988,0.0988,0.1025,0.1076,0.1076,0.1076,0.1076,0.1076,0.1076,0.1076,0.1076,0.1076,0.1076,0.1076,0.1076,0.1076,0.1076,0.1076,0.1077,0.1083,0.1103,0.1123,0.134,0.1466,0.1668,0.236,0.2245,0.2118,0.2354,0.2354,0.2433,0.2591,0.2591,0.2668,0.2821,0.2899,0.2904,0.2838,0.2889,0.2933,0.2959,0.3011,0.3072,0.3141,0.3146,0.3257,0.3309,0.3492,0.3671,0.3671,0.3671,0.3671,0.3582,0.2601,0.2064,0.2064,0.2244,0.2602,-0.4794,-0.457,-0.4346,-0.4291,-0.4015,0.0,0.0,-0.3294,-0.2905,-0.2456,-0.2066,-0.1679,-0.1287,-0.1008,-0.0784,-0.0392,-0.0114,0.0231,0.0763,0.1569,0.2092,0.2277,0.2463,0.2448,0.2289,0.2345,0.2495,0.2703,0.3102,0.3408,0.3471,0.3635,0.3522,0.313,0.3019,0.274,0.2184,0.2127,0.1849,0.1291,0.1291,0.1178,0.0898,0.0898,0.0898,0.0898,0.0898,0.0898,0.0898,0.0898,0.0898,0.0898,0.0898,0.0935,0.0988,0.0988,0.1025,0.1076,0.1076,0.1076,0.1076,0.1076,0.1076,0.1076,0.1076,0.1076,0.1076,0.1076,0.1076,0.1076,0.1076,0.1076,0.1076,0.1076,0.1087,0.1167,0.1442,0.1649,0.2006,0.2822,0.3061,0.3214,0.329,0.329,0.3368,0.3604,0.3604,0.3604,0.3756,0.3756,0.3756,0.3756,0.3797,0.3844,0.3808,0.3854,0.3934,0.4066,0.4074,0.4202,0.4291,0.4563,0.4652,0.4828,0.4741,0.4654,0.4654,0.3941,0.3315,0.2867,0.3047,0.3226,-0.5289,-0.5234,-0.5179,-0.5066,-0.4846,-0.4625,0.0,0.0,0.0,-0.3566,-0.3065,-0.2565,-0.2179,-0.2068,-0.1902,-0.1514,-0.1233,-0.0897,-0.0617,0.0293,0.1089,0.1575,0.1816,0.1858,0.1636,0.1689,0.1902,0.2359,0.2687,0.3021,0.3246,0.3471,0.3413,0.3188,0.3074,0.2796,0.235,0.2183,0.1849,0.1347,0.1347,0.1178,0.0898,0.0898,0.0898,0.0898,0.0898,0.0898,0.0898,0.0898,0.0898,0.0898,0.0898,0.0935,0.0988,0.0988,0.1025,0.1076,0.1076,0.1076,0.1076,0.1076,0.1076,0.1076,0.1076,0.1076,0.1076,0.1076,0.1076,0.1076,0.1076,0.1076,0.1076,0.1076,0.1076,0.121,0.1547,0.1897,0.2334,0.3207,0.3793,0.4153,0.4226,0.4224,0.438,0.454,0.454,0.4618,0.4618,0.4618,0.4618,0.4618,0.4618,0.4656,0.4746,0.4673,0.4755,0.4947,0.4979,0.5127,0.524,0.5447,0.5636,0.5808,0.5636,0.5636,0.5547,0.5366,0.4828,0.3846,0.3846,0.4026,-0.5891,-0.5732,-0.5567,-0.5508,-0.534,-0.5171,-0.5069,0.0,-0.4677,-0.4405,0.0,-0.3674,-0.3231,0.0,0.0,-0.2071,-0.1679,-0.1343,-0.1122,-0.0847,-0.0227,0.0851,0.1248,0.136,0.1242,0.1241,0.1409,0.1853,0.213,0.2464,0.2747,0.319,0.3413,0.3357,0.3471,0.3299,0.285,0.2687,0.2242,0.1572,0.1403,0.1178,0.0898,0.0898,0.0898,0.0898,0.0898,0.0898,0.0898,0.0898,0.0898,0.0898,0.0898,0.0935,0.0988,0.0988,0.1025,0.1076,0.1076,0.1076,0.1076,0.1076,0.1076,0.1076,0.1076,0.1076,0.1076,0.1076,0.1076,0.1076,0.1076,0.1076,0.1076,0.1076,0.1076,0.121,0.1547,0.1897,0.2405,0.3348,0.4013,0.4384,0.4621,0.4774,0.5004,0.5162,0.5165,0.5243,0.5401,0.5482,0.5482,0.5482,0.5482,0.5488,0.5503,0.5503,0.5562,0.5702,0.5823,0.5948,0.6082,0.6195,0.6254,0.634,0.6343,0.6251,0.6251,0.6251,0.5719,0.483,0.483,0.501,-0.6119,-0.6009,-0.5955,-0.5955,-0.5837,-0.5668,-0.5618,-0.5454,-0.5289,-0.5179,0.0,0.0,0.0,0.0,0.0,0.0,-0.2792,-0.2456,-0.1956,-0.1623,-0.1008,0.0112,0.0336,0.0505,0.0673,0.0842,0.1122,0.1403,0.1849,0.224,0.2691,0.3023,0.3302,0.3527,0.3471,0.3299,0.2905,0.2687,0.2242,0.1572,0.1403,0.1178,0.0898,0.0898,0.0898,0.0898,0.0898,0.0898,0.0898,0.0898,0.0898,0.0898,0.0898,0.0935,0.0988,0.0988,0.1025,0.1076,0.1076,0.1076,0.1076,0.1076,0.1076,0.1076,0.1076,0.1076,0.1076,0.1076,0.1076,0.1076,0.1076,0.1076,0.1076,0.1076,0.1143,0.1277,0.1547,0.2106,0.2842,0.3638,0.4392,0.5007,0.5321,0.5473,0.5628,0.5867,0.5867,0.5948,0.6025,0.6025,0.6025,0.6025,0.6025,0.6025,0.6025,0.6025,0.6087,0.6221,0.6368,0.6396,0.6457,0.6512,0.6544,0.6544,0.6544,0.6544,0.6544,0.6544,0.637,0.5946,0.5832,0.5897,-0.6337,-0.6337,-0.6337,-0.6337,-0.6277,-0.6218,-0.6218,-0.6055,-0.5891,-0.5891,-0.5673,0.0,0.0,0.0,-0.468,-0.4236,0.0,-0.34,-0.2845,-0.2458,-0.1846,-0.084,-0.0561,-0.0336,-0.0,0.0393,0.0785,0.1122,0.1569,0.2073,0.2521,0.2854,0.3132,0.3413,0.3357,0.3188,0.2852,0.2633,0.2186,0.1572,0.1403,0.1178,0.0898,0.0898,0.0898,0.0898,0.0898,0.0898,0.0898,0.0898,0.0898,0.0898,0.0898,0.093,0.0977,0.0985,0.102,0.1065,0.1073,0.1076,0.1076,0.1143,0.1143,0.1143,0.121,0.121,0.1143,0.1143,0.1143,0.1076,0.1076,0.1076,0.1076,0.1076,0.121,0.1348,0.163,0.2398,0.3281,0.3891,0.4717,0.5476,0.5864,0.5941,0.6099,0.6261,0.6338,0.6338,0.6338,0.6338,0.6338,0.6338,0.6338,0.6338,0.6338,0.6338,0.6322,0.6464,0.6576,0.6658,0.6698,0.6702,0.6702,0.6702,0.6702,0.6702,0.6702,0.6702,0.6702,0.6705,0.6576,0.6496,-0.6707,-0.6707,-0.6707,-0.6707,-0.6707,-0.6701,-0.6701,-0.6647,-0.6647,-0.6647,-0.649,-0.6327,-0.6209,-0.5832,-0.5454,-0.5109,-0.456,0.0,0.0,-0.3522,-0.3021,-0.224,-0.1569,-0.101,-0.0617,-0.0224,0.028,0.0842,0.129,0.1738,0.2184,0.2521,0.28,0.2905,0.3019,0.2965,0.2691,0.2577,0.2186,0.1572,0.1403,0.1178,0.0898,0.0898,0.0898,0.0898,0.0898,0.0898,0.0898,0.0898,0.0898,0.0898,0.0898,0.0917,0.0888,0.0977,0.1008,0.1039,0.1066,0.1076,0.1143,0.1277,0.1277,0.1344,0.1547,0.148,0.1277,0.1277,0.121,0.1076,0.1076,0.1076,0.1076,0.1076,0.121,0.1422,0.188,0.2643,0.3514,0.4124,0.5002,0.5637,0.5864,0.6099,0.6261,0.6261,0.6338,0.6338,0.6338,0.6338,0.6338,0.6338,0.6338,0.6338,0.6338,0.6338,0.6322,0.6464,0.6478,0.6546,0.6695,0.6702,0.6702,0.6702,0.6702,0.6702,0.6702,0.6702,0.6702,0.6702,0.6712,0.6715,-0.7074,-0.7025,-0.6923,-0.6874,-0.6923,-0.6923,-0.6874,-0.6928,-0.6972,-0.6972,-0.682,-0.6712,-0.6652,-0.6277,-0.595,-0.5723,-0.5395,-0.5011,0.0,-0.4353,-0.3907,-0.3352,-0.2293,-0.1511,-0.1231,-0.084,-0.028,0.0449,0.101,0.1514,0.1902,0.2127,0.2294,0.2406,0.2462,0.2408,0.224,0.2127,0.1849,0.1403,0.1234,0.1066,0.0898,0.0898,0.0898,0.0898,0.0898,0.0785,0.0561,0.0561,0.0673,0.0898,0.0898,0.0904,0.0917,0.0947,0.099,0.1038,0.1199,0.121,0.1277,0.1412,0.148,0.148,0.1547,0.1547,0.148,0.148,0.148,0.1412,0.1412,0.1412,0.1412,0.1277,0.148,0.1695,0.1812,0.2716,0.3591,0.4059,0.4775,0.5479,0.5634,0.5867,0.6099,0.6261,0.6338,0.6338,0.6338,0.6338,0.6338,0.6338,0.6338,0.6338,0.6338,0.6338,0.6281,0.6329,0.6332,0.6356,0.6407,0.641,0.641,0.641,0.641,0.641,0.641,0.641,0.641,0.641,0.641,0.6515,-0.7616,-0.7509,-0.7348,-0.73,-0.73,-0.7402,-0.7359,-0.7413,-0.7515,-0.7515,-0.7354,-0.7246,-0.7144,-0.6771,-0.6391,-0.6273,-0.5946,-0.5622,0.0,-0.4959,-0.457,-0.4236,-0.3128,-0.2237,-0.1902,-0.14,-0.084,-0.0112,0.0561,0.1065,0.1456,0.1624,0.1737,0.1849,0.1849,0.1849,0.1737,0.1681,0.1513,0.1234,0.1178,0.1066,0.0898,0.0898,0.0842,0.0729,0.0842,0.0785,0.0561,0.0336,0.0449,0.0729,0.0729,0.0729,0.0732,0.0874,0.0982,0.1036,0.1186,0.1267,0.1344,0.1547,0.1681,0.1817,0.1884,0.1884,0.1884,0.1884,0.1817,0.1817,0.1817,0.1817,0.1749,0.1547,0.1749,0.2034,0.202,0.2836,0.3623,0.4052,0.4741,0.5345,0.5473,0.5634,0.5867,0.6099,0.618,0.618,0.618,0.6103,0.6106,0.618,0.618,0.618,0.6261,0.6338,0.6338,0.6338,0.6338,0.6338,0.6338,0.6338,0.6338,0.6338,0.6338,0.6234,0.6179,0.6179,0.6152,0.6098,0.6098,0.6227]},{"header":{"parameterUnit":"m.s-1","parameterCategory":1,"la1":30.6,"la2":29.2853,"lo1":-89.7004,"lo2":-87.6739,"dy":0.0162,"dx":0.0183,"nx":112,"ny":82,"refTime":"2023-08-11T18:00:00:Z","depth":0,"parameterNumber":3,"parameterNumberName":"V-component_of_WINDS"},"data":[0.0,0.0,0.0,0.0,0.0,0.0,0.0,0.0,0.0,0.0,0.0,0.0,0.0,0.0,0.0,0.0,0.0,0.0,0.0,0.0,0.0,0.0,0.0,0.0,0.0,0.0,0.0,0.0,0.0,0.0,0.0,0.0,0.0,0.0,0.0,0.0,0.0,0.0,0.0,0.0,0.0,0.0,0.0,0.0,0.0,0.0,0.0,0.0,0.0,0.0,0.0,0.0,0.0,0.0,0.0,0.0,0.0,0.0,0.0,0.0,0.0,0.0,0.0,0.0,0.0,0.0,0.0,0.0,0.0,0.0,0.0,0.0,0.0,0.0,0.0,0.0,0.0,0.0,0.0,0.0,0.0,0.0,0.0,0.0,0.0,0.0,0.0,0.0,0.0,0.0,-2.609,-2.7097,-2.8754,-3.0079,-3.0743,-3.0177,-3.0079,-3.0762,0.0,0.0,0.0,0.0,0.0,0.0,0.0,0.0,0.0,0.0,0.0,0.0,0.0,0.0,0.0,0.0,0.0,0.0,0.0,0.0,0.0,0.0,0.0,0.0,0.0,0.0,0.0,0.0,0.0,0.0,0.0,0.0,0.0,0.0,0.0,0.0,0.0,0.0,0.0,0.0,0.0,0.0,0.0,0.0,0.0,0.0,0.0,0.0,0.0,0.0,0.0,0.0,0.0,0.0,0.0,0.0,0.0,0.0,0.0,0.0,0.0,0.0,0.0,0.0,0.0,0.0,0.0,0.0,0.0,0.0,0.0,0.0,0.0,0.0,0.0,0.0,0.0,0.0,0.0,0.0,0.0,0.0,0.0,0.0,0.0,0.0,0.0,0.0,0.0,0.0,0.0,0.0,0.0,0.0,0.0,0.0,0.0,0.0,0.0,0.0,0.0,0.0,0.0,0.0,-2.6327,-2.7922,-2.9652,-3.0723,-3.0782,-3.0684,-3.0665,-3.0782,0.0,0.0,0.0,0.0,0.0,0.0,0.0,0.0,0.0,0.0,0.0,0.0,0.0,0.0,0.0,0.0,0.0,0.0,0.0,0.0,0.0,0.0,0.0,0.0,0.0,0.0,0.0,0.0,0.0,0.0,0.0,0.0,0.0,0.0,0.0,0.0,0.0,0.0,0.0,0.0,0.0,0.0,0.0,0.0,0.0,0.0,0.0,0.0,0.0,0.0,0.0,0.0,0.0,0.0,0.0,0.0,0.0,0.0,0.0,0.0,0.0,0.0,0.0,0.0,0.0,0.0,0.0,0.0,0.0,0.0,0.0,0.0,0.0,0.0,0.0,0.0,0.0,0.0,0.0,0.0,0.0,0.0,0.0,0.0,0.0,0.0,0.0,0.0,0.0,0.0,0.0,0.0,0.0,0.0,0.0,0.0,0.0,0.0,0.0,0.0,0.0,0.0,0.0,-2.6523,-2.7421,-2.8217,-2.9869,-3.088,-3.0801,-3.0801,-3.0801,-3.0801,-3.045,0.0,0.0,0.0,0.0,0.0,0.0,0.0,0.0,0.0,0.0,0.0,0.0,0.0,0.0,0.0,0.0,0.0,0.0,0.0,0.0,0.0,0.0,0.0,0.0,0.0,0.0,0.0,0.0,0.0,0.0,0.0,0.0,0.0,0.0,0.0,0.0,0.0,0.0,0.0,0.0,0.0,0.0,0.0,0.0,0.0,0.0,0.0,0.0,0.0,0.0,0.0,0.0,0.0,0.0,0.0,0.0,0.0,0.0,0.0,0.0,0.0,0.0,0.0,0.0,0.0,0.0,0.0,0.0,0.0,0.0,0.0,0.0,0.0,0.0,0.0,0.0,0.0,0.0,0.0,0.0,0.0,0.0,0.0,0.0,0.0,0.0,0.0,0.0,0.0,0.0,0.0,0.0,0.0,0.0,0.0,0.0,0.0,0.0,0.0,0.0,0.0,0.0,-2.7343,-2.8377,-2.8589,-2.9988,-3.088,-3.0801,-3.0801,-3.0801,-3.0801,-3.0801,0.0,0.0,0.0,0.0,0.0,0.0,0.0,0.0,0.0,0.0,0.0,0.0,0.0,0.0,0.0,0.0,0.0,0.0,0.0,0.0,0.0,0.0,0.0,0.0,0.0,0.0,0.0,0.0,0.0,0.0,0.0,0.0,0.0,0.0,0.0,0.0,0.0,0.0,0.0,0.0,0.0,0.0,0.0,0.0,0.0,0.0,0.0,0.0,0.0,0.0,0.0,0.0,0.0,0.0,0.0,0.0,0.0,0.0,0.0,0.0,0.0,0.0,0.0,0.0,0.0,0.0,0.0,0.0,0.0,0.0,0.0,0.0,0.0,0.0,0.0,0.0,0.0,0.0,0.0,0.0,0.0,0.0,0.0,0.0,0.0,0.0,0.0,0.0,0.0,0.0,0.0,0.0,0.0,0.0,0.0,0.0,0.0,0.0,0.0,0.0,0.0,0.0,-2.7728,-2.8619,-2.9429,-3.0339,-3.088,-3.0801,-3.0801,-3.0801,-3.0801,-3.0801,0.0,0.0,0.0,0.0,0.0,0.0,0.0,0.0,0.0,0.0,0.0,0.0,0.0,0.0,0.0,0.0,0.0,0.0,0.0,0.0,0.0,0.0,0.0,0.0,0.0,0.0,0.0,0.0,0.0,0.0,0.0,0.0,0.0,0.0,0.0,0.0,0.0,0.0,0.0,0.0,0.0,0.0,0.0,0.0,0.0,0.0,0.0,0.0,0.0,0.0,0.0,0.0,0.0,0.0,0.0,0.0,0.0,0.0,0.0,0.0,0.0,0.0,0.0,0.0,0.0,0.0,0.0,0.0,0.0,0.0,0.0,0.0,0.0,0.0,0.0,0.0,0.0,0.0,0.0,0.0,0.0,0.0,0.0,0.0,0.0,0.0,0.0,0.0,0.0,0.0,0.0,0.0,0.0,0.0,0.0,0.0,0.0,0.0,0.0,0.0,0.0,0.0,-2.7759,-2.8633,-2.9517,-3.0374,-3.088,-3.0801,-3.0801,-3.0801,-3.0801,0.0,0.0,0.0,0.0,0.0,0.0,0.0,0.0,0.0,0.0,0.0,0.0,0.0,0.0,0.0,0.0,0.0,0.0,0.0,0.0,0.0,0.0,0.0,0.0,0.0,0.0,0.0,0.0,0.0,0.0,0.0,0.0,0.0,0.0,0.0,0.0,0.0,0.0,0.0,0.0,0.0,0.0,0.0,0.0,0.0,0.0,0.0,0.0,0.0,0.0,0.0,0.0,0.0,0.0,0.0,0.0,0.0,0.0,0.0,0.0,0.0,0.0,0.0,0.0,0.0,0.0,0.0,0.0,0.0,0.0,0.0,0.0,0.0,0.0,0.0,0.0,0.0,0.0,0.0,0.0,0.0,0.0,0.0,0.0,0.0,0.0,0.0,0.0,0.0,0.0,0.0,0.0,0.0,0.0,0.0,0.0,0.0,0.0,0.0,0.0,0.0,0.0,-2.7268,-2.7928,-2.875,-2.9882,-3.0526,-3.086,-3.0801,-3.0801,-3.0801,-3.0801,0.0,0.0,0.0,0.0,0.0,0.0,0.0,0.0,0.0,0.0,0.0,0.0,0.0,0.0,0.0,0.0,0.0,0.0,0.0,0.0,0.0,0.0,0.0,0.0,0.0,0.0,0.0,0.0,0.0,0.0,0.0,0.0,0.0,0.0,0.0,0.0,0.0,0.0,0.0,0.0,0.0,0.0,0.0,0.0,0.0,0.0,0.0,0.0,0.0,0.0,0.0,0.0,0.0,0.0,0.0,0.0,0.0,0.0,0.0,0.0,0.0,0.0,0.0,0.0,0.0,0.0,0.0,0.0,0.0,0.0,0.0,0.0,0.0,0.0,0.0,0.0,0.0,0.0,0.0,0.0,0.0,0.0,0.0,0.0,0.0,0.0,0.0,0.0,0.0,0.0,0.0,0.0,0.0,0.0,0.0,0.0,0.0,0.0,0.0,0.0,0.0,0.0,-2.8088,-2.8301,-2.8967,-3.0704,-3.0841,-3.0801,-3.0801,-3.0801,-3.0801,0.0,0.0,0.0,0.0,0.0,0.0,0.0,0.0,0.0,0.0,0.0,0.0,0.0,0.0,0.0,0.0,0.0,0.0,0.0,0.0,0.0,0.0,0.0,0.0,0.0,0.0,0.0,0.0,0.0,0.0,0.0,0.0,0.0,0.0,0.0,0.0,0.0,0.0,0.0,0.0,0.0,0.0,0.0,0.0,0.0,0.0,0.0,0.0,0.0,0.0,0.0,0.0,0.0,0.0,0.0,0.0,0.0,0.0,0.0,0.0,0.0,0.0,0.0,0.0,0.0,0.0,0.0,0.0,0.0,0.0,0.0,0.0,0.0,0.0,0.0,0.0,0.0,0.0,0.0,0.0,0.0,0.0,0.0,0.0,0.0,0.0,0.0,0.0,0.0,0.0,0.0,0.0,0.0,0.0,0.0,0.0,0.0,0.0,0.0,0.0,0.0,0.0,0.0,-2.8088,-2.8303,-2.8947,-3.0645,-3.0801,-3.0801,-3.0801,-3.0801,-3.0801,-3.0801,0.0,0.0,0.0,0.0,0.0,0.0,0.0,0.0,0.0,0.0,0.0,0.0,0.0,0.0,0.0,0.0,0.0,0.0,0.0,0.0,0.0,0.0,0.0,0.0,0.0,0.0,0.0,0.0,0.0,0.0,0.0,0.0,0.0,0.0,0.0,0.0,0.0,0.0,0.0,0.0,0.0,0.0,0.0,0.0,0.0,0.0,0.0,0.0,0.0,0.0,0.0,0.0,0.0,0.0,0.0,0.0,0.0,0.0,0.0,0.0,0.0,0.0,0.0,0.0,0.0,0.0,0.0,0.0,0.0,0.0,0.0,0.0,0.0,0.0,0.0,0.0,0.0,0.0,0.0,0.0,0.0,0.0,0.0,0.0,0.0,0.0,0.0,0.0,0.0,0.0,0.0,0.0,0.0,0.0,0.0,0.0,0.0,0.0,0.0,0.0,0.0,0.0,-2.8127,-2.8596,-2.9338,-3.0665,-3.0801,-3.0801,-3.0801,-3.0801,-3.0801,-3.0801,0.0,0.0,0.0,0.0,0.0,0.0,0.0,0.0,0.0,0.0,0.0,0.0,0.0,0.0,0.0,0.0,0.0,0.0,0.0,0.0,0.0,0.0,0.0,0.0,0.0,0.0,0.0,0.0,0.0,0.0,0.0,0.0,0.0,0.0,0.0,0.0,0.0,0.0,0.0,0.0,0.0,0.0,0.0,0.0,0.0,0.0,0.0,0.0,0.0,0.0,0.0,0.0,0.0,0.0,0.0,0.0,0.0,0.0,0.0,0.0,0.0,0.0,0.0,0.0,0.0,0.0,0.0,0.0,0.0,0.0,0.0,0.0,0.0,0.0,0.0,0.0,0.0,0.0,0.0,0.0,0.0,0.0,0.0,0.0,0.0,0.0,0.0,0.0,0.0,0.0,0.0,0.0,0.0,0.0,0.0,0.0,0.0,0.0,0.0,0.0,0.0,0.0,-2.8303,-2.9103,-2.9904,-3.0704,-3.0801,-3.0801,-3.0801,-3.0801,-3.0801,-3.0801,0.0,0.0,0.0,0.0,0.0,0.0,0.0,0.0,0.0,0.0,0.0,0.0,0.0,0.0,0.0,0.0,0.0,0.0,0.0,0.0,0.0,0.0,0.0,0.0,0.0,0.0,0.0,0.0,0.0,0.0,0.0,0.0,0.0,0.0,0.0,0.0,0.0,0.0,0.0,0.0,0.0,0.0,0.0,0.0,0.0,0.0,0.0,0.0,0.0,0.0,0.0,0.0,0.0,0.0,0.0,0.0,0.0,0.0,0.0,0.0,-3.1143,-3.0888,0.0,0.0,0.0,0.0,0.0,0.0,0.0,0.0,0.0,0.0,0.0,0.0,0.0,0.0,0.0,0.0,0.0,0.0,0.0,0.0,0.0,0.0,0.0,0.0,0.0,0.0,0.0,0.0,0.0,0.0,0.0,0.0,0.0,0.0,0.0,0.0,0.0,0.0,0.0,0.0,-2.9218,-2.9474,-2.9904,-3.0704,-3.0801,-3.0801,-3.0801,-3.0801,-3.0801,-3.0801,-3.0801,0.0,0.0,0.0,0.0,0.0,0.0,0.0,0.0,0.0,0.0,0.0,0.0,0.0,0.0,0.0,0.0,0.0,0.0,0.0,0.0,0.0,0.0,0.0,0.0,0.0,0.0,0.0,0.0,0.0,0.0,0.0,0.0,0.0,0.0,0.0,0.0,0.0,0.0,0.0,0.0,0.0,0.0,0.0,0.0,0.0,0.0,0.0,0.0,0.0,0.0,0.0,0.0,0.0,0.0,0.0,0.0,0.0,0.0,0.0,-3.1838,-3.1489,0.0,0.0,0.0,0.0,0.0,0.0,0.0,0.0,0.0,0.0,0.0,0.0,0.0,0.0,0.0,0.0,0.0,0.0,0.0,0.0,0.0,0.0,0.0,0.0,0.0,0.0,0.0,0.0,0.0,0.0,0.0,0.0,0.0,0.0,0.0,0.0,0.0,0.0,0.0,0.0,-2.9533,-2.9962,-3.0372,-3.0801,-3.086,-3.086,-3.086,-3.086,-3.086,-3.086,-3.086,0.0,0.0,0.0,0.0,0.0,0.0,0.0,0.0,0.0,0.0,0.0,0.0,0.0,0.0,0.0,0.0,0.0,0.0,0.0,0.0,0.0,0.0,0.0,0.0,0.0,0.0,0.0,0.0,0.0,0.0,0.0,0.0,0.0,0.0,0.0,0.0,0.0,0.0,0.0,0.0,0.0,0.0,0.0,0.0,0.0,0.0,0.0,0.0,0.0,0.0,0.0,0.0,0.0,-3.34,-3.3407,-3.3409,-3.3384,-3.3462,-3.3565,-3.2838,-3.2436,-3.2311,-3.2143,0.0,0.0,0.0,0.0,0.0,0.0,0.0,0.0,0.0,0.0,0.0,0.0,0.0,0.0,0.0,0.0,0.0,0.0,0.0,0.0,0.0,0.0,-3.0784,-3.0793,-3.0798,-3.0821,-3.0877,0.0,0.0,0.0,0.0,0.0,0.0,0.0,0.0,0.0,0.0,0.0,-2.9812,-3.0437,-3.0886,-3.0886,-3.0886,-3.0886,-3.0886,-3.0886,-3.0884,-3.0903,-3.0901,-3.0901,0.0,0.0,0.0,0.0,0.0,0.0,0.0,0.0,0.0,0.0,0.0,0.0,0.0,0.0,0.0,0.0,0.0,0.0,0.0,0.0,0.0,0.0,0.0,0.0,0.0,0.0,0.0,0.0,0.0,0.0,0.0,0.0,-3.0793,-3.0798,0.0,0.0,0.0,0.0,0.0,0.0,0.0,0.0,0.0,0.0,0.0,0.0,0.0,-3.3105,-3.3222,-3.3222,-3.3297,-3.3398,-3.3399,-3.34,-3.339,-3.3334,-3.3731,-3.4419,-3.4264,0.0,-3.3089,-3.2331,0.0,0.0,0.0,0.0,0.0,0.0,0.0,0.0,0.0,0.0,0.0,0.0,0.0,0.0,0.0,0.0,0.0,0.0,0.0,0.0,0.0,0.0,-3.073,-3.0784,-3.0804,-3.0802,-3.0819,-3.0857,-3.0897,-3.0903,-3.0901,-3.087,0.0,0.0,0.0,0.0,0.0,0.0,-3.0644,-3.0742,-3.08,-3.08,-3.08,-3.08,-3.08,-3.08,-3.0839,-3.0895,-3.0895,-3.0894,-3.0909,-3.0903,0.0,0.0,0.0,0.0,0.0,0.0,0.0,0.0,0.0,0.0,0.0,0.0,0.0,0.0,0.0,0.0,0.0,0.0,0.0,0.0,0.0,0.0,0.0,0.0,0.0,0.0,0.0,0.0,0.0,-3.1217,-3.1346,-3.0864,-3.1223,-3.134,0.0,0.0,0.0,0.0,0.0,0.0,0.0,0.0,0.0,-3.3395,-3.3392,-3.3865,-3.4842,-3.4856,-3.5103,-3.5581,-3.5539,-3.5279,-3.4792,-3.4737,-3.4904,-3.5266,-3.5208,-3.4958,-3.4587,-3.3743,-3.3087,-3.2585,0.0,0.0,0.0,0.0,-3.2019,-3.201,-3.201,-3.201,-3.1932,-3.1429,0.0,0.0,0.0,0.0,0.0,0.0,0.0,-3.0804,-3.1292,-3.1436,-3.1559,-3.2078,-3.2207,-3.221,-3.221,-3.2257,-3.2024,-3.1074,-3.0896,-3.0896,-3.0898,-3.0898,0.0,0.0,0.0,-3.0838,-3.0796,-3.0796,-3.0796,-3.0796,-3.0796,-3.0799,-3.0806,-3.0808,-3.0811,-3.0836,-3.084,-3.0858,-3.0894,-3.0905,-3.088,0.0,0.0,0.0,0.0,0.0,0.0,0.0,0.0,0.0,0.0,0.0,0.0,0.0,0.0,0.0,0.0,0.0,0.0,0.0,0.0,0.0,0.0,0.0,0.0,0.0,0.0,0.0,0.0,-3.1548,-3.187,-3.1208,-3.1908,-3.2172,0.0,0.0,0.0,0.0,0.0,0.0,-3.3709,-3.4159,-3.439,-3.4374,-3.4583,-3.5333,-3.664,-3.6645,-3.6969,-3.7613,-3.7545,-3.7176,-3.6547,-3.6472,-3.6431,-3.6405,-3.6367,-3.6377,-3.6261,-3.5,-3.4061,-3.3451,-3.3209,-3.3122,-3.3132,-3.3132,-3.3132,-3.3132,-3.3132,-3.3132,-3.3016,-3.2377,-3.2164,-3.2048,-3.1448,0.0,0.0,0.0,0.0,-3.1503,-3.2159,-3.2341,-3.2497,-3.316,-3.331,-3.331,-3.3301,-3.3346,-3.3005,-3.1784,-3.1362,-3.1208,-3.1208,-3.1029,0.0,-3.1103,-3.1129,-3.1211,-3.1408,-3.1266,-3.113,-3.113,-3.0935,-3.0808,-3.081,-3.081,-3.0798,-3.0794,-3.0793,-3.082,-3.0878,-3.0888,-3.088,-3.0801,0.0,0.0,0.0,0.0,0.0,0.0,0.0,0.0,0.0,0.0,0.0,0.0,0.0,0.0,0.0,0.0,0.0,0.0,0.0,0.0,0.0,0.0,0.0,0.0,0.0,0.0,0.0,0.0,0.0,-3.2031,-3.2793,0.0,0.0,0.0,0.0,-3.3339,-3.4101,-3.4588,-3.4627,-3.6202,-3.7066,-3.7007,-3.7812,-3.8285,-3.8363,-3.8377,-3.8403,-3.8442,-3.8361,-3.8324,-3.8272,-3.821,-3.8141,-3.8089,-3.8128,-3.8178,-3.7964,-3.5446,-3.441,-3.4351,-3.3519,-3.3189,-3.3197,-3.3197,-3.3197,-3.3197,-3.3197,-3.3197,-3.3197,-3.3139,-3.3139,-3.3119,-3.3081,-3.307,0.0,0.0,-3.3122,-3.3177,-3.3215,-3.3235,-3.3254,-3.3293,-3.3289,-3.331,-3.3304,-3.3303,-3.3307,-3.329,-3.2615,-3.2033,-3.2033,0.0,-3.1086,-3.1919,-3.2031,-3.2299,-3.3078,-3.2513,-3.2026,-3.2026,-3.1286,-3.0799,-3.0804,-3.0804,-3.0789,-3.081,-3.0791,-3.0792,-3.0801,-3.087,-3.088,-3.0801,-3.0801,0.0,0.0,0.0,0.0,0.0,0.0,0.0,0.0,0.0,0.0,0.0,0.0,0.0,0.0,0.0,0.0,0.0,0.0,0.0,0.0,0.0,0.0,0.0,0.0,0.0,0.0,0.0,0.0,-3.3008,-3.3711,0.0,-3.3455,-3.3396,-3.3866,-3.498,-3.5351,-3.6028,-3.7157,-3.7759,-3.8053,-3.804,-3.8299,-3.8708,-3.9259,-3.9225,-3.921,-3.9202,-3.917,-3.8879,-3.8325,-3.8267,-3.8255,-3.8266,-3.8294,-3.8294,-3.8237,-3.7288,-3.692,-3.691,-3.659,-3.6484,-3.6484,-3.6484,-3.6484,-3.6484,-3.6484,-3.6484,-3.6387,-3.5834,-3.4923,-3.4147,-3.4708,-3.4484,-3.4154,-3.4714,-3.4897,-3.5041,-3.5605,-3.5741,-3.5896,-3.644,-3.6584,-3.6573,-3.6569,-3.6137,-3.5755,-3.5788,-3.4213,-3.2864,-3.2864,-3.2606,-3.2504,-3.2834,-3.2867,-3.2978,-3.3252,-3.3057,-3.2662,-3.2104,-3.1754,-3.1352,-3.0775,-3.0742,-3.0753,-3.0808,-3.0802,-3.0791,-3.08,-3.0853,-3.088,-3.0801,-3.0801,-3.0801,0.0,0.0,0.0,0.0,0.0,0.0,0.0,0.0,0.0,0.0,0.0,0.0,0.0,0.0,0.0,0.0,0.0,0.0,0.0,0.0,0.0,0.0,0.0,0.0,0.0,-3.4392,-3.4922,-3.4355,-3.5312,-3.5781,-3.5215,-3.5156,-3.5625,-3.6794,-3.6886,-3.7373,-3.8505,-3.8799,-3.9052,-3.9295,-3.9548,-3.9941,-4.0498,-4.0461,-4.0296,-4.0005,-4.0004,-3.9693,-3.915,-3.9107,-3.9107,-3.9148,-3.9168,-3.9178,-3.9169,-3.918,-3.919,-3.9131,-3.854,-3.8307,-3.8336,-3.8336,-3.8336,-3.8336,-3.8336,-3.8336,-3.8239,-3.7657,-3.6726,-3.592,-3.65,-3.6267,-3.5937,-3.6509,-3.6673,-3.6809,-3.7392,-3.7547,-3.7683,-3.8266,-3.8402,-3.841,-3.8399,-3.7961,-3.7533,-3.7549,-3.5477,-3.3749,-3.3749,-3.349,-3.3406,-3.3686,-3.3738,-3.3848,-3.4112,-3.3898,-3.3483,-3.2905,-3.2594,-3.2089,-3.1209,-3.1132,-3.1035,-3.0784,-3.0789,-3.081,-3.0798,-3.0853,-3.088,-3.0801,-3.0801,-3.0801,-3.0801,0.0,0.0,0.0,0.0,0.0,0.0,0.0,0.0,0.0,0.0,0.0,0.0,0.0,0.0,0.0,0.0,0.0,0.0,0.0,0.0,0.0,0.0,0.0,-3.3754,-3.4977,-3.6055,-3.6074,-3.7578,-3.8594,-3.8594,-3.8594,-3.8611,-3.8668,-3.8678,-3.8675,-3.8658,-3.9455,-4.0229,-4.0965,-4.1801,-4.2198,-4.2133,-4.2133,-4.1718,-4.0884,-4.0889,-4.0878,-4.0878,-4.0878,-4.0878,-4.0839,-4.0915,-4.0927,-4.0907,-4.0898,-4.0907,-4.0733,-3.9044,-3.8423,-3.8479,-3.8479,-3.8479,-3.8479,-3.8479,-3.8479,-3.8479,-3.8479,-3.846,-3.8441,-3.846,-3.846,-3.8441,-3.846,-3.8479,-3.8479,-3.8479,-3.8479,-3.8479,-3.8479,-3.8479,-3.8479,-3.8479,-3.846,-3.8441,-3.8441,-3.6433,-3.4711,-3.4711,-3.4024,-3.3744,-3.4579,-3.4715,0.0,-3.5779,-3.5119,-3.4583,-3.4544,-3.3825,-3.2982,-3.2108,-3.2011,-3.1637,-3.08,-3.0781,-3.0793,-3.0796,-3.0855,-3.088,-3.0801,-3.0841,-3.0841,-3.0841,0.0,0.0,0.0,0.0,0.0,0.0,0.0,0.0,0.0,0.0,0.0,0.0,0.0,0.0,0.0,0.0,0.0,0.0,0.0,0.0,0.0,-3.6523,-3.6776,-3.6307,-3.664,-3.7187,-3.7812,-3.8301,-3.8593,-3.8602,-3.8596,-3.9091,-4.032,-4.0413,-4.0935,-4.2123,-4.2373,-4.2558,-4.2703,-4.2892,-4.2981,-4.2963,-4.2963,-4.2847,-4.2615,-4.2647,-4.2698,-4.2698,-4.2683,-4.2377,-4.1817,-4.1828,-4.148,-4.0898,-4.0907,-4.0907,-4.0849,-4.0374,-4.0208,-4.0208,-4.0208,-4.0208,-4.0208,-4.0208,-4.0208,-4.0208,-4.0208,-3.982,-3.9451,-4.0033,-3.98,-3.947,-4.0053,-4.0208,-4.0208,-4.0208,-4.0208,-4.0208,-4.0208,-4.0208,-4.0208,-4.0208,-3.9742,-3.9334,-3.9334,-3.8274,-3.735,-3.735,-3.7156,-3.7078,-3.7322,-3.7361,-3.7447,-3.7669,-3.6931,-3.6161,-3.5574,-3.4757,-3.3887,-3.3028,-3.24,-3.1977,-3.1729,-3.1143,-3.0793,-3.0797,-3.0855,-3.088,-3.0801,-3.1426,-3.1738,0.0,0.0,0.0,0.0,0.0,0.0,0.0,0.0,0.0,0.0,0.0,0.0,0.0,0.0,0.0,0.0,0.0,0.0,0.0,0.0,0.0,0.0,-3.7555,-3.8471,-3.8842,-3.8881,-3.9076,-3.9584,-4.0287,-4.0732,-4.0737,-4.071,-4.1097,-4.2066,-4.2123,-4.2525,-4.3517,-4.3481,-4.3602,-4.3889,-4.3853,-4.3847,-4.3853,-4.384,-4.3679,-4.3344,-4.3388,-4.34,-4.34,-4.3397,-4.3147,-4.2692,-4.2722,-4.2257,-4.1432,-4.1432,-4.1238,-4.0907,0.0,0.0,0.0,0.0,-4.0907,-4.0907,-4.0907,-4.0907,-4.0907,-4.0907,-4.0577,-4.0286,-4.0752,-4.0577,-4.0305,-4.0771,-4.0907,-4.0907,-4.0907,-4.0907,-4.0907,-4.0907,-4.0907,-4.0907,-4.0907,-4.0538,-4.0208,-4.0208,-3.9781,0.0,-3.9451,-3.8848,-3.8402,-3.8402,-3.8402,-3.8391,-3.8397,-3.7957,-3.735,-3.6527,-3.5996,-3.519,-3.394,-3.3414,0.0,0.0,0.0,-3.1887,-3.1894,-3.1923,0.0,0.0,0.0,-3.2636,-3.2656,-3.3515,0.0,0.0,-3.3339,-3.3604,0.0,0.0,0.0,0.0,0.0,0.0,0.0,0.0,0.0,0.0,0.0,0.0,0.0,0.0,0.0,0.0,-3.8918,-4.0235,-4.1109,-4.1402,-4.1484,-4.139,-4.2756,-4.3693,-4.3693,-4.3629,-4.363,-4.3727,-4.3665,-4.3675,-4.3782,-4.3712,0.0,0.0,0.0,-4.475,-4.475,-4.475,-4.4388,-4.3676,-4.3687,-4.3687,-4.3687,-4.3702,-4.3635,-4.3557,-4.3617,-4.3141,-4.2345,-4.2345,-4.1879,-4.1179,-4.0985,-4.0907,-4.0907,-4.0907,-4.0966,-4.1043,-4.1043,0.0,0.0,-4.1199,-4.1121,-4.1043,-4.1043,-4.0985,-4.0907,-4.0907,-4.0907,-4.0927,-4.1024,-4.1043,-4.1063,-4.1179,-4.1121,-4.1043,-4.1043,-4.0966,-4.0907,-4.0907,-4.0907,-4.0907,-4.0907,-3.9664,-3.8674,-3.8674,-3.8674,-3.8682,-3.8688,-3.8614,-3.8279,-3.7564,-3.7319,0.0,-3.5047,-3.4715,-3.4306,-3.3594,-3.3456,-3.3398,-3.3398,-3.3398,-3.3398,-3.3398,-3.3495,-3.3554,-3.3554,-3.4413,-3.4842,-3.4822,-3.4042,-3.4111,0.0,0.0,0.0,0.0,0.0,0.0,0.0,0.0,0.0,0.0,0.0,0.0,0.0,0.0,0.0,-3.9207,-4.0123,-4.1065,-4.1945,-4.3284,-4.3916,-4.3275,-4.3454,-4.3617,-4.3617,-4.3564,-4.3821,-4.4517,-4.4511,-4.478,-4.549,-4.5452,-4.5493,-4.5641,-4.5654,-4.5654,-4.5641,-4.5641,-4.5576,-4.5421,-4.5475,0.0,-4.5506,-4.549,-4.5142,-4.4529,-4.454,-4.4054,-4.3258,-4.3258,-4.3161,-4.2869,-4.1451,-4.0907,-4.0907,-4.0907,-4.1335,-4.1956,-4.1956,-4.2403,-4.3005,-4.3005,-4.252,-4.1956,-4.1956,-4.1451,0.0,-4.0907,-4.0907,-4.1063,-4.1762,-4.1956,-4.2131,-4.283,-4.2461,-4.1956,-4.1956,-4.1393,-4.0907,-4.0907,-4.0907,-4.0907,-4.0907,-4.0635,-4.0422,-4.0422,-4.0422,-4.044,-4.0501,-3.9882,-3.9416,-3.931,-3.8081,-3.7131,-3.6812,-3.5485,-3.4606,-3.445,-3.3788,-3.3406,-3.3398,-3.3398,-3.3398,-3.3398,-3.4081,-3.4452,-3.4452,-3.533,-3.5759,-3.574,-3.5584,-3.5594,0.0,0.0,0.0,0.0,0.0,0.0,0.0,0.0,0.0,0.0,0.0,-3.8025,-3.8419,0.0,-4.005,-4.0901,-4.2093,-4.305,-4.349,-4.4637,-4.5151,-4.4396,-4.4635,-4.4853,-4.4853,-4.4783,-4.4918,-4.5366,-4.5334,-4.5514,-4.5972,-4.6351,-4.6358,-4.5905,-4.6319,-4.637,-4.5949,-4.5949,-4.5941,-4.5953,-4.5975,-4.5994,-4.5994,-4.5997,-4.5783,-4.5394,-4.5394,-4.4928,-4.4112,-4.3685,-4.351,-4.3413,-4.2539,-4.2209,-4.2209,-4.2209,-4.2481,-4.285,-4.285,-4.3141,-4.351,-4.351,-4.3219,-4.285,-4.285,-4.2558,-4.2209,-4.2209,-4.2209,-4.2306,-4.2733,-4.285,-4.2966,-4.3394,-4.318,-4.2733,-4.2287,-4.1859,-4.1412,-4.0985,-4.0907,-4.0907,-4.0907,-4.0907,-4.0907,-4.0907,-4.0907,-4.0926,-4.0988,-4.0609,-4.0214,-3.9838,-3.9083,-3.8242,-3.7378,-3.6108,-3.5346,-3.5346,-3.4947,-3.4703,-3.4703,-3.4703,-3.4703,-3.4703,-3.5135,-3.5349,-3.5349,-3.5798,-3.5991,-3.5991,-3.5991,-3.6004,0.0,0.0,0.0,0.0,0.0,0.0,0.0,0.0,-3.791,-3.8793,-3.9098,-3.9422,-4.0073,-4.1032,-4.1995,-4.2886,-4.4142,-4.5074,-4.5259,-4.5686,-4.5784,-4.519,-4.5695,-4.6084,-4.6113,-4.6046,-4.6003,-4.5986,-4.5941,-4.5917,-4.5991,-4.6751,-4.6797,-4.5956,-4.6771,-4.6822,-4.6003,-4.6177,-4.6247,-4.6249,-4.6424,-4.6424,-4.6249,-4.6249,-4.6152,-4.5997,-4.5997,-4.5627,-4.4986,-4.4287,-4.3996,-4.3996,-4.3996,-4.3996,-4.3957,-4.3627,-4.3607,-4.3743,-4.3743,-4.386,-4.3996,-4.3996,-4.3879,-4.3743,-4.3743,-4.3627,-4.351,-4.351,-4.351,-4.3549,-4.3704,-4.3743,-4.3802,-4.3957,-4.3879,-4.3569,-4.285,-4.2558,-4.2189,-4.1315,-4.114,-4.114,-4.114,-4.114,-4.1102,-4.0927,-4.0907,-4.0926,-4.0988,-4.1006,-4.0766,-4.0111,-3.9951,-3.9178,-3.7441,-3.6501,-3.5991,-3.5991,-3.5991,-3.5991,-3.5991,-3.5991,-3.5991,-3.5991,-3.5991,-3.5991,-3.5991,-3.5991,-3.5991,-3.5991,-3.5991,-3.6007,-3.5554,-3.5516,-3.573,-3.6598,-3.689,-3.7377,0.0,0.0,-3.9579,-4.0454,-4.1254,-4.1809,-4.1897,-4.3228,-4.4575,-4.544,-4.5689,-4.6065,-4.6903,-4.643,-4.5975,-4.589,-4.5949,-4.6037,-4.6085,-4.6035,-4.6003,-4.6003,-4.5949,-4.5886,-4.5917,-4.6719,-4.6829,-4.6011,-4.6826,-4.6876,-4.6016,-4.6773,-4.7162,-4.7162,-4.7939,-4.79,-4.7143,-4.7143,-4.6735,-4.5997,-4.5997,-4.5938,-4.5861,-4.5763,-4.5725,-4.5725,-4.5725,-4.5725,-4.553,-4.4054,-4.3996,-4.4656,-4.4656,-4.5122,-4.5725,-4.5725,-4.5239,-4.4656,-4.4656,-4.4112,-4.351,-4.351,-4.351,-4.3685,-4.4443,-4.4656,-4.4831,-4.555,-4.5161,-4.4637,-4.452,-4.3899,-4.3102,-4.2209,-4.2053,-4.2053,-4.2053,-4.2053,-4.1781,-4.1024,-4.0907,-4.0926,-4.0988,-4.1006,-4.0986,-4.0955,-4.0264,-3.9139,-3.7441,-3.6501,-3.5991,-3.5991,-3.5991,-3.5991,-3.5991,-3.5991,-3.5991,-3.5991,-3.5991,-3.5991,-3.5991,-3.5991,-3.5991,-3.5991,-3.5991,-3.6007,-3.5033,-3.5771,-3.6714,-3.7568,-3.817,-3.8986,-4.0665,-4.1053,-4.1305,-4.2179,-4.2634,-4.3186,-4.4156,-4.4928,-4.5854,-4.7191,-4.6952,-4.6745,-4.7172,-4.6487,-4.5956,-4.6014,-4.5994,-4.6014,-4.6035,-4.5972,-4.596,-4.5991,-4.596,-4.596,-4.5964,-4.7264,-4.7633,-4.6771,-4.8091,-4.8394,-4.7512,-4.7861,-4.8055,-4.8055,-4.8425,-4.8133,-4.7298,-4.7298,-4.6812,-4.5997,-4.5997,-4.5997,-4.5997,-4.5997,-4.5997,-4.5997,-4.5997,-4.5997,-4.5919,-4.52,-4.5181,-4.5491,-4.5491,-4.5725,-4.5997,-4.5997,-4.5763,-4.5491,-4.5491,-4.5239,-4.4948,-4.4948,-4.4948,-4.5045,-4.5394,-4.5491,-4.5569,-4.5919,-4.5744,-4.5375,-4.4889,-4.4501,-4.3996,-4.3122,-4.2966,-4.2966,-4.2966,-4.2966,-4.283,-4.2481,-4.1985,-4.1507,-4.1069,-4.1039,-4.1061,-4.1099,-4.0351,-3.9364,-3.8163,-3.7262,-3.654,-3.603,-3.5991,-3.5991,-3.5991,-3.5991,-3.5991,-3.5991,-3.5991,-3.5991,-3.5991,-3.6501,-3.6501,-3.601,-3.6521,-3.6479,-3.5049,-3.6251,-3.7627,-3.8713,-3.9644,-4.0729,-4.2435,-4.2823,-4.3063,-4.3916,-4.4078,-4.4446,-4.5648,-4.6067,-4.6635,-4.7835,-4.753,-4.7143,-4.7184,-4.6461,-4.5944,-4.5983,-4.6003,-4.6003,-4.6003,-4.5972,-4.5941,-4.6003,-4.6216,-4.6247,-4.6016,-4.7881,-4.8444,-4.7337,-4.8988,-4.9473,-4.8599,-4.8832,-4.8949,-4.8949,-4.9202,-4.8735,-4.7648,-4.7162,-4.6599,-4.5997,-4.5997,-4.5997,-4.5997,-4.5997,-4.5997,-4.5997,-4.5997,-4.5997,-4.5997,-4.5997,-4.5997,-4.5997,-4.5997,-4.5997,-4.5997,-4.5997,-4.5997,-4.5997,-4.5997,-4.5997,-4.5997,-4.5997,-4.5997,-4.5997,-4.5997,-4.5997,-4.5997,-4.5997,-4.5997,-4.5841,-4.5258,-4.5122,-4.487,-4.4015,-4.386,-4.386,-4.386,-4.386,-4.386,-4.386,-4.3325,-4.2544,-4.1485,-4.1201,-4.1101,-4.1094,-4.0166,-3.9292,-3.8651,-3.7575,-3.6677,-3.603,-3.5991,-3.5991,-3.5991,-3.5991,-3.5991,-3.5991,-3.6247,-3.6364,-3.6364,-3.7223,-3.7321,-3.6735,-3.7126,-3.697,-3.6484,-3.7569,-3.8655,-4.0303,-4.1369,-4.2485,-4.4219,-4.4626,-4.4846,-4.5654,-4.5815,-4.5815,-4.5814,-4.6477,-4.7076,-4.7134,-4.7163,-4.7204,-4.7191,-4.6511,-4.6003,-4.5997,-4.5997,-4.5997,-4.5997,-4.5997,-4.5997,-4.5997,-4.6773,-4.689,-4.6055,-4.8444,-4.9066,-4.7356,-4.8988,-4.9473,-4.8599,-4.9435,-4.9862,-4.9862,-5.0717,-5.0212,-4.8502,-4.6812,-4.6035,-4.5997,-4.5997,-4.5997,-4.5997,-4.5997,-4.5997,-4.5997,-4.5997,-4.5997,-4.5997,-4.5997,-4.5997,-4.5997,-4.5997,-4.5997,-4.5997,-4.5997,-4.5997,-4.5997,-4.5997,-4.5997,-4.5997,-4.5997,-4.5997,-4.5997,-4.5997,-4.5997,-4.5997,-4.5997,-4.5997,-4.5977,-4.5958,-4.5958,-4.5725,-4.4928,-4.4753,-4.4753,-4.4753,-4.4753,-4.4753,-4.4753,-4.4744,-4.4137,-4.2478,-4.1585,-4.1093,-4.1091,-3.9617,-3.8632,-3.8593,-3.7028,-3.603,-3.5991,-3.5991,-3.5991,-3.5991,-3.5991,-3.5991,-3.5991,-3.6833,-3.7262,-3.7262,-3.8141,-3.8553,-3.8495,-3.7672,-3.7282,-3.6542,-3.8442,-4.0516,-4.2815,-4.4036,-4.5142,-4.6816,-4.6778,-4.6448,-4.6707,-4.5893,-4.526,-4.5764,-4.5628,-4.5615,-4.6162,-4.6286,-4.6332,-4.6351,-4.6135,-4.6003,-4.5997,-4.5997,-4.5997,-4.5997,-4.5997,-4.5997,-4.5997,-4.6268,-4.656,-4.6851,-4.825,-4.9027,-4.9027,-5.0153,-5.0619,-5.0328,-5.0619,-5.0755,-5.0755,-4.9881,-4.9163,-4.8561,-4.7395,-4.7181,-4.7725,-4.7725,-4.7395,-4.6851,-4.6851,-4.6521,-4.5997,-4.5997,-4.5997,-4.5997,-4.5997,-4.5997,-4.5997,-4.5997,-4.5997,-4.5997,-4.5997,-4.5997,-4.5997,-4.5997,-4.5997,-4.5997,-4.5997,-4.5997,-4.5997,-4.5997,-4.5997,-4.5997,-4.5997,-4.5997,-4.5997,-4.5997,-4.5997,-4.5919,-4.5647,-4.5589,-4.5589,-4.5589,-4.5629,-4.5483,-4.4943,-4.3872,-4.2948,-4.2436,-4.1633,-4.1093,-4.1101,-4.0606,-3.98,-3.869,-3.8063,-3.7223,-3.6069,-3.654,-3.6852,-3.6852,-3.7419,-3.7731,-3.7731,-3.8004,-3.816,-3.816,-3.898,-3.9117,-3.8612,-3.8843,-3.8355,-3.7424,-3.9597,-4.1925,-4.4517,-4.5825,-4.6756,-4.7823,-4.7648,-4.7054,-4.6453,-4.52,-4.4296,-4.4504,-4.4073,-4.3866,-4.4389,-4.5041,-4.5466,-4.5471,-4.5778,-4.5994,-4.5997,-4.5997,-4.5997,-4.5997,-4.5997,-4.5997,-4.5997,-4.6288,-4.6715,-4.7279,-4.8425,-4.9318,-4.9881,-5.0755,-5.1202,-5.1202,-5.1202,-5.1047,-5.0717,-4.8968,-4.8308,-4.8561,-4.7706,-4.7784,-4.858,-4.8269,-4.7822,-4.7279,-4.6968,-4.6502,-4.5997,-4.5997,-4.5997,-4.5997,-4.5997,-4.5997,-4.5997,-4.5997,-4.5997,-4.5997,-4.5997,-4.5997,-4.5997,-4.5997,-4.5997,-4.5997,-4.5997,-4.5997,-4.5997,-4.5997,-4.5997,-4.5997,-4.5997,-4.5997,-4.5997,-4.5997,-4.5997,-4.6007,-4.6037,-4.6037,-4.6037,-4.6037,-4.6095,-4.5955,-4.5436,-4.415,-4.3022,-4.2468,-4.164,-4.1108,-4.1091,-4.0812,-4.0207,-3.9117,-3.8765,-3.8121,-3.7009,-3.7458,-3.775,-3.775,-3.8297,-3.8593,-3.8593,-3.8882,-3.9039,-3.9039,-3.9858,-3.9995,-3.9507,-3.9702,-3.9078,-3.912,-4.1043,-4.2928,-4.5433,-4.6696,-4.7317,-4.7356,-4.7298,-4.6743,-4.5052,-4.3934,-4.3012,0.0,0.0,-4.1916,-4.1959,-4.3404,-4.4521,-4.4575,-4.5364,-4.5938,-4.5938,-4.5958,-4.5997,-4.5997,-4.5997,-4.5997,-4.5997,-4.6773,-4.7279,-4.7356,-4.893,-4.9862,-4.9959,-5.0775,-5.1183,-5.1125,-5.1086,-5.0639,-4.9745,-4.8094,-4.7725,-4.8502,-4.7686,-4.7784,-4.8541,-4.7725,-4.7337,-4.724,-4.6404,-4.6035,-4.5997,-4.5997,-4.5997,-4.5997,-4.5997,-4.5997,-4.5997,-4.5997,-4.5997,-4.5997,-4.5997,-4.5997,-4.5997,-4.5997,-4.5997,-4.5997,-4.5997,-4.5997,-4.5997,-4.5997,-4.5997,-4.5997,-4.6007,-4.6007,-4.6007,-4.6007,-4.6007,-4.6017,-4.6095,-4.6105,-4.6095,-4.6107,-4.6166,-4.6196,-4.6201,-4.5457,-4.4338,-4.2731,-4.1736,-4.1175,-4.1166,-4.0395,-3.9848,-3.9797,-3.9097,-3.8632,-3.8593,-3.8632,-3.8671,-3.8671,-3.871,-3.8729,-3.8729,-3.9488,-3.9878,-3.9878,-4.0698,-4.1108,-4.1088,-4.0249,-3.9409,-4.0869,-4.2811,-4.4598,-4.6482,-4.7143,-4.7473,-4.8114,-4.7259,-4.6035,-4.4995,-4.3053,-4.1277,-4.0392,-3.9703,-3.948,-4.0128,-4.1147,-4.21,-4.2751,-4.415,-4.5103,-4.5103,0.0,-4.5997,-4.5997,-4.5997,-4.5997,-4.5997,-4.621,-4.689,-4.8191,-4.8696,-4.9532,-5.0833,-5.1086,-5.0891,-5.0231,-4.959,-4.8832,-4.7958,-4.7512,-4.7414,-4.7628,-4.7395,-4.7784,-4.858,-4.8366,-4.79,-4.7279,-4.7065,-4.6599,-4.5997,-4.5997,-4.5997,-4.5997,-4.5997,-4.5997,-4.5997,-4.5997,-4.5997,-4.5997,-4.5997,-4.5997,-4.5997,-4.5997,-4.5997,-4.5997,-4.5997,-4.5997,-4.5997,-4.5997,-4.5997,-4.6007,-4.6066,-4.6066,-4.6076,-4.6075,-4.6075,-4.6075,-4.6104,-4.6095,-4.6122,-4.6176,-4.6192,-4.6195,-4.6205,-4.5507,-4.4804,-4.4315,-4.2971,-4.2069,-4.2061,-4.1285,-4.0508,-3.9868,-3.9602,-3.9234,-3.8632,-3.9156,-3.9488,-3.9488,-4.0112,-4.0464,-4.0464,-4.0659,-4.0776,-4.0776,-4.0991,-4.1108,-4.1088,-4.0873,-3.9995,-4.1704,-4.3461,-4.52,-4.689,-4.7007,-4.6851,-4.7356,-4.6133,-4.4559,-4.3335,-4.1335,-3.9548,-3.8656,-3.8394,-3.8481,0.0,0.0,0.0,-4.2131,-4.3694,-4.4792,0.0,-4.5511,0.0,-4.5997,-4.5997,-4.5997,-4.5997,-4.5997,-4.6754,-4.8502,-4.8599,-4.9396,-5.1144,-5.0833,-5.0212,-4.9337,-4.8463,-4.7784,-4.7298,-4.6909,-4.6929,-4.7298,-4.7298,-4.7784,-4.858,-4.8191,-4.7745,-4.7279,-4.689,-4.6443,-4.5997,-4.5997,-4.5997,-4.5997,-4.5997,-4.5997,-4.5997,-4.5997,-4.5997,-4.5997,-4.5997,-4.5997,-4.5997,-4.5997,-4.5997,-4.5997,-4.5997,-4.5997,-4.6007,-4.6037,-4.6037,-4.6047,-4.6085,-4.6095,-4.6104,-4.6093,-4.6093,-4.6102,-4.6138,-4.6146,-4.6176,-4.623,-4.6234,-4.6246,-4.6249,-4.5854,-4.5553,-4.5528,-4.3684,-4.2393,-4.2403,-4.1627,-4.0894,-4.0411,-4.0363,-4.0171,-3.9722,-4.0112,-4.0366,-4.0366,-4.0834,-4.1108,-4.1108,-4.1108,-4.1108,-4.1108,-4.1108,-4.1108,-4.1108,-4.1108,-4.0385,-4.208,-4.346,-4.4995,-4.6568,-4.6297,-4.5627,-4.553,-4.4287,-4.2656,-4.0927,-3.9315,-3.7955,-3.7081,-3.751,-3.8025,-3.8207,0.0,-4.1732,-4.1859,-4.3355,-4.4501,-4.4617,-4.5356,-4.588,-4.5977,-4.5997,-4.5997,-4.5997,-4.5997,-4.6715,-4.8347,-4.8541,-4.9357,-5.0989,-5.0173,-4.9299,-4.8444,-4.757,-4.7123,-4.7123,-4.6366,-4.6404,-4.7123,-4.7123,-4.755,-4.8211,-4.7453,-4.7123,-4.7065,-4.6307,-4.5997,-4.5997,-4.5997,-4.5997,-4.5997,-4.5997,-4.5997,-4.5997,-4.5997,-4.5997,-4.5997,-4.5997,-4.5997,-4.5997,-4.5997,-4.6007,-4.6007,-4.6007,-4.6007,-4.6037,-4.6076,-4.6105,-4.6095,-4.6113,-4.6102,-4.6102,-4.6111,-4.6111,-4.6127,-4.6203,-4.6203,-4.6231,-4.629,-4.6306,-4.6308,-4.6301,-4.629,-4.6296,-4.6284,-4.4109,-4.2571,-4.2578,-4.1681,-4.11,-4.1094,-4.1104,-4.1108,-4.1108,-4.1108,-4.1108,-4.1108,-4.1108,-4.1108,-4.1108,-4.1108,-4.1108,-4.1108,-4.1108,-4.1108,-4.1108,-4.1108,-4.062,-4.2757,-4.3416,-4.3893,-4.489,-4.4505,-4.3673,-4.3014,-4.2073,0.0,0.0,-3.8033,-3.7061,-3.6187,-3.614,-3.647,-3.7217,-3.8305,-3.9315,-4.0033,-4.1587,-4.2928,0.0,-4.4481,-4.5258,-4.5938,-4.5997,-4.5997,-4.5997,-4.5997,-4.6443,-4.7473,-4.8211,-4.9066,-5.0095,-4.9279,-4.8405,-4.7531,-4.6657,-4.623,-4.621,-4.6074,-4.6074,-4.623,-4.623,-4.6307,-4.6443,-4.6288,-4.623,-4.621,-4.6055,-4.5997,-4.5997,-4.5997,-4.5997,-4.5997,-4.5997,-4.5997,-4.5997,-4.5997,-4.5997,-4.5997,-4.5997,-4.5997,-4.5997,-4.5997,-4.6037,-4.6076,-4.6076,-4.6085,-4.6084,-4.6113,-4.6093,-4.6113,-4.6177,-4.6174,-4.6176,-4.619,-4.6183,-4.6195,-4.6275,-4.6275,-4.6288,-4.6301,-4.6307,-4.6307,-4.6309,-4.6303,-4.6273,-4.6216,-4.4616,-4.3461,-4.3475,-4.2041,-4.109,-4.1094,-4.1104,-4.1108,-4.1108,-4.1108,-4.1108,-4.1108,-4.1108,-4.1108,-4.1108,-4.1108,-4.1108,-4.1108,-4.1108,-4.1108,-4.1108,-4.1108,-4.062,-4.2373,-4.3044,-4.3501,-4.3928,-4.3028,-4.1964,-4.1606,0.0,0.0,0.0,-3.7023,-3.6304,-3.5877,-3.6168,0.0,-3.7023,-3.7819,-3.8693,-3.9587,-4.0752,-4.184,-4.2714,-4.3996,-4.4948,-4.5336,-4.5744,-4.5997,-4.5997,-4.5997,-4.6385,-4.7259,-4.8133,-4.858,-4.8541,-4.8133,-4.7512,-4.6638,-4.621,-4.5997,-4.5997,-4.5997,-4.5997,-4.5997,-4.5997,-4.5997,-4.5997,-4.5997,-4.5997,-4.5997,-4.5997,-4.5997,-4.5997,-4.5997,-4.5997,-4.5997,-4.5997,-4.5997,-4.5997,-4.5997,-4.5997,-4.6007,-4.6037,-4.6026,-4.6007,-4.6037,-4.6066,-4.6105,-4.6095,-4.6104,-4.6122,-4.613,-4.6138,-4.6154,-4.6196,-4.5839,-4.552,-4.5513,-4.5518,-4.5548,-4.5616,-4.5987,-4.6288,-4.6301,-4.6307,-4.6308,-4.6303,-4.6305,-4.6285,-4.6261,-4.5112,-4.415,-4.3734,-4.2139,-4.109,-4.109,-4.1101,-4.1108,-4.1108,-4.1108,-4.1108,-4.1108,-4.1108,-4.1108,-4.1108,-4.1108,-4.1108,-4.1108,-4.1108,-4.1108,-4.1108,-4.1108,-4.0873,-4.1575,-4.2323,-4.285,-4.285,-4.1668,-4.0438,-4.013,-3.853,0.0,-3.6859,-3.6276,-3.5799,-3.5799,-3.6362,-3.6828,0.0,-3.7547,-3.8363,-3.9043,-4.0014,-4.0966,-4.182,-4.3452,0.0,-4.4773,-4.553,-4.5997,-4.5997,-4.5997,-4.6385,-4.7259,-4.7958,-4.8017,-4.7317,-4.7298,-4.689,-4.6016,-4.5997,-4.5997,-4.5997,-4.5997,-4.5997,-4.5997,-4.5997,-4.5997,-4.5997,-4.5997,-4.5997,-4.5997,-4.5997,-4.5997,-4.5997,-4.5997,-4.588,-4.5744,-4.5744,-4.5608,-4.5453,-4.5453,-4.5599,-4.5754,-4.5804,-4.5911,-4.6037,-4.6076,-4.6114,-4.6123,-4.6122,-4.6111,-4.6127,-4.6181,-4.6196,-4.6157,-4.5975,-4.5421,-4.4865,-4.467,-4.4631,-4.4655,-4.4703,-4.5269,-4.5804,-4.5983,-4.6028,-4.609,-4.6268,-4.6305,-4.63,-4.6297,-4.5492,-4.4681,-4.4052,-4.2422,-4.13,-4.1121,-4.1104,-4.1108,-4.1108,-4.1108,-4.1108,-4.1108,-4.1108,-4.1108,-4.1108,-4.1108,-4.1108,-4.1108,-4.1108,-4.1108,-4.1108,-4.1108,-4.1108,-4.0687,-4.0977,-4.1035,-4.1035,-4.0324,-3.9212,-3.7702,0.0,-3.6871,-3.6075,-3.586,-3.5799,-3.5799,-3.5877,-3.5915,-3.5915,0.0,-3.7256,-3.7333,-3.8771,-4.0111,-4.0927,0.0,0.0,-4.4715,-4.553,-4.5997,-4.5997,-4.5997,-4.6385,-4.7259,-4.7376,-4.7376,-4.7298,-4.7298,-4.689,-4.6016,-4.5997,-4.5997,-4.5997,-4.5997,-4.5997,-4.5997,-4.5997,-4.5997,-4.5997,-4.5997,-4.5997,-4.5997,-4.5997,-4.5997,-4.5997,-4.5997,-4.555,-4.4909,-4.4909,-4.4404,-4.3724,-4.3724,-4.4249,-4.4909,-4.4929,-4.5454,-4.6085,-4.6104,-4.6149,-4.6185,-4.6189,-4.6183,-4.6183,-4.6195,-4.6201,-4.6011,-4.528,-4.505,-4.4762,-4.3974,-4.3817,-4.3821,-4.3821,-4.3879,-4.4192,-4.4972,-4.5112,-4.5386,-4.6189,-4.6308,-4.6304,-4.63,-4.5527,-4.4962,-4.4896,-4.3327,-4.1952,-4.1164,-4.1097,-4.1108,-4.1108,-4.1108,-4.1108,-4.1108,-4.1108,-4.1108,-4.1108,-4.1108,-4.1108,-4.1108,-4.1108,-4.1108,-4.1108,-4.1108,-4.1108,-3.9495,-3.963,-3.9359,-3.9881,-3.8965,-3.7622,-3.6471,0.0,-3.5398,-3.5078,-3.5027,-3.518,-3.5696,-3.5801,-3.5624,0.0,0.0,0.0,-3.6246,-3.6906,-3.8071,-3.9956,-4.1218,-4.2287,-4.3141,-4.4462,-4.5472,-4.5958,-4.5997,-4.6152,-4.6502,-4.6521,-4.6521,-4.6521,-4.6521,-4.6346,-4.5997,-4.5997,-4.5997,-4.5997,-4.5997,-4.5997,-4.5997,-4.5997,-4.5997,-4.5997,-4.5997,-4.5997,-4.5958,-4.5472,-4.5278,-4.522,-4.4695,-4.4307,-4.4015,-4.4016,-4.3802,-4.351,-4.3548,-4.3791,-4.4072,-4.4089,-4.467,-4.5476,-4.6002,-4.6174,-4.6189,-4.6209,-4.6209,-4.6201,-4.6206,-4.5841,-4.5401,-4.5078,-4.4204,-4.3345,-4.2982,-4.2923,-4.2923,-4.2923,-4.3333,-4.3801,-4.4153,-4.4211,-4.4504,-4.5382,-4.5479,-4.5655,-4.617,-4.5936,-4.5514,-4.5,-4.3423,-4.2262,-4.1913,-4.1404,-4.1101,-4.1111,-4.1108,-4.1108,-4.1108,-4.1108,-4.1108,-4.1108,-4.1108,-4.1108,-4.1108,-4.1108,-4.1108,-4.1108,-4.1108,-4.1108,-3.7889,-3.8295,-3.8295,-3.8644,-3.7618,-3.6323,0.0,0.0,-3.4052,-3.4109,-3.4311,-3.46,-3.4969,-3.5238,-3.5138,0.0,0.0,-3.4439,-3.5294,-3.5643,-3.6576,-3.8674,-4.0092,-4.114,-4.1762,-4.3627,-4.5122,-4.5938,-4.5997,-4.5997,-4.5997,-4.5997,-4.5997,-4.5997,-4.5997,-4.5997,-4.5997,-4.5997,-4.5997,-4.5997,-4.5997,-4.5997,-4.5997,-4.5997,-4.5997,-4.5997,-4.5997,-4.5861,-4.5589,-4.5025,-4.4656,-4.4345,-4.3743,-4.3335,-4.3122,-4.3131,-4.2965,-4.2771,-4.2816,-4.3,-4.3222,-4.3226,-4.3812,-4.4683,-4.5553,-4.6008,-4.6196,-4.6215,-4.603,-4.5845,-4.5845,-4.523,-4.4551,-4.4286,-4.3294,-4.2337,-4.2064,-4.2025,-4.2025,-4.2025,-4.2513,-4.3001,-4.3274,-4.3313,-4.3704,-4.4832,-4.4933,-4.5206,-4.6084,-4.6196,-4.5962,-4.5358,-4.3773,-4.265,-4.2385,-4.1599,-4.1093,-4.1105,-4.1101,-4.1101,-4.1097,-4.1097,-4.1094,-4.1108,-4.1108,-4.1108,-4.1108,-4.1108,-4.1091,-4.1097,-4.1099,-4.1099,-3.5723,-3.6942,-3.8005,-3.7135,-3.6303,-3.5472,0.0,0.0,-3.3219,-3.3219,-3.3895,-3.4232,-3.3378,-3.3918,-3.4245,-3.3448,-3.3313,0.0,-3.44,-3.5255,-3.6129,0.0,-3.9353,-4.0907,-4.0907,-4.3277,-4.5122,-4.5938,-4.5997,-4.5997,-4.5997,-4.5997,-4.5997,-4.5997,-4.5997,-4.5997,-4.5997,-4.5997,-4.5997,-4.5997,-4.5997,-4.5997,-4.5997,-4.5997,-4.5997,-4.5997,-4.5997,-4.555,-4.4812,-4.4792,-4.4287,-4.351,-4.351,-4.2966,-4.2218,-4.2218,-4.1702,-4.103,-4.1027,-4.1595,-4.2318,-4.2312,-4.289,-4.3785,-4.466,-4.5523,-4.6211,-4.6279,-4.5687,-4.5012,-4.5012,-4.4367,-4.3509,-4.263,-4.2415,-4.2162,-4.1303,-4.1108,-4.1108,-4.1108,-4.1127,-4.14,-4.2259,-4.2415,-4.2998,-4.4742,-4.4943,-4.5206,-4.6092,-4.6209,-4.6196,-4.6196,-4.4631,-4.3231,-4.2377,-4.156,-4.1105,-4.1091,-4.1094,-4.1093,-4.109,-4.109,-4.1105,-4.1111,-4.1108,-4.1108,-4.1108,-4.1108,-4.1099,-4.109,-4.1093,-4.1093,-3.4485,-3.4756,-3.4795,-3.5104,-3.4543,-3.3692,-3.2822,0.0,-3.2232,-3.2232,-3.2511,-3.2809,-3.3139,-3.3464,-3.339,-3.2555,-3.2419,0.0,0.0,0.0,0.0,-3.7683,-3.9703,-4.1121,-4.1723,-4.2539,-4.3627,-4.5064,-4.5181,-4.5414,-4.5958,-4.5997,-4.5997,-4.5997,-4.5997,-4.5997,-4.5997,-4.5997,-4.5997,-4.5997,-4.5997,-4.5997,-4.5997,-4.5997,-4.5997,-4.5958,-4.5414,-4.5045,-4.4715,-4.351,-4.285,-4.2558,-4.2014,-4.1615,-4.139,-4.1385,-4.1225,-4.1011,-4.1046,-4.1253,-4.1473,-4.1485,-4.2066,-4.2822,-4.3119,-4.4231,-4.5382,-4.5414,-4.5203,-4.4855,-4.427,-4.3469,-4.2747,-4.2474,-4.1947,-4.1439,-4.1166,-4.1108,-4.1108,-4.1108,-4.1108,-4.1186,-4.1459,-4.1518,-4.21,-4.3845,-4.409,-4.4582,-4.6014,-4.6209,-4.6196,-4.6201,-4.463,-4.35,-4.322,-4.19,-4.1091,-4.1096,-4.1097,-4.1108,-4.1097,-4.1107,-4.1093,-4.1093,-4.1092,-4.1091,-4.1091,-4.1093,-4.1094,-4.109,-4.1105,-4.1103,0.0,-3.3267,-3.3218,-3.377,-3.3247,0.0,0.0,-3.1565,-3.1352,-3.1352,-3.1641,-3.1967,-3.218,-3.2543,-3.2516,-3.1642,-3.1797,-3.2302,0.0,0.0,-3.541,-3.8518,-3.982,-4.0907,-4.2092,-4.2189,-4.2792,-4.421,-4.4307,-4.4676,-4.5491,-4.555,-4.5686,-4.5977,-4.5997,-4.5997,-4.5997,-4.5997,-4.5997,-4.5997,-4.5997,-4.5997,-4.5997,-4.5997,-4.5822,-4.5511,-4.5025,-4.4423,0.0,-4.2656,-4.2015,-4.1655,-4.1187,-4.101,-4.0991,-4.0991,-4.1006,-4.1013,-4.1084,-4.1095,-4.11,-4.1096,-4.1694,-4.2409,-4.2409,-4.3384,-4.4516,-4.4501,-4.427,-4.3899,-4.3352,-4.2552,-4.1908,-4.1908,-4.1498,-4.1108,-4.1108,-4.1108,-4.1108,-4.1108,-4.1108,-4.1108,-4.1108,-4.1108,-4.169,-4.3435,-4.37,-4.4309,-4.5975,-4.6209,-4.6196,-4.6201,-4.465,-4.3604,-4.3604,-4.2046,-4.1071,-4.1071,-4.107,-4.1061,-4.1072,-4.107,-4.1062,-4.1052,-4.1058,-4.106,-4.106,-4.1052,-4.1062,-4.1051,-4.1066,-4.1066,0.0,-3.2309,-3.2908,-3.2908,-3.2309,0.0,0.0,0.0,0.0,-3.0598,-3.1234,-3.156,-3.0737,-3.1321,-3.1661,-3.0904,-3.1467,-3.2322,-3.3254,-3.4886,-3.6906,-3.9412,-3.9761,-4.0402,-4.1956,-4.2112,-4.2461,-4.3335,-4.3413,-4.3782,-4.4656,-4.4715,-4.5045,-4.5813,-4.589,-4.5949,-4.5997,-4.5997,-4.5997,-4.5997,-4.5938,-4.5899,-4.5899,-4.5841,-4.5414,-4.4695,-4.4637,-4.3704,-4.2189,-4.2131,-4.1626,-4.0907,-4.0982,-4.101,-4.0991,-4.1018,-4.1013,-4.102,-4.1089,-4.11,-4.1106,-4.1109,-4.1647,-4.2318,-4.2318,-4.2962,-4.3684,-4.3626,-4.3021,-4.2396,-4.2318,-4.1713,-4.1108,-4.1108,-4.1108,-4.1108,-4.1108,-4.1108,-4.1108,-4.1108,-4.1108,-4.1108,-4.1108,-4.1108,-4.169,-4.3435,-4.37,-4.4309,-4.5975,-4.619,-4.6183,-4.6105,-4.4598,-4.3565,-4.35,-4.1961,-4.1007,-4.1007,-4.1007,-4.1007,-4.1007,-4.1007,-4.1007,-4.1007,-4.0994,-4.0994,-4.1007,-4.0993,-4.0999,-4.0999,-4.1,-4.1007,-3.083,0.0,-3.1197,-3.1197,-3.1023,-3.0888,0.0,0.0,0.0,0.0,0.0,0.0,-3.064,-3.0816,-3.1156,-3.1623,-3.1875,-3.2516,-3.4012,-3.6284,-3.8266,-3.9548,-4.0247,-4.0771,-4.116,-4.1218,-4.1568,-4.2442,-4.25,-4.2889,-4.3763,-4.3821,-4.3889,-4.4083,-4.4725,-4.5376,-4.5977,-4.5997,-4.5997,-4.5977,-4.5375,-4.5084,-4.5064,-4.4384,-4.3976,-4.3763,-4.3102,-4.2578,-4.2151,-4.1471,-4.1082,-4.0907,-4.0971,-4.1007,-4.1015,-4.1071,-4.1084,-4.107,-4.1096,-4.1105,-4.1109,-4.1101,-4.1244,-4.14,-4.14,-4.2474,-4.3567,-4.2884,-4.2552,-4.2259,-4.1576,-4.1244,-4.1108,-4.1108,-4.1108,-4.1108,-4.1108,-4.1108,-4.1108,-4.1108,-4.1108,-4.1108,-4.1108,-4.1108,-4.169,-4.3435,-4.3708,-4.4304,-4.5991,-4.6201,-4.5942,-4.5286,-4.4228,-4.3325,-4.2649,-4.1622,-4.1011,-4.1011,-4.0996,-4.1007,-4.1007,-4.0999,-4.0993,-4.0993,-4.1007,-4.1007,-4.0993,-4.1006,-4.0999,-4.1003,-4.1003,-4.1011,-3.0598,-3.0598,-3.0598,-3.0598,-3.0598,-3.0598,0.0,0.0,0.0,0.0,0.0,0.0,0.0,0.0,0.0,-3.1914,-3.2652,-3.3876,-3.5993,-3.7858,-3.9315,-4.015,-4.0635,-4.0907,-4.0907,-4.0907,-4.1102,-4.1568,-4.1607,-4.1976,-4.2869,-4.2908,-4.3093,-4.349,-4.3957,-4.4598,-4.5434,-4.5843,-4.5843,-4.5434,-4.5007,-4.4618,-4.422,-4.3753,-4.3325,-4.2917,-4.246,-4.2013,-4.1604,-4.1138,-4.0954,-4.0954,-4.0996,-4.1003,-4.1003,-4.1078,-4.1095,-4.11,-4.1105,-4.1097,-4.1101,-4.1108,-4.1108,-4.1108,-4.1108,-4.1752,-4.2415,-4.1947,-4.1791,-4.1693,-4.1225,-4.1108,-4.1108,-4.1108,-4.1108,-4.1108,-4.1108,-4.1108,-4.1108,-4.1108,-4.1108,-4.1108,-4.1108,-4.1108,-4.1557,-4.2896,-4.3107,-4.3587,-4.487,-4.506,-4.4855,-4.4351,-4.3551,-4.2857,-4.2337,-4.1498,-4.0988,-4.0999,-4.0963,-4.0945,-4.0945,-4.0952,-4.0949,-4.0949,-4.0957,-4.0957,-4.0949,-4.0949,-4.096,-4.0943,-4.0943,-4.0943,-3.0598,-3.0598,-3.0598,-3.0598,-3.0598,-3.0598,0.0,0.0,0.0,0.0,0.0,0.0,0.0,-3.1491,0.0,0.0,-3.3798,-3.576,-3.8246,-3.9237,-3.9994,-4.0791,-4.0907,-4.0946,-4.1082,-4.0985,-4.0966,-4.1082,-4.0985,-4.1218,-4.1956,-4.2005,-4.2364,-4.3101,-4.3246,-4.3664,-4.4409,-4.5285,-4.5354,-4.4615,-4.4478,-4.407,-4.34,-4.3264,-4.2797,-4.2105,-4.2105,-4.1677,-4.0996,-4.0996,-4.1007,-4.0999,-4.0991,-4.0999,-4.1011,-4.1084,-4.11,-4.11,-4.1109,-4.1101,-4.1108,-4.1108,-4.1108,-4.1108,-4.1108,-4.1108,-4.1108,-4.1108,-4.1108,-4.1108,-4.1108,-4.1108,-4.1108,-4.1108,-4.1108,-4.1108,-4.1108,-4.1108,-4.1108,-4.1108,-4.1108,-4.1108,-4.1108,-4.1108,-4.14,-4.2279,-4.2409,-4.2713,-4.3595,-4.3704,-4.3631,-4.344,-4.2811,-4.2311,-4.2116,-4.1412,-4.1007,-4.0982,-4.0917,-4.0907,-4.0907,-4.0907,-4.0907,-4.0907,-4.0907,-4.0907,-4.0907,-4.0907,-4.0907,-4.0907,-4.0907,-4.0907,-3.0598,-3.0598,-3.0598,-3.0598,-3.0598,-3.0607,0.0,0.0,0.0,0.0,0.0,0.0,0.0,-3.186,-3.2458,0.0,-3.5566,-3.7353,-3.9237,-3.9625,-3.9994,-4.0791,-4.0907,-4.1199,-4.1917,-4.1335,-4.1218,-4.1937,-4.1315,-4.0966,-4.1082,-4.114,-4.1244,-4.1377,-4.2101,-4.2544,-4.2675,-4.3561,-4.3925,-4.377,-4.3039,-4.2611,-4.2474,-4.1735,-4.1326,-4.121,-4.121,-4.1112,-4.0996,-4.0996,-4.0996,-4.0996,-4.0999,-4.1006,-4.1013,-4.1075,-4.1091,-4.1096,-4.1101,-4.1108,-4.1108,-4.1108,-4.1108,-4.1108,-4.1108,-4.1108,-4.1108,-4.1108,-4.1108,-4.1108,-4.1108,-4.1108,-4.1108,-4.1108,-4.1108,-4.1108,-4.1108,-4.1108,-4.1108,-4.1108,-4.1108,-4.1108,-4.1108,-4.1108,-4.14,-4.2279,-4.2393,-4.2705,-4.3587,-4.37,-4.34,-4.2656,-4.2481,-4.207,-4.1276,-4.1073,-4.098,-4.0917,-4.0907,-4.0907,-4.0907,-4.0907,-4.0907,-4.0907,-4.0907,-4.0907,-4.0907,-4.0907,-4.0907,-4.0907,-4.0907,-4.0907,-3.0598,-3.0598,-3.0598,-3.0598,-3.0607,-3.0606,-3.0595,0.0,0.0,0.0,0.0,0.0,0.0,0.0,-3.341,-3.5566,-3.6964,-3.8246,-3.9528,-4.0072,-4.0499,-4.0869,-4.0907,-4.1063,-4.1451,-4.114,-4.1063,-4.1471,-4.1121,-4.0907,-4.0907,-4.0954,-4.0999,-4.0996,-4.1388,-4.1617,-4.1656,-4.2059,-4.25,-4.2948,-4.2552,-4.211,-4.1637,-4.1247,-4.1052,-4.1052,-4.1052,-4.1052,-4.1052,-4.1046,-4.1039,-4.1006,-4.1039,-4.102,-4.1007,-4.1072,-4.1109,-4.1097,-4.1104,-4.1108,-4.1108,-4.1108,-4.1108,-4.1108,-4.1108,-4.1108,-4.1108,-4.1108,-4.1108,-4.1108,-4.1108,-4.1108,-4.1108,-4.1108,-4.1108,-4.1108,-4.1108,-4.1108,-4.1108,-4.1108,-4.1108,-4.1108,-4.1108,-4.1108,-4.1244,-4.1635,-4.1693,-4.183,-4.224,-4.2298,-4.2135,-4.1739,-4.17,-4.1504,-4.1042,-4.0996,-4.098,-4.0888,-4.0907,-4.0907,-4.0907,-4.0907,-4.0907,-4.0907,-4.0907,-4.0907,-4.0907,-4.0907,-4.0907,-4.0907,-4.0907,-4.0907,-3.0598,-3.0598,-3.0598,-3.0607,0.0,-3.0604,-3.0604,0.0,0.0,0.0,0.0,0.0,0.0,-3.3177,-3.4653,-3.7023,-3.7955,-3.8771,-3.9839,-4.0519,-4.0907,-4.0907,-4.0917,-4.0994,-4.1189,-4.1033,-4.1003,-4.1217,-4.1042,-4.0926,-4.0917,-4.0768,-4.0696,-4.0704,-4.0512,-4.0435,-4.0487,-4.0485,-4.1022,-4.2109,-4.2105,-4.1759,-4.1091,-4.0901,-4.0803,-4.0803,-4.0803,-4.0803,-4.0799,-4.1028,-4.1075,-4.1019,-4.1084,-4.1064,-4.1031,-4.1085,-4.1101,-4.1108,-4.1108,-4.1108,-4.1108,-4.1108,-4.1108,-4.1108,-4.1108,-4.1108,-4.1108,-4.1108,-4.1108,-4.1108,-4.1108,-4.1108,-4.1108,-4.1108,-4.1108,-4.1108,-4.1108,-4.1108,-4.1108,-4.1108,-4.1108,-4.1108,-4.1108,-4.1108,-4.1108,-4.1108,-4.1108,-4.1108,-4.1108,-4.1108,-4.1101,-4.1096,-4.1091,-4.107,-4.1003,-4.0988,-4.0971,-4.0936,-4.0907,-4.0907,-4.0907,-4.0907,-4.0907,-4.0907,-4.0907,-4.0907,-4.0907,-4.0907,-4.0907,-4.0907,-4.0907,-4.0907,-3.0598,-3.0598,-3.0607,-3.0606,-3.0595,0.0,-3.0602,-3.0637,0.0,-3.0703,0.0,0.0,0.0,-3.4536,-3.6207,-3.8013,-3.8363,-3.8965,-4.0597,-4.0869,-4.0907,-4.0907,-4.0945,-4.1293,-4.2023,-4.1427,-4.1318,-4.2135,-4.1455,-4.098,-4.0982,-4.0225,-3.9785,-3.9789,-3.9065,-3.8675,-3.8694,-3.8683,-3.9531,-4.1192,-4.1184,-4.1154,-4.1072,-4.0257,-3.9887,-3.9887,-3.9887,-3.9887,-3.9965,-4.076,-4.1091,-4.1091,-4.1091,-4.11,-4.109,-4.1094,-4.1101,-4.1108,-4.1108,-4.1108,-4.1108,-4.1108,-4.1108,-4.1108,-4.1108,-4.1108,-4.1108,-4.1108,-4.1108,-4.1108,-4.1108,-4.1108,-4.1108,-4.1108,-4.1108,-4.1108,-4.1108,-4.1108,-4.1108,-4.1108,-4.1108,-4.1108,-4.1108,-4.1108,-4.1108,-4.1108,-4.1108,-4.1108,-4.1108,-4.1108,-4.1101,-4.1096,-4.1091,-4.107,-4.1003,-4.0935,-4.0926,-4.0982,-4.0926,-4.0907,-4.0907,-4.0907,-4.0907,-4.0907,-4.0907,-4.0907,-4.0907,-4.0907,-4.0907,-4.0907,-4.0907,-4.0907,-3.0597,-3.0606,-3.0606,-3.0593,0.0,0.0,0.0,-3.0688,-3.0858,-3.1409,-3.1506,0.0,0.0,-3.5002,-3.6187,-3.7392,-3.8052,-3.881,-3.9994,-4.0577,-4.0917,-4.0954,-4.0982,-4.1127,-4.1427,-4.1182,-4.1132,-4.1463,-4.119,-4.0754,-4.0229,-3.9882,-3.9468,-3.8974,-3.8663,-3.8505,-3.8492,-3.8493,-3.8833,-3.9481,-3.9533,-3.9809,-4.0258,-3.9439,-3.9048,-3.9048,-3.9048,-3.9048,-3.9087,-3.9353,-3.9798,-4.0344,-4.089,-4.1109,-4.1094,-4.1101,-4.1104,-4.1108,-4.1108,-4.1108,-4.1108,-4.1108,-4.1108,-4.1108,-4.1108,-4.1108,-4.1108,-4.1108,-4.1108,-4.1108,-4.1108,-4.1108,-4.1108,-4.1108,-4.1108,-4.1108,-4.1108,-4.1108,-4.1108,-4.1108,-4.1108,-4.1108,-4.1108,-4.1108,-4.1108,-4.1108,-4.1108,-4.1108,-4.1108,-4.1108,-4.1101,-4.1096,-4.105,-4.1026,-4.0999,-4.0988,-4.0971,-4.1007,-4.0982,-4.0954,-4.0952,-4.0952,-4.0952,-4.0952,-4.0952,-4.0952,-4.0952,-4.0954,-4.0954,-4.0954,-4.0917,-4.0907,-3.0595,-3.0595,-3.0604,0.0,0.0,0.0,-3.0707,-3.0703,-3.0943,-3.1817,-3.2419,-3.3138,-3.4284,-3.5216,-3.609,-3.6964,-3.7605,-3.8382,-3.9548,-4.0169,-4.0645,-4.0963,-4.0991,-4.1007,-4.1003,-4.1018,-4.0928,-4.0629,-4.0616,-4.024,-3.9376,-3.9059,-3.8656,-3.8105,-3.7831,-3.7687,-3.7683,-3.7698,-3.7843,-3.8128,-3.7884,-3.8355,-3.939,-3.857,-3.818,-3.818,-3.818,-3.818,-3.8219,-3.8447,-3.8873,-3.9517,-4.0356,-4.0688,-4.0727,-4.101,-4.1108,-4.1049,-4.0795,-4.0873,-4.1049,-4.0776,-4.0873,-4.1108,-4.1108,-4.1108,-4.1108,-4.1108,-4.1108,-4.1108,-4.1108,-4.1108,-4.1108,-4.1108,-4.1108,-4.1108,-4.1108,-4.1108,-4.1108,-4.1108,-4.1108,-4.1108,-4.1108,-4.1108,-4.1108,-4.1108,-4.1108,-4.1108,-4.1108,-4.1108,-4.1101,-4.1096,-4.1039,-4.1006,-4.1006,-4.1011,-4.0996,-4.1003,-4.0996,-4.0996,-4.0996,-4.0996,-4.0996,-4.0996,-4.0996,-4.0996,-4.0996,-4.0999,-4.101,-4.1002,-4.0917,-4.0907,-3.0595,-3.0595,-3.0632,0.0,0.0,0.0,-3.071,-3.069,-3.0943,-3.1836,-3.3351,-3.4517,-3.4517,-3.5216,-3.609,-3.6945,-3.7081,-3.7702,-3.9431,-3.9684,-4.0004,-4.0866,-4.0988,-4.0984,-4.0986,-4.1039,-4.0725,-3.9842,-3.9789,-3.9413,-3.8539,-3.7662,-3.7188,-3.7183,-3.6326,-3.5875,-3.587,-3.5942,-3.6399,-3.725,-3.6398,-3.6891,-3.8553,-3.7692,-3.7282,-3.7282,-3.7282,-3.7282,-3.736,-3.8238,-3.8593,-3.8671,-3.9468,-3.98,-3.9897,-4.0756,-4.1088,-4.0952,-4.0093,-4.0346,-4.0932,-4.0073,-4.0385,-4.1088,-4.1088,-4.1088,-4.1088,-4.1088,-4.1088,-4.1088,-4.1088,-4.1088,-4.1108,-4.1108,-4.1108,-4.1108,-4.1108,-4.1108,-4.1108,-4.1108,-4.1108,-4.1108,-4.1108,-4.1108,-4.1108,-4.1108,-4.1108,-4.1108,-4.1108,-4.1108,-4.1101,-4.1096,-4.1039,-4.1006,-4.1006,-4.1011,-4.1003,-4.1006,-4.1,-4.0993,-4.0996,-4.0996,-4.0996,-4.0996,-4.0996,-4.0996,-4.0996,-4.0999,-4.101,-4.1002,-4.0917,-4.0907,-3.0657,-3.0665,0.0,-3.0695,0.0,0.0,0.0,-3.0703,0.0,0.0,-3.4245,-3.541,-3.541,-3.5632,-3.5873,-3.6145,-3.6705,-3.7277,-3.7802,-3.8397,-3.8902,-3.9213,-3.9194,-3.9201,-3.9247,-3.9252,-3.9165,-3.8906,-3.8897,-3.8512,-3.763,-3.6791,-3.607,-3.5461,-3.4608,-3.4144,-3.4137,-3.416,-3.4615,-3.5464,-3.5213,-3.5994,-3.7653,-3.6774,-3.6384,-3.6384,-3.6384,-3.6384,-3.6443,-3.7321,-3.7692,-3.777,-3.8629,-3.9292,-3.9761,-3.9449,-3.9702,-4.0073,-3.9234,-3.9136,-3.9292,-3.9039,-3.9507,-4.0073,-3.9507,-3.9741,-4.0073,-3.9507,-3.9741,-4.019,-4.019,-4.0639,-4.1108,-4.1108,-4.1108,-4.1108,-4.1108,-4.1108,-4.1108,-4.1108,-4.1108,-4.1108,-4.1108,-4.1108,-4.1108,-4.1108,-4.1108,-4.1108,-4.1108,-4.1104,-4.1097,-4.1109,-4.1072,-4.1075,-4.1075,-4.107,-4.107,-4.1075,-4.1061,-4.1075,-4.1078,-4.1064,-4.107,-4.107,-4.1078,-4.1078,-4.1071,-4.1011,-4.1007,-4.1007,-4.0926,-4.0907,-3.0673,-3.07,0.0,-3.071,-3.071,-3.0695,-3.0665,0.0,0.0,0.0,-3.3821,-3.4781,-3.4797,-3.4812,-3.4917,-3.5274,-3.5755,-3.6345,-3.7,-3.7557,-3.8031,-3.8455,-3.8468,-3.8468,-3.8494,-3.8497,-3.8351,-3.8,-3.7698,-3.7121,-3.6243,-3.542,-3.4737,-3.4191,-3.3665,-3.3395,-3.3402,-3.3402,-3.3662,-3.4178,-3.4178,-3.4725,-3.5759,-3.5916,-3.5991,-3.5991,-3.5991,-3.5991,-3.603,-3.6579,-3.6774,-3.6872,-3.7731,-3.8375,-3.8785,-3.8648,-3.8902,-3.9195,-3.8375,-3.8316,-3.8534,-3.8199,-3.8648,-3.9234,-3.8746,-3.8941,-3.9214,-3.8746,-3.8941,-3.9312,-3.9312,-3.9956,-4.0678,-4.101,-4.1108,-4.1108,-4.1108,-4.1108,-4.1108,-4.1108,-4.1108,-4.1108,-4.1108,-4.1108,-4.1108,-4.1108,-4.1108,-4.1108,-4.1108,-4.1101,-4.1094,-4.1094,-4.11,-4.1091,-4.1091,-4.1091,-4.1091,-4.1091,-4.11,-4.11,-4.1091,-4.1091,-4.1091,-4.1106,-4.11,-4.1095,-4.1103,-4.1018,-4.0996,-4.0996,-4.0926,-4.0907,-3.068,0.0,0.0,-3.071,-3.0695,0.0,-3.0604,-3.1204,-3.1792,-3.1875,-3.2602,-3.3211,-3.3269,-3.3303,-3.3563,-3.4341,-3.4484,-3.5048,-3.6657,-3.6871,-3.7228,-3.8144,-3.8261,-3.8267,-3.8266,-3.8195,-3.7839,-3.7039,-3.6228,-3.5415,-3.4615,-3.377,-3.3275,-3.3275,-3.3197,-3.3161,-3.3152,-3.3152,-3.3194,-3.328,-3.328,-3.3319,-3.3456,-3.5115,-3.5913,-3.5991,-3.5991,-3.5991,-3.5991,-3.5991,-3.5991,-3.6069,-3.6872,-3.7223,-3.7399,-3.8102,-3.8414,-3.8355,-3.7477,-3.7692,-3.8238,-3.7438,-3.777,-3.8475,-3.8394,-3.8414,-3.8475,-3.8394,-3.8414,-3.8475,-3.8475,-3.9078,-3.9917,-4.0776,-4.103,-4.1108,-4.1108,-4.1108,-4.1108,-4.1108,-4.1108,-4.1108,-4.1108,-4.1108,-4.1108,-4.1108,-4.1108,-4.1108,-4.1108,-4.1101,-4.1074,-4.0996,-4.0988,-4.094,-4.0881,-4.0862,-4.0862,-4.0862,-4.0875,-4.0918,-4.0976,-4.1066,-4.1091,-4.11,-4.11,-4.1109,-4.1091,-4.1038,-4.0996,-4.0996,-4.0926,-4.0907,-3.0703,-3.0703,0.0,0.0,-3.0653,-3.0604,-3.055,-3.0665,-3.1004,-3.1738,-3.2587,-3.3206,-3.3211,-3.3262,-3.3368,-3.3544,-3.3613,-3.3999,-3.5001,-3.5137,-3.5469,-3.6351,-3.6462,-3.6462,-3.647,-3.588,-3.5444,-3.5256,-3.4443,-3.3883,-3.3688,-3.2846,-3.2377,-3.2377,-3.1714,-3.1362,-3.1365,-3.1365,-3.1697,-3.2383,-3.2383,-3.2734,-3.3437,-3.4491,-3.5349,-3.5991,-3.5991,-3.5991,-3.5991,-3.5991,-3.5991,-3.601,-3.6208,-3.6696,-3.7243,-3.6735,-3.6989,-3.7458,-3.6579,-3.6404,-3.654,-3.6345,-3.6872,-3.7458,-3.6774,-3.7048,-3.7438,-3.6755,-3.7048,-3.7575,-3.7575,-3.8219,-3.9058,-3.9878,-4.06,-4.1108,-4.1108,-4.1108,-4.1108,-4.1108,-4.1108,-4.1108,-4.1108,-4.1108,-4.1108,-4.1108,-4.1108,-4.1108,-4.1108,-4.1108,-4.0831,-4.0148,-4.0086,-3.9813,-3.9188,-3.9133,-3.9133,-3.9133,-3.9133,-3.9426,-4.005,-4.0734,-4.1097,-4.1105,-4.1096,-4.1106,-4.1089,-4.1025,-4.0996,-4.0996,-4.0926,-4.0907,0.0,0.0,0.0,-3.0703,0.0,-3.0586,-3.0569,-3.052,-3.0645,-3.1139,-3.1594,-3.1912,-3.1956,-3.1969,-3.2162,-3.2597,-3.2731,-3.3064,-3.3857,-3.4013,-3.4194,-3.4647,-3.47,-3.4706,-3.4705,-3.4328,-3.4082,-3.4089,-3.3275,-3.2773,-3.2773,-3.1953,-3.1485,-3.1485,-3.1036,-3.0801,-3.0801,-3.0801,-3.1036,-3.1485,-3.1485,-3.1934,-3.2812,-3.3671,-3.4334,-3.4761,-3.4761,-3.4761,-3.4761,-3.4761,-3.4761,-3.4761,-3.4761,-3.5291,-3.5994,-3.5545,-3.5935,-3.6618,-3.6169,-3.5991,-3.5991,-3.5991,-3.6306,-3.6599,-3.615,-3.6325,-3.6579,-3.613,-3.6325,-3.6677,-3.6677,-3.7321,-3.8082,-3.8492,-3.9566,-4.0581,-4.101,-4.1108,-4.1108,-4.1108,-4.1108,-4.1108,-4.1108,-4.1108,-4.1108,-4.1108,-4.1108,-4.1108,-4.1108,-4.1108,-4.0776,-3.9897,-3.98,-3.9468,-3.8671,-3.8593,-3.8593,-3.8593,-3.8593,-3.8961,-3.9761,-4.0249,-4.0672,-4.1085,-4.1096,-4.1106,-4.1103,-4.1032,-4.1003,-4.0996,-4.0963,-4.0936,0.0,0.0,-3.069,-3.0695,-3.0665,0.0,-3.0597,-3.0569,-3.0501,-3.05,-3.05,-3.0511,-3.0576,-3.0591,-3.0836,-3.1637,-3.1806,-3.2141,-3.2959,-3.3126,-3.322,-3.3366,-3.3385,-3.339,-3.3407,-3.3259,-3.3184,-3.3188,-3.2374,-3.1873,-3.1873,-3.1189,-3.0796,-3.0796,-3.0799,-3.0799,-3.0799,-3.0799,-3.0801,-3.0801,-3.0801,-3.1172,-3.1895,-3.2617,-3.3124,-3.3398,-3.3398,-3.3398,-3.3398,-3.3398,-3.3398,-3.3398,-3.3398,-3.3846,-3.4471,-3.4471,-3.494,-3.5542,-3.5542,-3.5542,-3.5581,-3.574,-3.5779,-3.5798,-3.5952,-3.5991,-3.5991,-3.5991,-3.5991,-3.5991,-3.5991,-3.654,-3.7106,-3.7262,-3.8355,-3.9644,-4.0659,-4.0991,-4.1108,-4.1108,-4.1108,-4.1108,-4.1108,-4.1108,-4.1108,-4.1108,-4.1108,-4.1108,-4.1108,-4.0971,-4.0542,-3.9683,-3.9468,-3.9039,-3.8219,-3.8141,-3.8141,-3.8141,-3.8141,-3.857,-3.9546,-3.9585,-4.0063,-4.1076,-4.1096,-4.11,-4.1091,-4.1039,-4.0999,-4.0996,-4.0999,-4.0954,0.0,0.0,-3.0691,0.0,-3.0697,-3.0668,0.0,0.0,-3.0577,-3.0501,-3.0491,-3.0501,-3.0511,-3.0511,-3.0567,-3.0765,-3.0831,-3.1197,-3.2052,-3.2182,-3.2466,-3.3223,-3.3301,-3.3331,-3.3395,-3.2717,-3.2272,-3.226,-3.1464,-3.0977,-3.0977,-3.0859,-3.0801,-3.0801,-3.081,-3.0794,-3.0794,-3.0799,-3.0801,-3.0801,-3.0801,-3.086,-3.0977,-3.1094,-3.1973,-3.3398,-3.3398,-3.3398,-3.3398,-3.3398,-3.3398,-3.3398,-3.3398,-3.3476,-3.3573,-3.3573,-3.3651,-3.3749,-3.3749,-3.3749,-3.3866,-3.4627,-3.4861,-3.5018,-3.5779,-3.5991,-3.5991,-3.5991,-3.5991,-3.5991,-3.5991,-3.6088,-3.6364,-3.7126,-3.7477,-3.8063,-3.9624,-4.0561,-4.1108,-4.1108,-4.1108,-4.1108,-4.1108,-4.1108,-4.1108,-4.1108,-4.1108,-4.1108,-4.1108,-4.0444,-3.9663,-3.8843,-3.8082,-3.7282,-3.6423,-3.6345,-3.6345,-3.6345,-3.6345,-3.7067,-3.8687,-3.8765,-3.9504,-4.107,-4.11,-4.1106,-4.1095,-4.1026,-4.0999,-4.0996,-4.0999,-4.0954,-2.9891,-3.0036,-3.0146,0.0,-3.0704,-3.0698,-3.0658,-3.0664,-3.0634,-3.0574,-3.053,-3.0492,-3.05,-3.051,-3.0511,-3.054,-3.0593,-3.0781,-3.1165,-3.1227,-3.1365,-3.1793,-3.1845,-3.1857,-3.1879,-3.1529,-3.132,-3.1325,-3.0955,-3.074,-3.074,-3.075,-3.0754,-3.0798,-3.079,-3.0801,-3.0794,-3.0796,-3.0799,-3.0801,-3.0801,-3.0801,-3.0801,-3.0801,-3.1211,-3.1934,-3.1934,-3.1934,-3.1934,-3.1934,-3.1934,-3.1934,-3.1934,-3.2246,-3.2675,-3.2675,-3.2988,-3.3398,-3.3398,-3.3398,-3.3456,-3.3846,-3.3964,-3.4042,-3.4432,-3.4546,-3.4546,-3.4546,-3.4546,-3.4546,-3.4546,-3.492,-3.5369,-3.5759,-3.6599,-3.7497,-3.8238,-3.9078,-3.9702,-3.9702,-3.9702,-3.9702,-3.9702,-3.9702,-3.9702,-3.9702,-3.9702,-3.9702,-3.9702,-3.9351,-3.8804,-3.7965,-3.7536,-3.695,-3.6069,-3.5991,-3.5991,-3.5991,-3.6462,-3.7282,-3.8553,-3.9039,-3.9858,-4.1081,-4.1094,-4.1096,-4.1095,-4.1064,-4.1046,-4.0991,-4.1003,-4.0968,0.0,0.0,-2.9308,-2.9941,-3.0233,-3.0394,0.0,-3.0573,-3.0704,-3.0639,-3.0571,-3.052,-3.0491,-3.0499,-3.0469,-3.0471,-3.0511,-3.0568,-3.0577,-3.0565,-3.0599,-3.0668,-3.0664,-3.0678,-3.0672,-3.0678,-3.0678,-3.0678,-3.0678,-3.0678,-3.0678,-3.0671,-3.0703,-3.0759,-3.0779,-3.0782,-3.0804,-3.0791,-3.0796,-3.0801,-3.0801,-3.0801,-3.0801,-3.0801,-3.0801,-3.0801,-3.0801,-3.0801,-3.0801,-3.0801,-3.0801,-3.0801,-3.0801,-3.1192,-3.1777,-3.1777,-3.2187,-3.2734,-3.2734,-3.2734,-3.2773,-3.3007,-3.3066,-3.3105,-3.3339,-3.3398,-3.3398,-3.3398,-3.3398,-3.3398,-3.3398,-3.3886,-3.4432,-3.4647,-3.5681,-3.6813,-3.7497,-3.8141,-3.8593,-3.8593,-3.8593,-3.8593,-3.8593,-3.8593,-3.8593,-3.8593,-3.8593,-3.8593,-3.8593,-3.8414,-3.8024,-3.7379,-3.7301,-3.7048,-3.6384,-3.654,-3.6657,-3.6657,-3.7262,-3.8004,-3.8863,-3.9488,-4.021,-4.1088,-4.1101,-4.1109,-4.1106,-4.11,-4.1064,-4.0993,-4.0993,-4.0999,0.0,-2.8314,0.0,-2.84,-2.8993,0.0,0.0,-3.0189,-3.0774,-3.0706,-3.0632,-3.0585,-3.0501,-3.0449,-3.0402,-3.0417,-3.0398,-3.0419,-3.0491,-3.0501,-3.0521,-3.0595,-3.0604,-3.0613,-3.061,-3.061,-3.061,-3.061,-3.061,-3.061,-3.061,-3.061,-3.0634,-3.0697,-3.071,-3.0745,-3.0802,-3.081,-3.0801,-3.0801,-3.0801,-3.0801,-3.0801,-3.0801,-3.0801,-3.0801,-3.0801,-3.0801,-3.0801,-3.0801,-3.0801,-3.0801,-3.0801,-3.0841,-3.088,-3.088,-3.0899,-3.0938,-3.0938,-3.0938,-3.1075,-3.1895,-3.2168,-3.2324,-3.3144,-3.3398,-3.3398,-3.3398,-3.3398,-3.3398,-3.3398,-3.3437,-3.369,-3.4491,-3.4764,-3.5506,-3.8004,-3.8573,-3.8593,-3.8593,-3.8593,-3.8593,-3.8593,-3.8593,-3.8593,-3.8593,-3.8593,-3.8593,-3.8593,-3.7887,-3.734,-3.7301,-3.7301,-3.7282,-3.7243,-3.7985,-3.8456,-3.8456,-3.8514,-3.8882,-3.9702,-3.978,-4.021,-4.1088,-4.1108,-4.1104,-4.1094,-4.1111,-4.107,-4.1007,-4.0993,-4.0999,0.0,0.0,0.0,-2.8154,-2.8522,-2.8733,-2.8733,-2.9374,-2.9952,-2.9936,-3.032,-3.0632,-3.0579,-3.0462,-3.0394,-3.0402,-3.0402,-3.0414,-3.0425,-3.0428,-3.043,-3.0481,-3.052,-3.053,-3.054,-3.054,-3.054,-3.054,-3.054,-3.054,-3.054,-3.0017,-2.9735,-2.9804,-2.9304,-2.9063,-2.9125,-2.9169,-2.9196,-2.9201,-2.9201,-2.9494,-3.0021,-3.0021,-3.0313,-3.0801,-3.0801,-3.0801,-3.0801,-3.0801,-3.0801,-3.0801,-3.0801,-3.0801,-3.0801,-3.0801,-3.0801,-3.0801,-3.0801,-3.0801,-3.086,-3.1153,-3.127,-3.1328,-3.1641,-3.1738,-3.1738,-3.1738,-3.1738,-3.1738,-3.1738,-3.2148,-3.2929,-3.4354,-3.4705,-3.5115,-3.6618,-3.6931,-3.6931,-3.6931,-3.6931,-3.6931,-3.6931,-3.6931,-3.6931,-3.6931,-3.6931,-3.6931,-3.6931,-3.6657,-3.6462,-3.6462,-3.697,-3.7301,-3.7301,-3.8102,-3.8593,-3.8593,-3.9078,-3.9507,-3.98,-4.0346,-4.0776,-4.1088,-4.1108,-4.1104,-4.1094,-4.1105,-4.1096,-4.1061,-4.1056,-4.1064,-2.6401,0.0,0.0,0.0,-2.7647,-2.7856,-2.7852,-2.8494,-2.9171,-2.9471,-2.9946,-3.0372,-3.0581,-3.0537,-3.0471,-3.0444,-3.0414,-3.0402,-3.041,-3.0402,-3.0394,-3.0394,-3.0436,-3.0466,-3.0466,-3.0466,-3.0466,-3.0466,-3.0466,-3.0342,-3.0053,-2.9476,-2.9072,-2.8872,-2.8371,-2.8129,-2.8189,-2.8268,-2.8298,-2.8303,-2.8303,-2.8596,-2.9162,-2.9162,-2.9455,-2.9962,-2.9962,-3.0274,-3.0782,-3.0509,-3.0392,-3.0372,-3.0079,-3.0138,-3.0392,-3.0392,-3.0567,-3.0801,-3.0801,-3.0801,-3.0801,-3.0801,-3.0801,-3.0801,-3.0801,-3.0801,-3.0801,-3.0801,-3.0801,-3.0801,-3.0801,-3.1446,-3.2461,-3.3925,-3.4491,-3.494,-3.5818,-3.5991,-3.5991,-3.5991,-3.5991,-3.5991,-3.5991,-3.5991,-3.5991,-3.5991,-3.5991,-3.5991,-3.5991,-3.5991,-3.6111,-3.6404,-3.7223,-3.7848,-3.8121,-3.8941,-3.9432,-3.9432,-3.9937,-4.0249,-4.0249,-4.0795,-4.1108,-4.1108,-4.1108,-4.1104,-4.1097,-4.1094,-4.1109,-4.11,-4.1096,-4.1081,0.0,0.0,0.0,0.0,-2.6346,-2.6953,-2.6951,-2.7648,-2.8498,-2.9355,-2.9484,-2.9698,-3.0475,-3.0567,-3.0507,-3.0433,-3.04,-3.0406,-3.039,-3.041,-3.041,-3.041,-3.041,-3.041,-3.041,-3.041,-3.039,-3.0371,-3.0371,-2.9987,-2.9102,-2.9036,-2.8685,-2.7954,-2.7984,-2.8067,-2.8111,-2.819,-2.8218,-2.8225,-2.8225,-2.8244,-2.8264,-2.8264,-2.8283,-2.8303,-2.8303,-2.922,-3.0665,-2.9884,-2.9552,-2.9474,-2.8635,-2.883,-2.9593,-2.9593,-3.0118,-3.0801,-3.0801,-3.0801,-3.0801,-3.0801,-3.0801,-3.0801,-3.0801,-3.0801,-3.0801,-3.0801,-3.0801,-3.0801,-3.0801,-3.1426,-3.2285,-3.3144,-3.4022,-3.4901,-3.5779,-3.5971,-3.5991,-3.5991,-3.5991,-3.5991,-3.5991,-3.5991,-3.5991,-3.5991,-3.5991,-3.5991,-3.5991,-3.5991,-3.6325,-3.7165,-3.8063,-3.8921,-3.9702,-4.0581,-4.1108,-4.1108,-4.1108,-4.1108,-4.1108,-4.1108,-4.1108,-4.1108,-4.1108,-4.1108,-4.1108,-4.1097,-4.1094,-4.1094,-4.11,-4.1056,-2.5619,0.0,0.0,0.0,0.0,0.0,-2.6052,-2.6738,-2.7438,-2.7666,-2.8201,-2.8694,-2.8864,-2.8885,-2.8845,-2.8779,-2.9736,-3.0471,-3.046,-3.0469,-3.0477,-3.0477,-3.0477,-3.0477,-3.0477,-3.0477,-3.0216,-2.9578,-2.9539,-2.9143,-2.8275,-2.7642,-2.6959,-2.6215,-2.6209,-2.6254,-2.6318,-2.6389,-2.6425,-2.6423,-2.6423,-2.6757,-2.7366,-2.7366,-2.7698,-2.8303,-2.8303,-2.8557,-2.8967,-2.8752,-2.8654,-2.8635,-2.8381,-2.883,-2.9593,-2.9593,-3.0118,-3.0801,-3.0801,-3.0801,-3.0801,-3.0801,-3.0801,-3.0801,-3.0801,-3.0801,-3.0801,-3.0801,-3.0801,-3.0801,-3.0801,-3.0977,-3.1387,-3.2246,-3.3124,-3.4003,-3.4861,-3.5545,-3.5991,-3.5991,-3.5991,-3.5991,-3.5991,-3.5991,-3.5991,-3.5991,-3.5991,-3.5991,-3.5991,-3.5991,-3.6088,-3.6325,-3.7692,-3.869,-3.8902,-4.0268,-4.1108,-4.1108,-4.1108,-4.1108,-4.1108,-4.1101,-4.1097,-4.1097,-4.1109,-4.1109,-4.1097,-4.1104,-4.1104,-4.1104,-4.1105,-4.1056,0.0,0.0,0.0,-2.5648,0.0,0.0,-2.5659,-2.6062,-2.6559,-2.6934,-2.7399,-2.786,-2.8176,-2.8213,-2.8184,-2.8159,-2.8923,-2.9652,-2.9969,-3.0308,-3.053,-3.053,-3.052,-3.0366,-3.0028,-2.9999,-2.9631,-2.8762,-2.8665,-2.8279,-2.7411,-2.6554,-2.5916,-2.5515,-2.5511,-2.5543,-2.5632,-2.5679,-2.5697,-2.5698,-2.5698,-2.5976,-2.6468,-2.6468,-2.6722,-2.7229,-2.7229,-2.7229,-2.7229,-2.7229,-2.7425,-2.7717,-2.7366,-2.7971,-2.9064,-2.9064,-2.9806,-3.0801,-3.0801,-3.0801,-3.0801,-3.0801,-3.0801,-3.0801,-3.0801,-3.0801,-3.0801,-3.0801,-3.0801,-3.0801,-3.0801,-3.0801,-3.1016,-3.1895,-3.248,-3.3105,-3.3961,-3.4836,-3.5578,-3.5929,-3.6007,-3.6007,-3.6001,-3.6001,-3.6001,-3.6001,-3.6001,-3.6001,-3.6001,-3.6001,-3.6137,-3.6453,-3.7409,-3.8307,-3.9048,-4.0005,-4.0707,-4.1078,-4.1097,-4.1097,-4.1097,-4.1105,-4.11,-4.11,-4.1067,-4.1067,-4.11,-4.1097,-4.1104,-4.1108,-4.1094,-4.1091,0.0,0.0,0.0,-2.5562,-2.559,0.0,-2.5589,-2.5632,-2.5905,-2.6683,-2.6852,-2.7089,-2.7866,-2.7969,-2.7911,-2.7913,-2.8002,-2.8325,-2.9062,-2.9846,-3.0322,-3.0322,-3.0277,-2.9939,-2.9248,-2.9165,-2.8808,-2.7937,-2.771,-2.7287,-2.6516,-2.5784,-2.5432,-2.5492,-2.5512,-2.5554,-2.5695,-2.5683,-2.5701,-2.5698,-2.5698,-2.5701,-2.5707,-2.5707,-2.5707,-2.5707,-2.5707,-2.5707,-2.5707,-2.5707,-2.6156,-2.6782,-2.6,-2.6761,-2.8303,-2.8303,-2.9357,-3.0801,-3.0801,-3.0801,-3.0801,-3.0801,-3.0801,-3.0801,-3.0801,-3.0801,-3.0801,-3.0801,-3.0801,-3.0801,-3.0801,-3.0801,-3.0997,-3.1777,-3.2031,-3.2304,-3.3096,-3.401,-3.4928,-3.5701,-3.5916,-3.5994,-3.5981,-3.5981,-3.5981,-3.6001,-3.6001,-3.5997,-3.5977,-3.5977,-3.625,-3.6976,-3.7132,-3.7815,-3.937,-3.9585,-4.0014,-4.0891,-4.095,-4.0989,-4.1067,-4.1075,-4.1084,-4.1084,-4.1013,-4.1013,-4.1084,-4.1096,-4.1097,-4.1104,-4.1094,-4.1096,-2.534,-2.5374,-2.541,-2.5437,-2.5473,0.0,-2.5515,-2.5576,-2.5663,-2.5837,-2.5913,-2.6003,-2.6188,-2.6191,-2.6188,-2.6199,-2.6776,-2.7518,-2.8306,-2.852,-2.8592,-2.8592,-2.8572,-2.8514,-2.8353,-2.832,-2.7964,-2.7103,-2.6328,-2.5835,-2.5719,-2.5509,-2.5426,-2.5492,-2.5499,-2.5537,-2.5615,-2.5619,-2.566,-2.5693,-2.5693,-2.5698,-2.5707,-2.5707,-2.5707,-2.5707,-2.5707,-2.5707,-2.5707,-2.5707,-2.5805,-2.5941,-2.5765,-2.6761,-2.8303,-2.8303,-2.9357,-3.0801,-3.0801,-3.0801,-3.0801,-3.0801,-3.0801,-3.0801,-3.0801,-3.0801,-3.0801,-3.0801,-3.0801,-3.0801,-3.0801,-3.0801,-3.0841,-3.1016,-3.1582,-3.2148,-3.2316,-3.3581,-3.4726,-3.4842,-3.5437,-3.5914,-3.5919,-3.5919,-3.5914,-3.5922,-3.5922,-3.5897,-3.5846,-3.584,-3.5898,-3.606,-3.6703,-3.7267,-3.7598,-3.8261,-3.9039,-3.9916,-3.9974,-4.0259,-4.0901,-4.0945,-4.0929,-4.0929,-4.0929,-4.0929,-4.0937,-4.105,-4.11,-4.11,-4.1111,-4.107,-2.5252,-2.5274,-2.5293,-2.5303,-2.5348,0.0,0.0,-2.5452,-2.5499,-2.5507,-2.5541,-2.5609,-2.5632,-2.5644,-2.5652,-2.5681,-2.6074,-2.6483,-2.6903,-2.7631,-2.8145,-2.815,-2.8154,-2.7979,-2.7542,-2.7498,-2.7151,-2.6267,-2.5732,-2.5456,-2.5507,-2.5464,-2.5461,-2.5492,-2.5506,-2.5537,-2.561,-2.5595,-2.5636,-2.571,-2.571,-2.5696,-2.5707,-2.5707,-2.5707,-2.5707,-2.5707,-2.5707,-2.5707,-2.5707,-2.5707,-2.5707,-2.5707,-2.6761,-2.8303,-2.8303,-2.9357,-3.0801,-3.0801,-3.0801,-3.0801,-3.0801,-3.0801,-3.0801,-3.0801,-3.0801,-3.0801,-3.0801,-3.0801,-3.0801,-3.0801,-3.0801,-3.0801,-3.0801,-3.1133,-3.1443,-3.1451,-3.283,-3.4023,-3.3965,-3.4983,-3.5833,-3.5806,-3.5806,-3.5799,-3.5795,-3.5795,-3.5795,-3.5741,-3.5741,-3.5741,-3.5741,-3.6129,-3.6576,-3.7012,-3.7458,-3.8236,-3.9518,-3.9596,-3.9975,-4.083,-4.084,-4.0829,-4.0789,-4.0819,-4.0849,-4.0849,-4.0924,-4.0979,-4.0994,-4.1,-4.0986,-2.5153,-2.5164,-2.5176,-2.5179,-2.5222,-2.5264,0.0,0.0,0.0,-2.5376,-2.5421,-2.5477,-2.5552,-2.5561,-2.5593,-2.5678,-2.5673,-2.5687,-2.5696,-2.6873,-2.7713,-2.7729,-2.7714,-2.7437,-2.6747,-2.6665,-2.6377,-2.5673,-2.5562,-2.5525,-2.5517,-2.5507,-2.5495,-2.5505,-2.5499,-2.5531,-2.5576,-2.5591,-2.5636,-2.5707,-2.5707,-2.5696,-2.5707,-2.5707,-2.5707,-2.5707,-2.5707,-2.5707,-2.5707,-2.5707,-2.5707,-2.5707,-2.5707,-2.6761,-2.8303,-2.8303,-2.9357,-3.0801,-3.0801,-3.0801,-3.0801,-3.0801,-3.0801,-3.0801,-3.0801,-3.0801,-3.0801,-3.0801,-3.0801,-3.0801,-3.0801,-3.0801,-3.0801,-3.0801,-3.0801,-3.0796,-3.0801,-3.2171,-3.3375,-3.3303,-3.4637,-3.5756,-3.5708,-3.5688,-3.567,-3.5689,-3.5689,-3.5679,-3.5679,-3.5679,-3.5679,-3.5679,-3.5679,-3.5969,-3.6667,-3.6735,-3.7374,-3.8886,-3.9138,-3.9611,-4.0483,-4.0692,-4.0745,-4.0681,-4.0745,-4.0745,-4.0757,-4.0761,-4.0789,-4.0874,-4.0874,-4.0876,-2.5019,-2.5076,-2.5113,-2.5106,-2.5122,-2.5138,-2.5198,0.0,-2.5234,-2.5303,0.0,-2.534,-2.5401,0.0,0.0,-2.56,-2.5609,-2.5629,-2.5698,-2.5865,-2.5976,-2.5982,-2.5986,-2.5941,-2.5849,-2.583,-2.5801,-2.5695,-2.5634,-2.5585,-2.5595,-2.5524,-2.5495,-2.5503,-2.5507,-2.549,-2.5505,-2.5562,-2.5625,-2.5694,-2.5704,-2.5696,-2.5707,-2.5707,-2.5707,-2.5707,-2.5707,-2.5707,-2.5707,-2.5707,-2.5707,-2.5707,-2.5707,-2.6761,-2.8303,-2.8303,-2.9357,-3.0801,-3.0801,-3.0801,-3.0801,-3.0801,-3.0801,-3.0801,-3.0801,-3.0801,-3.0801,-3.0801,-3.0801,-3.0801,-3.0801,-3.0801,-3.0801,-3.0801,-3.0801,-3.0796,-3.0801,-3.2171,-3.3351,-3.325,-3.4553,-3.5708,-3.5698,-3.5658,-3.5607,-3.5604,-3.5623,-3.5612,-3.5608,-3.5616,-3.5616,-3.5616,-3.5616,-3.5654,-3.5751,-3.5751,-3.6137,-3.7044,-3.7836,-3.8646,-3.9515,-4.0249,-4.0635,-4.0602,-4.0621,-4.0615,-4.0615,-4.0615,-4.0694,-4.0809,-4.0809,-4.0807,-2.5004,-2.5031,-2.5044,-2.5044,-2.5032,-2.505,-2.5082,-2.5118,-2.5153,-2.5176,0.0,0.0,0.0,0.0,0.0,0.0,-2.5492,-2.5507,-2.557,-2.5613,-2.5664,-2.5703,-2.5701,-2.5698,-2.5694,-2.5709,-2.5698,-2.5704,-2.5636,-2.5605,-2.5601,-2.5544,-2.551,-2.5499,-2.5507,-2.549,-2.5499,-2.5562,-2.5625,-2.5694,-2.5704,-2.5696,-2.5707,-2.5707,-2.5707,-2.5707,-2.5707,-2.5707,-2.5707,-2.5707,-2.5707,-2.5707,-2.5707,-2.6761,-2.8303,-2.8303,-2.9357,-3.0801,-3.0801,-3.0801,-3.0801,-3.0801,-3.0801,-3.0801,-3.0801,-3.0801,-3.0801,-3.0801,-3.0801,-3.0801,-3.0801,-3.0801,-3.0801,-3.0801,-3.0799,-3.0794,-3.0801,-3.2138,-3.3316,-3.3219,-3.4526,-3.5626,-3.5601,-3.5558,-3.5534,-3.5534,-3.5534,-3.5541,-3.5528,-3.5528,-3.5528,-3.5528,-3.5528,-3.5528,-3.5528,-3.5528,-3.5894,-3.6683,-3.755,-3.8218,-3.8584,-3.8912,-3.9105,-3.9105,-3.9105,-3.9105,-3.9105,-3.9105,-3.9113,-3.92,-4.0224,-4.0668,-2.495,-2.495,-2.495,-2.495,-2.4945,-2.494,-2.494,-2.498,-2.5019,-2.5019,-2.5069,0.0,0.0,0.0,-2.5253,-2.5312,0.0,-2.5398,-2.5466,-2.5526,-2.5598,-2.567,-2.5697,-2.5701,-2.5703,-2.57,-2.5691,-2.5698,-2.5655,-2.5619,-2.5599,-2.5544,-2.5511,-2.5495,-2.5503,-2.5505,-2.5525,-2.5587,-2.563,-2.5694,-2.5704,-2.5696,-2.5707,-2.5707,-2.5707,-2.5707,-2.5707,-2.5707,-2.5707,-2.5707,-2.5707,-2.5707,-2.5707,-2.6624,-2.7971,-2.8205,-2.922,-3.0509,-3.0723,-3.0801,-3.0801,-3.0799,-3.0799,-3.0799,-3.0796,-3.0796,-3.0799,-3.0799,-3.0799,-3.0801,-3.0801,-3.0801,-3.0801,-3.0801,-3.0796,-3.0869,-3.111,-3.2274,-3.3315,-3.3505,-3.4661,-3.5577,-3.5515,-3.5502,-3.5495,-3.5507,-3.5493,-3.5493,-3.5493,-3.5493,-3.5493,-3.5493,-3.5493,-3.5493,-3.5493,-3.5493,-3.5853,-3.6661,-3.7296,-3.7757,-3.7988,-3.8007,-3.8007,-3.8007,-3.8007,-3.8007,-3.8007,-3.8007,-3.8007,-3.8027,-3.9297,-3.9885,-2.4813,-2.4813,-2.4813,-2.4813,-2.4813,-2.4794,-2.4794,-2.4808,-2.4808,-2.4808,-2.487,-2.4912,-2.4902,-2.5013,-2.5118,-2.5111,-2.5216,0.0,0.0,-2.5461,-2.5525,-2.5605,-2.5655,-2.5703,-2.5696,-2.5702,-2.5702,-2.5709,-2.569,-2.5664,-2.561,-2.5599,-2.557,-2.5499,-2.5506,-2.5531,-2.5601,-2.5593,-2.563,-2.5694,-2.5704,-2.5696,-2.5707,-2.5707,-2.5707,-2.5707,-2.5707,-2.5707,-2.5707,-2.5707,-2.5707,-2.5707,-2.5707,-2.6253,-2.7134,-2.7991,-2.8869,-2.9747,-3.0528,-3.0801,-3.0799,-3.0794,-3.0794,-3.0791,-3.0801,-3.0804,-3.0794,-3.0794,-3.0796,-3.0801,-3.0801,-3.0801,-3.0801,-3.0801,-3.0796,-3.1022,-3.1878,-3.2667,-3.3429,-3.4205,-3.5035,-3.5591,-3.5515,-3.5495,-3.5507,-3.5507,-3.5493,-3.5493,-3.5493,-3.5493,-3.5493,-3.5493,-3.5493,-3.5493,-3.5493,-3.5493,-3.5853,-3.6661,-3.6738,-3.7123,-3.7969,-3.8007,-3.8007,-3.8007,-3.8007,-3.8007,-3.8007,-3.8007,-3.8007,-3.8007,-3.8065,-3.8084,-2.467,-2.4704,-2.4753,-2.4787,-2.4753,-2.4753,-2.4787,-2.4772,-2.4719,-2.4719,-2.4802,-2.4832,-2.4827,-2.4945,-2.5025,-2.5038,-2.5111,-2.519,0.0,-2.5332,-2.5385,-2.5464,-2.5561,-2.5619,-2.5634,-2.567,-2.5702,-2.5699,-2.5703,-2.5678,-2.5593,-2.5595,-2.5581,-2.5571,-2.5565,-2.559,-2.5605,-2.5595,-2.5636,-2.5704,-2.5693,-2.5701,-2.5707,-2.5707,-2.5707,-2.5707,-2.5707,-2.5691,-2.5697,-2.5697,-2.5694,-2.5707,-2.5707,-2.5883,-2.6253,-2.7112,-2.8362,-2.9728,-3.0523,-3.0796,-3.0794,-3.0807,-3.0804,-3.0804,-3.0801,-3.0801,-3.0804,-3.0804,-3.0804,-3.0807,-3.0807,-3.0807,-3.0807,-3.0794,-3.0804,-3.1047,-3.1902,-3.268,-3.346,-3.4292,-3.5087,-3.5596,-3.5572,-3.5534,-3.5495,-3.5507,-3.5493,-3.5493,-3.5493,-3.5493,-3.5493,-3.5493,-3.5493,-3.5493,-3.5493,-3.5493,-3.5622,-3.5892,-3.5911,-3.6045,-3.6334,-3.6353,-3.6353,-3.6353,-3.6353,-3.6353,-3.6353,-3.6353,-3.6353,-3.6353,-3.6353,-3.6949,-2.4528,-2.4561,-2.461,-2.4645,-2.4645,-2.4594,-2.4647,-2.4631,-2.458,-2.458,-2.4629,-2.466,-2.4711,-2.4836,-2.4936,-2.4926,-2.5006,-2.5101,0.0,-2.522,-2.5274,-2.5312,-2.5473,-2.5566,-2.5593,-2.5645,-2.567,-2.5703,-2.5697,-2.5681,-2.5642,-2.5632,-2.5644,-2.5636,-2.5636,-2.5636,-2.5644,-2.5648,-2.5658,-2.5693,-2.5696,-2.5701,-2.5707,-2.5707,-2.5709,-2.5693,-2.5709,-2.5691,-2.5697,-2.5701,-2.5699,-2.5693,-2.5693,-2.5693,-2.581,-2.6685,-2.8108,-2.9669,-3.0191,-3.056,-3.0791,-3.0801,-3.0794,-3.0806,-3.0802,-3.0802,-3.0802,-3.0802,-3.0806,-3.0806,-3.0806,-3.0806,-3.081,-3.0801,-3.081,-3.1027,-3.1889,-3.2415,-3.3083,-3.4234,-3.4835,-3.5241,-3.5558,-3.5572,-3.5534,-3.5495,-3.5501,-3.5501,-3.5501,-3.5515,-3.5534,-3.5501,-3.5501,-3.5501,-3.5507,-3.5493,-3.5493,-3.5493,-3.5493,-3.5493,-3.5493,-3.5493,-3.5493,-3.5493,-3.5493,-3.5353,-3.5045,-3.5045,-3.4891,-3.4584,-3.4584,-3.5315]}]]